[[{"header":{"parameterUnit":"m.s-1","parameterCategory":1,"la1":31.0,"la2":29.5877,"lo1":-88.7671,"lo2":-86.6584,"dy":0.0162,"dx":0.0185,"nx":115,"ny":88,"refTime":"2024-07-02T18:00:00:Z","depth":0,"parameterNumber":2,"parameterNumberName":"U-component_of_WINDS"},"data":[0.0,0.0,0.0,0.0,0.0,0.0,0.0,0.0,0.0,0.0,0.0,0.0,0.0,0.0,0.0,0.0,0.0,0.0,0.0,0.0,0.0,0.0,0.0,0.0,0.0,0.0,0.0,0.0,0.0,0.0,0.0,0.0,0.0,0.0,0.0,0.0,0.0,0.0,0.0,0.0,0.0,0.0,0.0,0.0,0.0,0.0,0.0,0.0,0.0,0.0,0.0,0.0,0.0,0.0,0.0,0.0,0.0,0.0,0.0,0.0,0.0,0.0,0.0,0.0,0.0,0.0,0.0,0.0,0.0,0.0,0.0,0.0,0.0,0.0,0.0,0.0,0.0,0.0,0.0,0.0,0.0,0.0,0.0,0.0,0.0,0.0,0.0,0.0,0.0,0.0,0.0,0.0,0.0,0.0,0.0,0.0,0.0,0.0,0.0,0.0,0.0,0.0,0.0,0.0,0.0,0.0,0.0,0.0,0.0,0.0,0.0,0.0,0.0,0.0,0.0,0.0,0.0,0.0,0.0,0.0,0.0,0.0,0.0,0.0,0.0,0.0,0.0,0.0,0.0,0.0,0.0,0.0,0.0,0.0,0.0,0.0,0.0,0.0,0.0,0.0,0.0,0.0,0.0,0.0,0.0,0.0,0.0,0.0,0.0,0.0,0.0,0.0,0.0,0.0,0.0,0.0,0.0,0.0,0.0,0.0,0.0,0.0,0.0,0.0,0.0,0.0,0.0,0.0,0.0,0.0,0.0,0.0,0.0,0.0,0.0,0.0,0.0,0.0,0.0,0.0,0.0,0.0,0.0,0.0,0.0,0.0,0.0,0.0,0.0,0.0,0.0,0.0,0.0,0.0,0.0,0.0,0.0,0.0,0.0,0.0,0.0,0.0,0.0,0.0,0.0,0.0,0.0,0.0,0.0,0.0,0.0,0.0,0.0,0.0,0.0,0.0,0.0,0.0,0.0,0.0,0.0,0.0,0.0,0.0,0.0,0.0,0.0,0.0,0.0,0.0,0.0,0.0,0.0,0.0,0.0,0.0,0.0,0.0,0.0,0.0,0.0,0.0,0.0,0.0,0.0,0.0,0.0,0.0,0.0,0.0,0.0,0.0,0.0,0.0,0.0,0.0,0.0,0.0,0.0,0.0,0.0,0.0,0.0,0.0,0.0,0.0,0.0,0.0,0.0,0.0,0.0,0.0,0.0,0.0,0.0,0.0,0.0,0.0,0.0,0.0,0.0,0.0,0.0,0.0,0.0,0.0,0.0,0.0,0.0,0.0,0.0,0.0,0.0,0.0,0.0,0.0,0.0,0.0,0.0,0.0,0.0,0.0,0.0,0.0,0.0,0.0,0.0,0.0,0.0,0.0,0.0,0.0,0.0,0.0,0.0,0.0,0.0,0.0,0.0,0.0,0.0,0.0,0.0,0.0,0.0,0.0,0.0,0.0,0.0,0.0,0.0,0.0,0.0,0.0,0.0,0.0,0.0,0.0,0.0,0.0,0.0,0.0,0.0,0.0,0.0,0.0,0.0,0.0,0.0,0.0,0.0,0.0,0.0,0.0,0.0,0.0,0.0,0.0,0.0,0.0,0.0,0.0,0.0,0.0,0.0,0.0,0.0,0.0,0.0,0.0,0.0,0.0,0.0,0.0,0.0,0.0,0.0,0.0,0.0,0.0,0.0,0.0,0.0,0.0,0.0,0.0,0.0,0.0,0.0,0.0,0.0,0.0,0.0,0.0,0.0,0.0,0.0,0.0,0.0,0.0,0.0,0.0,0.0,0.0,0.0,0.0,0.0,0.0,0.0,0.0,0.0,0.0,0.0,0.0,0.0,0.0,0.0,0.0,0.0,0.0,0.0,0.0,0.0,0.0,0.0,0.0,0.0,0.0,0.0,0.0,0.0,0.0,0.0,0.0,0.0,0.0,0.0,0.0,0.0,0.0,0.0,0.0,0.0,0.0,0.0,0.0,0.0,0.0,0.0,0.0,0.0,0.0,0.0,0.0,0.0,0.0,0.0,0.0,0.0,0.0,0.0,0.0,0.0,0.0,0.0,0.0,0.0,0.0,0.0,0.0,0.0,0.0,0.0,0.0,0.0,0.0,0.0,0.0,0.0,0.0,0.0,0.0,0.0,0.0,0.0,0.0,0.0,0.0,0.0,0.0,0.0,0.0,0.0,0.0,0.0,0.0,0.0,0.0,0.0,0.0,0.0,0.0,0.0,0.0,0.0,0.0,0.0,0.0,0.0,0.0,0.0,0.0,0.0,0.0,0.0,0.0,0.0,0.0,0.0,0.0,0.0,0.0,0.0,0.0,0.0,0.0,0.0,0.0,0.0,0.0,0.0,0.0,0.0,0.0,0.0,0.0,0.0,0.0,0.0,0.0,0.0,0.0,0.0,0.0,0.0,0.0,0.0,0.0,0.0,0.0,0.0,0.0,0.0,0.0,0.0,0.0,0.0,0.0,0.0,0.0,0.0,0.0,0.0,0.0,0.0,0.0,0.0,0.0,0.0,0.0,0.0,0.0,0.0,0.0,0.0,0.0,0.0,0.0,0.0,0.0,0.0,0.0,0.0,0.0,0.0,0.0,0.0,0.0,0.0,0.0,0.0,0.0,0.0,0.0,0.0,0.0,0.0,0.0,0.0,0.0,0.0,0.0,0.0,0.0,0.0,0.0,0.0,0.0,0.0,0.0,0.0,0.0,0.0,0.0,0.0,0.0,0.0,0.0,0.0,0.0,0.0,0.0,0.0,0.0,0.0,0.0,0.0,0.0,0.0,0.0,0.0,0.0,0.0,0.0,0.0,0.0,0.0,0.0,0.0,0.0,0.0,0.0,0.0,0.0,0.0,0.0,0.0,0.0,0.0,0.0,0.0,0.0,0.0,0.0,0.0,0.0,0.0,0.0,0.0,0.0,0.0,0.0,0.0,0.0,0.0,0.0,0.0,0.0,0.0,0.0,0.0,0.0,0.0,0.0,0.0,0.0,0.0,0.0,0.0,0.0,0.0,0.0,0.0,0.0,0.0,0.0,0.0,0.0,0.0,0.0,0.0,0.0,0.0,0.0,0.0,0.0,0.0,0.0,0.0,0.0,0.0,0.0,0.0,0.0,0.0,0.0,0.0,0.0,0.0,0.0,0.0,0.0,0.0,0.0,0.0,0.0,0.0,0.0,0.0,0.0,0.0,0.0,0.0,0.0,0.0,0.0,0.0,0.0,0.0,0.0,0.0,0.0,0.0,0.0,0.0,0.0,0.0,0.0,0.0,0.0,0.0,0.0,0.0,0.0,0.0,0.0,0.0,0.0,0.0,0.0,0.0,0.0,0.0,0.0,0.0,0.0,0.0,0.0,0.0,0.0,0.0,0.0,0.0,0.0,0.0,0.0,0.0,0.0,0.0,0.0,0.0,0.0,0.0,0.0,0.0,0.0,0.0,0.0,0.0,0.0,0.0,0.0,0.0,0.0,0.0,0.0,0.0,0.0,0.0,0.0,0.0,0.0,0.0,0.0,0.0,0.0,0.0,0.0,0.0,0.0,0.0,0.0,0.0,0.0,0.0,0.0,0.0,0.0,0.0,0.0,0.0,0.0,0.0,0.0,0.0,0.0,0.0,0.0,0.0,0.0,0.0,0.0,0.0,0.0,0.0,0.0,0.0,0.0,0.0,0.0,0.0,0.0,0.0,0.0,0.0,0.0,0.0,0.0,0.0,0.0,0.0,0.0,0.0,0.0,0.0,0.0,0.0,0.0,0.0,0.0,0.0,0.0,0.0,0.0,0.0,0.0,0.0,0.0,0.0,0.0,0.0,0.0,0.0,0.0,0.0,0.0,0.0,0.0,0.0,0.0,0.0,0.0,0.0,0.0,0.0,0.0,0.0,0.0,0.0,0.0,0.0,0.0,0.0,0.0,0.0,0.0,0.0,0.0,0.0,0.0,0.0,0.0,0.0,0.0,0.0,0.0,0.0,0.0,0.0,0.0,0.0,0.0,0.0,0.0,0.0,0.0,0.0,0.0,0.0,0.0,0.0,0.0,0.0,0.0,0.0,0.0,0.0,0.0,0.0,0.0,0.0,0.0,0.0,0.0,0.0,0.0,0.0,0.0,0.0,0.0,0.0,0.0,0.0,0.0,0.0,0.0,0.0,0.0,0.0,0.0,0.0,0.0,0.0,0.0,0.0,0.0,0.0,0.0,0.0,0.0,0.0,0.0,0.0,0.0,0.0,0.0,0.0,0.0,0.0,0.0,0.0,0.0,0.0,0.0,0.0,0.0,-0.2859,0.0,0.0,0.0,0.0,0.0,0.0,0.0,0.0,0.0,0.0,0.0,0.0,0.0,0.0,0.0,0.0,0.0,0.0,0.0,0.0,0.0,0.0,0.0,0.0,0.0,0.0,0.0,0.0,0.0,0.0,0.0,0.0,0.0,0.0,0.0,0.0,0.0,0.0,0.0,0.0,0.0,0.0,0.0,0.0,0.0,0.0,0.0,0.0,0.0,0.0,0.0,0.0,0.0,0.0,0.0,0.0,0.0,0.0,0.0,0.0,0.0,0.0,0.0,0.0,0.0,0.0,0.0,0.0,0.0,0.0,0.0,0.0,0.0,0.0,0.0,0.0,0.0,0.0,0.0,0.0,0.0,0.0,0.0,0.0,0.0,0.0,0.0,0.0,0.0,0.0,0.0,0.0,0.0,0.0,0.0,0.0,0.0,0.0,0.0,0.0,0.0,0.0,0.0,0.0,0.0,0.0,0.0,0.0,0.0,0.0,-0.2298,-0.2272,-0.2425,-0.2534,-0.2642,0.0,0.0,0.0,0.0,0.0,0.0,0.0,0.0,0.0,0.0,0.0,0.0,0.0,0.0,0.0,0.0,0.0,0.0,0.0,0.0,0.0,0.0,0.0,0.0,0.0,0.0,0.0,0.0,0.0,0.0,0.0,0.0,0.0,0.0,0.0,0.0,0.0,0.0,0.0,0.0,0.0,0.0,0.0,0.0,0.0,0.0,0.0,0.0,0.0,0.0,0.0,0.0,0.0,0.0,0.0,0.0,0.0,0.0,0.0,0.0,0.0,0.0,0.0,0.0,0.0,0.0,0.0,0.0,0.0,0.0,0.0,0.0,0.0,0.0,0.0,0.0,0.0,0.0,0.0,0.0,0.0,0.0,0.0,0.0,0.0,0.0,0.0,0.0,0.0,0.0,0.0,0.0,0.0,0.0,0.0,0.0,0.0,0.0,0.0,0.0,0.0,0.0,0.0,0.0,0.0,0.0,0.0,0.0,0.0,0.0,0.0,0.0,-0.2424,-0.2493,-0.2415,0.0,0.0,0.0,0.0,0.0,0.0,0.0,0.0,0.0,0.0,0.0,0.0,0.0,0.0,0.0,0.0,0.0,0.0,0.0,0.0,0.0,0.0,0.0,0.0,0.0,0.0,0.0,0.0,0.0,0.0,0.0,0.0,0.0,0.0,0.0,0.0,0.0,0.0,0.0,0.0,0.0,0.0,0.0,0.0,0.0,0.0,0.0,0.0,0.0,0.0,0.0,0.0,0.0,0.0,0.0,0.0,0.0,0.0,0.0,0.0,0.0,0.0,0.0,0.0,0.0,0.0,0.0,0.0,0.0,0.0,0.0,0.0,0.0,0.0,0.0,0.0,0.0,0.0,0.0,0.0,0.0,0.0,0.0,0.0,0.0,0.0,0.0,0.0,0.0,0.0,0.0,0.0,0.0,0.0,0.0,0.0,0.0,0.0,0.0,0.0,0.0,0.0,0.0,0.0,0.0,0.0,0.0,0.0,0.0,0.0,-0.2275,-0.2646,-0.2654,0.0,-0.2191,0.0,0.0,0.0,0.0,0.0,0.0,0.0,0.0,0.0,0.0,0.0,0.0,0.0,0.0,0.0,0.0,0.0,0.0,0.0,0.0,0.0,0.0,0.0,0.0,0.0,0.0,0.0,0.0,0.0,0.0,0.0,0.0,0.0,0.0,0.0,0.0,0.0,0.0,0.0,0.0,0.0,0.0,0.0,0.0,0.0,0.0,0.0,0.0,0.0,0.0,0.0,0.0,0.0,0.0,0.0,0.0,0.0,0.0,0.0,0.0,0.0,0.0,0.0,0.0,0.0,0.0,0.0,0.0,0.0,0.0,0.0,0.0,0.0,0.0,0.0,0.0,0.0,0.0,0.0,0.0,0.0,0.0,0.0,0.0,0.0,0.0,0.0,0.0,0.0,0.0,0.0,0.0,0.0,0.0,0.0,0.0,0.0,0.0,0.0,0.0,0.0,0.0,0.0,0.0,0.0,0.0,0.0,0.0,0.0,0.0,0.0,-0.2287,-0.2118,-0.2256,0.0,0.0,0.0,0.0,0.0,0.0,0.0,0.0,0.0,0.0,0.0,0.0,0.0,0.0,0.0,0.0,0.0,0.0,0.0,0.0,0.0,0.0,0.0,0.0,0.0,0.0,0.0,0.0,0.0,0.0,0.0,0.0,0.0,0.0,0.0,0.0,0.0,0.0,0.0,0.0,0.0,0.0,0.0,0.0,0.0,0.0,0.0,0.0,0.0,0.0,0.0,0.0,0.0,0.0,0.0,0.0,0.0,0.0,0.0,0.0,0.0,0.0,0.0,0.0,0.0,0.0,0.0,0.0,0.0,0.0,0.0,0.0,0.0,0.0,0.0,0.0,0.0,0.0,0.0,0.0,0.0,0.0,0.0,0.0,0.0,0.0,0.0,0.0,0.0,0.0,0.0,0.0,0.0,0.0,0.0,0.0,0.0,0.0,0.0,0.0,0.0,0.0,0.0,0.0,0.0,0.0,0.0,0.0,0.0,0.0,-0.2324,0.0,-0.2024,-0.1851,-0.2135,-0.2977,0.0,0.0,0.0,0.0,0.0,0.0,0.0,0.0,0.0,0.0,0.0,0.0,0.0,0.0,0.0,0.0,0.0,0.0,0.0,0.0,0.0,0.0,0.0,0.0,0.0,0.0,0.0,0.0,0.0,0.0,0.0,0.0,0.0,0.0,0.0,0.0,0.0,0.0,0.0,0.0,0.0,0.0,0.0,0.0,0.0,0.0,0.0,0.0,0.0,0.0,0.0,0.0,0.0,0.0,0.0,0.0,0.0,0.0,0.0,0.0,0.0,0.0,0.0,0.0,0.0,0.0,0.0,0.0,0.0,0.0,0.0,0.0,0.0,0.0,0.0,0.0,0.0,0.0,0.0,0.0,0.0,0.0,0.0,0.0,0.0,0.0,0.0,0.0,0.0,0.0,0.0,0.0,0.0,0.0,0.0,0.0,0.0,0.0,0.0,0.0,0.0,0.0,0.0,0.0,0.0,0.0,0.0,0.0,0.0,-0.1921,-0.1804,-0.2109,-0.208,-0.2207,0.0,0.0,0.0,0.0,0.0,0.0,0.0,0.0,0.0,0.0,0.0,0.0,0.0,0.0,0.0,0.0,0.0,0.0,0.0,0.0,0.0,0.0,0.0,0.0,0.0,0.0,0.0,0.0,0.0,0.0,0.0,0.0,0.0,0.0,0.0,0.0,0.0,0.0,0.0,0.0,0.0,0.0,0.0,0.0,0.0,0.0,0.0,0.0,0.0,0.0,0.0,0.0,0.0,0.0,0.0,0.0,0.0,0.0,0.0,0.0,0.0,0.0,0.0,0.0,0.0,0.0,0.0,0.0,0.0,0.0,0.0,0.0,0.0,0.0,0.0,0.0,0.0,0.0,0.0,0.0,0.0,0.0,0.0,0.0,0.0,0.0,0.0,0.0,0.0,0.0,0.0,0.0,0.0,0.0,0.0,0.0,0.0,0.0,0.0,0.0,0.0,0.0,0.0,0.0,0.0,0.0,0.0,0.0,0.0,-0.1729,-0.1424,-0.1605,-0.2229,-0.1622,-0.1698,0.0,0.0,0.0,0.0,0.0,0.0,0.0,0.0,0.0,0.0,0.0,0.0,0.0,0.0,0.0,0.0,0.0,0.0,0.0,0.0,0.0,0.0,0.0,0.0,0.0,0.0,0.0,0.0,0.0,0.0,0.0,0.0,0.0,0.0,0.0,0.0,0.0,0.0,0.0,0.0,0.0,0.0,0.0,0.0,0.0,0.0,0.0,0.0,0.0,0.0,0.0,0.0,0.0,0.0,0.0,0.0,0.0,0.0,0.0,0.0,0.0,0.0,0.0,0.0,0.0,0.0,0.0,0.0,0.0,0.0,0.0,0.0,0.0,0.0,0.0,0.0,0.0,0.0,0.0,0.0,0.0,0.0,0.0,0.0,0.0,0.0,0.0,0.0,0.0,0.0,0.0,0.0,0.0,0.0,0.0,0.0,0.0,0.0,0.0,0.0,0.0,0.0,0.0,0.0,0.0,0.0,0.0,0.0,0.0,-0.1144,0.0,-0.1308,0.0,-0.1146,-0.1169,0.0,0.0,0.0,0.0,0.0,0.0,0.0,0.0,0.0,0.0,0.0,0.0,0.0,0.0,0.0,0.0,0.0,0.0,0.0,0.0,0.0,0.0,0.0,0.0,0.0,0.0,0.0,0.0,0.0,0.0,0.0,0.0,0.0,0.0,0.0,0.0,0.0,0.0,0.0,0.0,0.0,0.0,0.0,0.0,0.0,0.0,0.0,0.0,0.0,0.0,0.0,0.0,0.0,0.0,0.0,0.0,0.0,0.0,0.0,0.0,0.0,0.0,0.0,0.0,0.0,0.0,0.0,0.0,0.0,0.0,0.0,0.0,0.0,0.0,0.0,0.0,0.0,0.0,0.0,0.0,0.0,0.0,0.0,0.0,0.0,0.0,0.0,0.0,0.0,0.0,0.0,0.0,0.0,0.0,0.0,0.0,0.0,0.0,0.0,0.0,0.0,0.0,0.0,0.0,0.0,0.0,0.0,0.0,-0.086,-0.0795,-0.0848,-0.0889,-0.0814,-0.073,-0.0704,0.0,0.0,0.0,0.0,0.0,0.0,0.0,0.0,0.0,0.0,0.0,0.0,0.0,0.0,0.0,0.0,0.0,0.0,0.0,0.0,0.0,0.0,0.0,0.0,0.0,0.0,0.0,0.0,0.0,0.0,0.0,0.0,0.0,0.0,0.0,0.0,0.0,0.0,0.0,0.0,0.0,0.0,0.0,0.0,0.0,0.0,0.0,0.0,0.0,0.0,0.0,0.0,0.0,0.0,0.0,0.0,0.0,0.0,0.0,0.0,0.0,0.0,0.0,0.0,0.0,0.0,0.0,0.0,0.0,0.0,0.0,0.0,0.0,0.0,0.0,0.0,0.0,0.0,0.0,0.0,0.0,0.0,0.0,0.0,0.0,0.0,0.0,0.0,0.0,0.0,0.0,0.0,0.0,0.0,0.0,0.0,0.0,0.0,0.0,0.0,0.0,0.0,0.0,0.0,0.0,0.0,0.0,0.0,0.0,-0.0538,-0.0579,-0.0626,-0.0669,-0.0583,-0.0561,0.0,0.0,0.0,0.0,0.0,0.0,0.0,0.0,0.0,0.0,0.0,0.0,0.0,0.0,0.0,0.0,0.0,0.0,0.0,0.0,0.0,0.0,0.0,0.0,0.0,0.0,0.0,0.0,0.0,0.0,0.0,0.0,0.0,0.0,0.0,0.0,0.0,0.0,0.0,0.0,0.0,0.0,0.0,0.0,0.0,0.0,0.0,0.0,0.0,0.0,0.0,0.0,0.0,0.0,0.0,0.0,0.0,0.0,0.0,0.0,0.0,0.0,0.0,0.0,0.0,0.0,0.0,0.0,0.0,0.0,0.0,0.0,0.0,0.0,0.0,0.0,0.0,0.0,0.0,0.0,0.0,0.0,0.0,0.0,0.0,0.0,0.0,0.0,0.0,0.0,0.0,0.0,0.0,0.0,0.0,0.0,0.0,0.0,0.0,0.0,0.0,0.0,0.0,0.0,0.0,0.0,0.0,0.0,0.0,-0.0536,-0.0562,-0.0598,-0.0645,-0.0566,-0.0511,-0.047,0.0,0.0,0.0,0.0,0.0,0.0,0.0,0.0,0.0,0.0,0.0,0.0,0.0,0.0,0.0,0.0,0.0,0.0,0.0,0.0,0.0,0.0,0.0,0.0,0.0,0.0,0.0,0.0,0.0,0.0,0.0,0.0,0.0,0.0,0.0,0.0,0.0,0.0,0.0,0.0,0.0,0.0,0.0,0.0,0.0,0.0,0.0,0.0,0.0,0.0,0.0,0.0,0.0,0.0,0.0,0.0,0.0,0.0,0.0,0.0,0.0,0.0,0.0,0.0,0.0,0.0,0.0,0.0,0.0,0.0,0.0,0.0,0.0,0.0,0.0,0.0,0.0,0.0,0.0,0.0,0.0,0.0,0.0,0.0,0.0,0.0,0.0,0.0,0.0,0.0,0.0,0.0,0.0,0.0,0.0,0.0,0.0,0.0,0.0,0.0,0.0,0.0,0.0,0.0,0.0,0.0,0.0,0.0,-0.0633,-0.0663,-0.0664,-0.0721,-0.0616,-0.051,0.0,0.0,0.0,0.0,0.0,0.0,0.0,0.0,0.0,0.0,0.0,0.0,0.0,0.0,0.0,0.0,0.0,0.0,0.0,0.0,0.0,0.0,0.0,0.0,0.0,0.0,0.0,0.0,0.0,0.0,0.0,0.0,0.0,0.0,0.0,0.0,0.0,0.0,0.0,0.0,0.0,0.0,0.0,0.0,0.0,0.0,0.0,0.0,0.0,0.0,0.0,0.0,0.0,0.0,0.0,0.0,0.0,0.0,0.0,0.0,0.0,0.0,0.0,0.0,0.0,0.0,0.0,0.0,0.0,0.0,0.0,0.0,0.0,0.0,0.0,0.0,0.0,0.0,0.0,0.0,0.0,0.0,0.0,0.0,0.0,0.0,0.0,0.0,0.0,0.0,0.0,0.0,0.0,0.0,0.0,0.0,0.0,0.0,0.0,0.0,0.0,0.0,0.0,0.0,0.0,0.0,0.0,0.0,0.0,-0.0044,-0.0095,-0.0337,-0.074,-0.0359,-0.0286,0.0,0.0,0.0,0.0,0.0,0.0,0.0,0.0,0.0,0.0,0.0,0.0,0.0,0.0,0.0,0.0,0.0,0.0,0.0,0.0,0.0,0.0,0.0,0.0,0.0,0.0,0.0,0.0,0.0,0.0,0.0,0.0,0.0,0.0,0.0,0.0,0.0,0.0,0.0,0.0,0.0,0.0,0.0,0.0,0.0,0.0,0.0,0.0,0.0,0.0,0.0,0.0,0.0,0.0,0.0,0.0,0.0,0.0,0.0,0.0,0.0,0.0,0.0,0.0,0.0,0.0,0.0,0.0,0.0,0.0,0.0,0.0,0.0,0.0,0.0,0.0,0.0,0.0,0.0,0.0,0.0,0.0,0.0,0.0,0.0,0.0,0.0,0.0,0.0,0.0,0.0,0.0,0.0,0.0,0.0,0.0,0.0,0.0,0.0,0.0,0.0,0.0,0.0,0.0,0.0,0.0,0.0,0.0,-0.0516,-0.0241,-0.0307,-0.0364,-0.0451,0.0133,0.024,0.0,0.0,0.0,0.0,0.0,0.0,0.0,0.0,0.0,0.0,0.0,0.0,0.0,0.0,0.0,0.0,0.0,0.0,0.0,0.0,0.0,0.0,0.0,0.0,0.0,0.0,0.0,0.0,0.0,0.0,0.0,0.0,0.0,0.0,0.0,0.0,0.0,0.0,0.0,0.0,0.0,0.0,0.0,0.0,0.0,0.0,0.0,0.0,0.0,0.0,0.0,0.0,0.0,0.0,0.0,0.0,0.0,0.0,0.0,0.0,0.0,0.0,0.0,0.0,0.0,0.0,0.0,0.0,0.0,0.0,0.0,0.0,0.0,0.0,0.0,0.0,0.0,0.0,0.0,0.0,0.0,0.0,0.0,0.0,0.0,0.0,0.0,0.0,0.0,0.0,0.0,0.0,0.0,0.0,0.0,0.0,0.0,0.0,0.0,0.0,0.0,0.0,0.0,0.0,0.0,0.0,0.0,0.0,-0.0736,-0.0791,-0.0715,-0.0442,0.0161,0.0698,0.0814,0.0,0.0,0.0,0.0,0.0,0.0,0.0,0.0,0.0,0.0,0.0,0.0,0.0,0.0,0.0,0.0,0.0,0.0,0.0,0.0,0.0,0.0,0.0,0.0,0.0,0.0,0.0,0.0,0.0,0.0,0.0,0.0,0.0,0.0,0.0,0.0,0.0,0.0,0.0,0.0,0.0,0.0,0.0,0.0,0.0,0.0,0.0,0.0,0.0,0.0,0.0,0.0,0.0,0.0,0.0,0.0,0.0,0.0,0.0,0.0,0.0,0.0,0.0,0.0,0.0,0.0,0.0,0.0,0.0,0.0,0.0,0.0,0.0,0.0,0.0,0.0,0.0,0.0,0.0,0.0,0.0,0.0,0.0,0.0,0.0,0.0,0.0,0.0,0.0,0.0,0.0,0.0,0.0,0.0,0.0,0.0,0.0,0.0,0.0,0.0,0.0,0.0,0.0,0.0,0.0,0.0,0.0,0.0,-0.0576,-0.0102,0.0325,0.078,0.1383,0.0931,0.0801,0.0,0.0,0.0,0.0,0.0,0.0,0.0,0.0,0.0,0.0,0.0,0.0,0.0,0.0,0.0,0.0,0.0,0.0,0.0,0.0,0.0,0.0,0.0,0.0,0.0,0.0,0.0,0.0,0.0,0.0,0.0,0.0,0.0,0.0,0.0,0.0,0.0,0.0,0.0,0.0,0.0,0.0,0.0,0.0,0.0,0.0,0.0,0.0,0.1026,0.0,0.0,0.0,0.0,0.0,0.0,0.0,0.0,0.0,0.0,0.0,0.0,0.0,0.0,0.0,0.0,0.0,0.0,0.0,0.0,0.0,0.0,0.0,0.0,0.0,0.0,0.0,0.0,0.0,0.0,0.0,0.0,0.0,0.0,0.0,0.0,0.0,0.0,0.0,0.0,0.0,0.0,0.0,0.0,0.0,0.0,0.0,0.0,0.0,0.0,0.0,0.0,0.0,0.0,0.0,0.0,0.0,0.0,0.0,-0.0099,0.0476,0.0768,0.1174,0.1732,0.1404,0.1349,0.0,0.0,0.0,0.0,0.0,0.0,0.0,0.0,0.0,0.0,0.0,0.0,0.0,0.0,0.0,0.0,0.0,0.0,0.0,0.0,0.0,0.0,0.0,0.0,0.0,0.0,0.0,0.0,0.0,0.0,0.0,0.0,0.0,0.0,0.0,0.0,0.0,0.0,0.0,0.0,0.0,0.0,0.0,0.0,0.0,0.0,0.0,0.0,0.0,0.0,0.0,0.0,0.0,0.0,0.0,0.0,0.0,0.0,0.0,0.0,0.0,0.0,0.0,0.0,0.0,0.0,0.0,0.0,0.0,0.0,0.0,0.0,0.0,0.0,0.0,0.0,0.0,0.0,0.0,0.0,0.0,0.0,0.0,0.0,0.0,0.0,0.0,0.0,0.0,0.0,0.0,0.0,0.0,0.0,0.0,0.0,0.0,0.0,0.0,0.0,0.0,0.0,0.0,0.0,0.0,0.0,0.0,0.0452,0.0402,0.089,0.1006,0.1286,0.179,0.1903,0.2047,0.2258,0.0,0.0,0.0,0.0,0.0,0.0,0.0,0.0,0.0,0.0,0.0,0.0,0.0,0.0,0.0,0.0,0.0,0.0,0.0,0.0,0.0,0.0,0.0,0.0,0.0,0.0,0.0,0.0,0.0,0.0,0.0,0.0,0.0,0.0,0.0,0.0,0.0,0.0,0.1343,0.149,0.0,0.0,0.0,0.0,0.0,0.0,0.0,0.0,0.1333,0.0,0.0,0.0,0.0,0.0,0.0,0.0,0.0,0.0,0.0,0.0,0.0,0.0,0.0,0.0,0.0,0.0,0.0,0.0,0.0,0.0,0.0,0.0,0.0,0.0,0.0,0.0,0.0,0.0,0.0,0.0,0.0,0.0,0.0,0.0,0.0,0.0,0.0,0.0,0.0,0.0,0.0,0.0,0.0,0.0,0.0,0.0,0.0,0.0,0.0,0.0,0.0,0.0,0.0,0.0,0.0,0.1014,0.0754,0.0704,0.0892,0.1398,0.1679,0.1846,0.2296,0.2469,0.2219,0.0,0.0,0.0,0.0,0.0,0.0,0.0,0.0,0.0,0.0,0.0,0.0,0.0,0.0,0.0,0.0,0.0,0.0,0.0,0.0,0.0,0.0,0.0,0.0,0.0,0.0,0.0,0.0,0.0,0.0,0.0,0.0,0.0,0.0,0.0,0.0,0.0,0.0,0.0,0.1611,0.1656,0.0,0.0,0.0,0.0,0.0,0.0,0.0,0.0,0.1361,0.0,0.0,0.0,0.0,0.0,0.0,0.0,0.0,0.0,0.0,0.0,0.0,0.0,0.0,0.0,0.0,0.0,0.0,0.0,0.0,0.0,0.0,0.0,0.0,0.0,0.0,0.0,0.0,0.0,0.0,0.0,0.0,0.0,0.0,0.0,0.0,0.0,0.0,0.0,0.0,0.0,0.0,0.0,0.0,0.0,0.0,0.0,0.0,0.0,0.0,0.0,0.0,0.0,0.0,0.0,0.16,0.1407,0.1462,0.1842,0.2127,0.224,0.2238,0.2435,0.2425,0.0,0.0,0.0,0.0,0.0,0.0,0.0,0.0,0.0,0.0,0.0,0.0,0.0,0.0,0.0,0.0,0.0,0.0,0.0,0.0,0.0,0.0,0.0,0.0,0.0,0.0,0.0,0.0,0.0,0.0,0.0,0.0,0.0,0.0,0.0,0.0,0.0,0.0,0.0,0.0,0.2047,0.2006,0.2028,0.0,0.0,0.0,0.0,0.0,0.0,0.1599,0.1509,0.0,0.0,0.0,0.0,0.0,0.0,0.0,0.0,0.0,0.0,0.0,0.0,0.0,0.0,0.0,0.0,0.0,0.0,0.0,0.0,0.0,0.0,0.0,0.0,0.0,0.0,0.0,0.0,0.0,0.0,0.0,0.0,0.0,0.0,0.0,0.0,0.0,0.0,0.0,0.0,0.0,0.0,0.0,0.0,0.0,0.0,0.0,0.0,0.0,0.0,0.0,0.0,0.0,0.0,0.0,0.2265,0.2066,0.2202,0.2685,0.2691,0.2691,0.2689,0.2548,0.2372,0.0,0.0,0.0,0.0,0.0,0.0,0.0,0.0,0.0,0.0,0.0,0.0,0.0,0.0,0.0,0.0,0.0,0.0,0.0,0.0,0.0,0.0,0.0,0.0,0.0,0.0,0.0,0.0,0.0,0.0,0.0,0.0,0.0,0.0,0.0,0.0,0.0,0.0,0.0,0.0,0.0,0.2543,0.2408,0.2085,0.0,0.0,0.0,0.0,0.1975,0.1875,0.0,0.0,0.0,0.0,0.0,0.0,0.0,0.0,0.0,0.0,0.0,0.0,0.0,0.0,0.0,0.0,0.0,0.0,0.0,0.0,0.0,0.0,0.0,0.0,0.0,0.0,0.0,0.0,0.0,0.0,0.0,0.0,0.0,0.0,0.0,0.0,0.0,0.0,0.0,0.0,0.0,0.0,0.0,0.0,0.0,0.0,0.0,0.0,0.0,0.0,0.0,0.0,0.0,0.0,0.0,0.0,0.2625,0.243,0.2465,0.2681,0.2691,0.2691,0.2691,0.267,0.2501,0.0,0.0,0.0,0.0,0.0,0.0,0.0,0.0,0.0,0.0,0.0,0.0,0.0,0.0,0.0,0.0,0.0,0.0,0.0,0.0,0.0,0.0,0.0,0.0,0.0,0.0,0.0,0.0,0.0,0.0,0.0,0.0,0.0,0.0,0.0,0.0,0.0,0.0,0.0,0.0,0.0,0.3162,0.2415,0.2356,0.2366,0.0,0.0,0.2197,0.2328,0.243,0.0,0.0,0.0,0.0,0.0,0.0,0.0,0.0,0.0,0.0,0.0,0.0,0.0,0.0,0.0,0.0,0.0,0.0,0.0,0.0,0.0,0.0,0.0,0.0,0.0,0.0,0.0,0.0,0.0,0.0,0.0,0.0,0.0,0.0,0.0,0.0,0.0,0.0,0.0,0.0,0.0,0.0,0.0,0.0,0.0,0.0,0.0,0.0,0.0,0.0,0.0,0.0,0.0,0.0,0.0,0.2091,0.2652,0.2585,0.2611,0.2687,0.2691,0.2691,0.2691,0.254,0.2364,0.0,0.0,0.0,0.0,0.0,0.0,0.0,0.0,0.0,0.0,0.0,0.0,0.0,0.0,0.0,0.0,0.0,0.0,0.0,0.0,0.0,0.0,0.0,0.0,0.0,0.0,0.0,0.0,0.0,0.0,0.0,0.0,0.0,0.0,0.0,0.0,0.0,0.0,0.0,0.0,0.0,0.0,0.2898,0.2906,0.0,0.0,0.0,0.2733,0.2701,0.0,0.0,0.0,0.0,0.0,0.0,0.0,0.0,0.0,0.0,0.0,0.0,0.0,0.0,0.0,0.0,0.0,0.0,0.0,0.0,0.0,0.0,0.0,0.0,0.0,0.0,0.0,0.0,0.0,0.0,0.0,0.0,0.0,0.0,0.0,0.0,0.0,0.0,0.0,0.0,0.0,0.0,0.0,0.0,0.0,0.0,0.0,0.0,0.0,0.0,0.0,0.0,0.0,0.0,0.0,0.0,0.0,0.2702,0.2667,0.2691,0.2691,0.2691,0.2691,0.2687,0.2468,0.0,0.0,0.0,0.0,0.0,0.0,0.0,0.0,0.0,0.0,0.0,0.0,0.0,0.0,0.0,0.0,0.0,0.0,0.0,0.0,0.0,0.0,0.0,0.0,0.0,0.0,0.0,0.1319,0.0,0.0,0.0,0.0,0.0,0.0,0.0,0.0,0.0,0.0,0.0,0.0,0.0,0.0,0.3453,0.3251,0.3161,0.3018,0.0,0.0,0.3102,0.3013,0.2929,0.2776,0.0,0.0,0.0,0.0,0.0,0.0,0.0,0.0,0.0,0.0,0.0,0.0,0.0,0.0,0.0,0.0,0.0,0.0,0.0,0.0,0.0,0.0,0.0,0.0,0.0,0.0,0.0,0.0,0.0,0.0,0.0,0.0,0.0,0.0,0.0,0.0,0.0,0.0,0.0,0.0,0.0,0.0,0.0,0.0,0.0,0.0,0.0,0.0,0.0,0.0,0.0,0.0,0.0,0.0,0.0,0.266,0.2667,0.2691,0.2691,0.2691,0.2691,0.2689,0.2642,0.2465,0.0,0.0,0.0,0.0,0.0,0.0,0.0,0.0,0.0,0.0,0.0,0.0,0.0,0.0,0.0,0.0,0.0,0.0,0.0,0.0,0.0,0.0,0.0,0.0,0.0,0.0,0.0,0.0,0.0,0.0,0.0,0.0,0.0,0.0,0.0,0.0,0.0,0.0,0.0,0.0,0.0,0.3815,0.3042,0.2988,0.3011,0.0,0.0,0.3076,0.3184,0.3342,0.3343,0.2778,0.0,0.0,0.0,0.0,0.0,0.0,0.0,0.0,0.0,0.0,0.0,0.0,0.0,0.0,0.0,0.0,0.0,0.0,0.0,0.0,0.0,0.0,0.0,0.0,0.0,0.0,0.0,0.0,0.0,0.0,0.0,0.0,0.0,0.0,0.0,0.0,0.0,0.0,0.0,0.0,0.0,0.0,0.0,0.0,0.0,0.0,0.0,0.0,0.0,0.0,0.0,0.0,0.0,0.2179,0.27,0.2667,0.2691,0.2691,0.2691,0.2691,0.2691,0.2603,0.2503,0.0,0.0,0.0,0.0,0.0,0.0,0.0,0.0,0.0,0.0,0.0,0.0,0.0,0.0,0.0,0.0,0.0,0.0,0.0,0.0,0.0,0.0,0.0,0.0,0.0,0.0,0.0,0.0,0.1294,0.1338,0.1469,0.0,0.0,0.0,0.0,0.0,0.0,0.0,0.0,0.0,0.0,0.347,0.31,0.3203,0.0,0.0,0.3263,0.3436,0.334,0.3342,0.3256,0.2957,0.2822,0.0,0.0,0.0,0.0,0.0,0.0,0.0,0.0,0.0,0.0,0.0,0.0,0.0,0.0,0.0,0.0,0.0,0.0,0.0,0.0,0.0,0.0,0.0,0.0,0.0,0.0,0.0,0.0,0.0,0.0,0.0,0.0,0.0,0.0,0.0,0.0,0.0,0.0,0.0,0.0,0.0,0.0,0.0,0.0,0.0,0.0,0.0,0.0,0.0,0.0,0.0,0.0,0.2138,0.27,0.2667,0.2691,0.2691,0.2691,0.2691,0.2689,0.2601,0.2522,0.0,0.0,0.0,0.0,0.0,0.0,0.0,0.0,0.0,0.0,0.0,0.0,0.0,0.0,0.0,0.0,0.0,0.0,0.0,0.0,0.0,0.0,0.0,0.0,0.0,0.0,0.0,0.0,0.1139,0.1205,0.1469,0.0,0.0,0.0,0.0,0.0,0.0,0.0,0.0,0.0,0.0,0.3162,0.3006,0.3192,0.3299,0.3026,0.3357,0.3633,0.3469,0.3382,0.3275,0.3077,0.0,0.0,0.0,0.0,0.0,0.0,0.0,0.0,0.0,0.0,0.0,0.0,0.0,0.0,0.0,0.0,0.0,0.0,0.0,0.0,0.0,0.0,0.0,0.0,0.0,0.0,0.0,0.1182,0.0,0.0,0.1102,0.0,0.0,0.0,0.0,0.0,0.0,0.0,0.0,0.0,0.0,0.0,0.0,0.0,0.0,0.0,0.0,0.0,0.0,0.0,0.0,0.0,0.0,0.2181,0.2655,0.2667,0.2691,0.2691,0.2691,0.2691,0.2689,0.2603,0.2519,0.2282,0.0,0.0,0.0,0.0,0.0,0.0,0.0,0.0,0.0,0.0,0.0,0.0,0.0,0.0,0.0,0.0,0.0,0.0,0.0,0.0,0.0,0.0,0.0,0.0,0.0,0.0,0.1274,0.1161,0.1163,0.0,0.0,0.0,0.0,0.0,0.0,0.0,0.0,0.0,0.0,0.301,0.3009,0.2728,0.2802,0.297,0.3077,0.3246,0.3469,0.353,0.3574,0.3496,0.0,0.0,0.0,0.0,0.0,0.0,0.0,0.0,0.0,0.0,0.0,0.0,0.0,0.0,0.0,0.0,0.0,0.0,0.0,0.0,0.0,0.0,0.0,0.0,0.0,0.0,0.0,0.1527,0.1478,0.0,0.0,0.0,0.0,0.0,0.0,0.0,0.0,0.0,0.0,0.0,0.2197,0.2287,0.0,0.0,0.0,0.0,0.0,0.0,0.0,0.0,0.0,0.0,0.0,0.0,0.2233,0.2667,0.2696,0.2691,0.2691,0.2691,0.2691,0.2691,0.2662,0.2557,0.239,0.0,0.0,0.0,0.0,0.0,0.0,0.0,0.0,0.0,0.0,0.0,0.0,0.0,0.0,0.0,0.0,0.0,0.0,0.0,0.0,0.0,0.0,0.0,0.0,0.0,0.1274,0.0,0.0,0.0,0.0,0.0,0.0,0.0,0.0,0.0,0.0,0.0,0.2867,0.2754,0.2801,0.2821,0.2742,0.2747,0.2802,0.0,0.0,0.0,0.0,0.0,0.0,0.0,0.0,0.0,0.0,0.0,0.0,0.0,0.0,0.3123,0.2599,0.2287,0.2199,0.2505,0.0,0.0,0.0,0.0,0.0,0.0,0.0,0.0,0.0,0.0,0.0,0.0,0.0,0.0,0.1852,0.1799,0.1766,0.0,0.0,0.0,0.0,0.0,0.0,0.0,0.0,0.2362,0.2487,0.2569,0.2576,0.2558,0.0,0.2354,0.216,0.0,0.0,0.0,0.0,0.0,0.0,0.0,0.0,0.2288,0.2675,0.2675,0.2691,0.2691,0.2691,0.2691,0.2691,0.266,0.2624,0.2492,0.225,0.2039,0.0,0.0,0.0,0.0,0.0,0.0,0.0,0.0,0.0,0.0,0.0,0.0,0.0,0.0,0.0,0.0,0.0,0.0,0.0,0.0,0.0,0.0,0.0,0.1335,0.0,0.0,0.0,0.0,0.0,0.0,0.0,0.0,0.0,0.2549,0.2698,0.2708,0.2698,0.2707,0.2691,0.2691,0.0,0.0,0.0,0.0,0.0,0.0,0.0,0.314,0.2863,0.3113,0.3176,0.2735,0.256,0.2537,0.256,0.0,0.0,0.2876,0.2734,0.2585,0.2411,0.2561,0.2768,0.2971,0.2995,0.2993,0.0,0.0,0.0,0.0,0.0,0.0,0.0,0.0,0.2228,0.2224,0.0,0.2076,0.0,0.0,0.0,0.0,0.1915,0.217,0.0,0.0,0.274,0.2872,0.3005,0.3005,0.2907,0.2834,0.2819,0.2683,0.2421,0.2089,0.0,0.0,0.0,0.0,0.0,0.0,0.239,0.2675,0.2707,0.2691,0.2691,0.2691,0.2691,0.2689,0.2661,0.2624,0.2679,0.2435,0.2303,0.2226,0.188,0.0,0.0,0.0,0.0,0.0,0.0,0.0,0.0,0.0,0.0,0.0,0.0,0.0,0.0,0.0,0.0,0.0,0.0,0.0,0.0,0.1638,0.0,0.0,0.0,0.0,0.0,0.0,0.0,0.0,0.0,0.0,0.2407,0.2501,0.2645,0.2679,0.0,0.0,0.0,0.0,0.2645,0.2138,0.2637,0.261,0.1521,0.2409,0.2941,0.2119,0.0,0.0,0.2099,0.1796,0.1668,0.1398,0.1654,0.2191,0.3314,0.3503,0.3179,0.2102,0.2315,0.2835,0.3061,0.3036,0.3089,0.2793,0.0,0.0,0.0,0.0,0.2564,0.2611,0.2778,0.266,0.2597,0.2532,0.249,0.0,0.0,0.0,0.0,0.0,0.0,0.2638,0.2754,0.2866,0.293,0.3015,0.3015,0.3003,0.2978,0.2917,0.2877,0.2855,0.2753,0.2407,0.1909,0.0,0.0,0.0,0.0,0.2451,0.2672,0.2686,0.2691,0.2691,0.2691,0.2691,0.2691,0.2666,0.2663,0.2676,0.2594,0.2529,0.254,0.2149,0.0,0.0,0.0,0.0,0.0,0.0,0.0,0.0,0.0,0.0,0.0,0.0,0.0,0.0,0.0,0.0,0.0,0.0,0.0,0.1404,0.1473,0.1527,0.0,0.0,0.0,0.0,0.0,0.0,0.0,0.0,0.0,0.2624,0.2617,0.266,0.0,0.0,0.2787,0.2789,0.2427,0.2282,0.2582,0.2219,0.0,0.1456,0.1458,0.1579,0.1763,0.2824,0.3503,0.314,0.1681,0.0479,0.0415,0.1194,0.1925,0.2279,0.3035,0.314,0.2091,0.1302,0.1184,0.1952,0.223,0.2174,0.3207,0.3005,0.2934,0.2936,0.2979,0.2928,0.2962,0.3058,0.3007,0.2975,0.295,0.2823,0.2761,0.2597,0.2561,0.0,0.0,0.0,0.2934,0.2989,0.3038,0.3062,0.3062,0.306,0.3044,0.3072,0.3007,0.3051,0.3015,0.3015,0.2748,0.2352,0.0,0.0,0.2123,0.2367,0.2588,0.2824,0.2736,0.2707,0.2742,0.2709,0.2691,0.2691,0.2691,0.2664,0.2665,0.2663,0.2647,0.2695,0.2313,0.2023,0.0,0.0,0.0,0.0,0.0,0.0,0.0,0.0,0.0,0.0,0.0,0.1271,0.119,0.0,0.0,0.0,0.1347,0.1458,0.1517,0.1672,0.0,0.0,0.0,0.0,0.0,0.0,0.0,0.2476,0.2623,0.279,0.2787,0.2795,0.2797,0.2795,0.2606,0.2458,0.2458,0.0,0.154,0.1788,0.1602,0.1237,0.0752,0.1191,0.1448,0.1084,0.1628,0.2174,0.2134,0.0934,-0.0,-0.0,0.0617,0.1112,0.1112,0.1676,0.1986,0.1223,0.0519,0.0286,0.0971,0.1074,0.1119,0.3544,0.3528,0.336,0.3275,0.3248,0.3248,0.3248,0.3248,0.3246,0.3295,0.336,0.3189,0.3107,0.3095,0.3084,0.0,0.3057,0.3169,0.3246,0.3248,0.3248,0.3248,0.3248,0.3248,0.3201,0.3113,0.3111,0.3064,0.3043,0.304,0.2932,0.2846,0.2764,0.2617,0.2418,0.2583,0.2726,0.301,0.2811,0.275,0.2823,0.2738,0.2691,0.2691,0.2691,0.2691,0.2691,0.2691,0.2707,0.2673,0.244,0.2221,0.1965,0.0,0.0,0.0,0.0,0.0,0.0,0.0,0.0,0.0,0.0,0.0,0.0,0.0,0.0,0.0,0.1656,0.0,0.1893,0.2096,0.0,0.0,0.0,0.2266,0.2442,0.2536,0.2707,0.2817,0.0,0.0,0.3028,0.297,0.2913,0.2913,0.2352,0.1918,0.1855,0.1178,0.062,0.0374,0.0808,0.0816,-0.0129,0.0971,0.163,-0.0,-0.0,-0.0,-0.0,-0.0,-0.0,-0.0,-0.0,-0.0,-0.0,-0.0,-0.0,-0.0,-0.0,-0.0,-0.0,-0.0,-0.0,0.391,0.3906,0.3861,0.3685,0.3436,0.3436,0.3436,0.3436,0.3434,0.3448,0.3458,0.3418,0.326,0.3197,0.3246,0.3334,0.3341,0.3383,0.3436,0.3434,0.3436,0.3436,0.3436,0.3434,0.3387,0.3303,0.3299,0.325,0.3164,0.316,0.3115,0.303,0.3005,0.2796,0.2423,0.2708,0.294,0.2986,0.2963,0.287,0.2826,0.2738,0.2691,0.2691,0.2691,0.2691,0.2691,0.2691,0.2681,0.2711,0.2483,0.2323,0.2189,0.1866,0.0,0.0,0.0,0.0,0.0,0.0,0.0,0.0,0.0,0.1637,0.1309,0.0,0.1735,0.0,0.1784,0.1913,0.2117,0.2174,0.0,0.0,0.2574,0.2688,0.2805,0.2905,0.2936,0.2917,0.3001,0.3056,0.3058,0.2661,0.2368,0.2368,0.2133,0.1785,0.1212,0.0585,0.0263,0.0263,0.0066,-0.0397,-0.0732,-0.0534,-0.0067,-0.0,-0.0,-0.0,-0.0,-0.0,-0.0,-0.0,-0.0,-0.0,-0.0,-0.0,-0.0,-0.0,-0.0,-0.0,-0.0,-0.0,-0.0,0.4034,0.4034,0.4034,0.392,0.3736,0.3695,0.3654,0.3618,0.3618,0.3616,0.3609,0.352,0.3432,0.3356,0.344,0.3481,0.3487,0.3577,0.3593,0.3556,0.3556,0.3536,0.3499,0.3499,0.3473,0.3426,0.3424,0.3377,0.3291,0.3289,0.324,0.3152,0.315,0.3037,0.2756,0.2909,0.3034,0.3076,0.3078,0.2952,0.2832,0.2777,0.2734,0.2693,0.2691,0.2691,0.2691,0.2691,0.2672,0.2575,0.2441,0.2376,0.2328,0.1977,0.1785,0.0,0.0,0.0,0.0,0.0,0.0,0.0,0.0,0.0,0.0,0.0,0.1939,0.1929,0.208,0.224,0.238,0.2515,0.2626,0.2774,0.2834,0.2922,0.2999,0.3078,0.3032,0.3071,0.2859,0.2689,0.269,0.2127,0.1552,0.1296,0.1149,0.0999,0.0527,-0.0067,-0.0403,-0.0336,-0.0606,-0.0809,-0.0674,-0.0607,-0.0472,-0.0,-0.0,-0.0,-0.0,-0.0,-0.0,-0.0,-0.0,-0.0,-0.0,-0.0,-0.0,-0.0,-0.0,-0.0,-0.0,-0.0,-0.0,0.39,0.4069,0.4071,0.4065,0.4046,0.3967,0.3883,0.3797,0.3799,0.3797,0.3795,0.3714,0.3632,0.3558,0.3628,0.3654,0.3648,0.3726,0.372,0.3644,0.3644,0.3603,0.3534,0.3534,0.3528,0.3516,0.3516,0.3471,0.3453,0.3451,0.3334,0.3248,0.3244,0.3238,0.322,0.3068,0.3093,0.317,0.3161,0.3015,0.2864,0.2722,0.2671,0.2599,0.2527,0.2521,0.2691,0.2579,0.2432,0.225,0.2225,0.2198,0.2123,0.1923,0.1789,0.0,0.1745,0.0,0.0,0.0,0.0,0.0,0.0,0.0,0.0,0.2123,0.2144,0.2233,0.2513,0.2695,0.2717,0.2862,0.302,0.303,0.3034,0.3007,0.3029,0.2976,0.2941,0.2948,0.2424,0.2023,0.2025,0.1421,0.0686,0.021,-0.007,-0.0139,-0.0205,-0.0681,-0.1024,-0.109,-0.1087,-0.0885,-0.0342,-0.0068,-0.0,-0.0,-0.0,-0.0,-0.0,-0.0,-0.0,-0.0,-0.0,-0.0,-0.0,-0.0,-0.0,-0.0,-0.0,-0.0,-0.0,-0.0,-0.0,0.3541,0.4251,0.4249,0.421,0.4144,0.4128,0.4069,0.3985,0.3983,0.3983,0.3983,0.3967,0.391,0.3828,0.384,0.3808,0.3738,0.3756,0.3752,0.3738,0.3736,0.373,0.3714,0.3714,0.3675,0.3605,0.3601,0.3558,0.3475,0.3473,0.3428,0.334,0.334,0.3301,0.3228,0.0,0.0,0.0,0.3128,0.3075,0.3036,0.2414,0.2053,0.2038,0.1532,0.0,0.2635,0.2071,0.1561,0.1217,0.1392,0.0,0.0,0.0,0.0,0.0,0.0,0.0,0.0,0.0,0.0,0.0,0.0794,0.1087,0.1938,0.2355,0.2601,0.2693,0.2809,0.2945,0.2963,0.2993,0.3047,0.3054,0.3064,0.2904,0.2454,0.2332,0.2136,0.1545,0.1371,0.1251,0.1182,0.0566,0.0072,-0.0144,-0.0579,-0.0938,-0.0935,-0.1076,-0.122,-0.1149,-0.1128,-0.0912,-0.0501,-0.0211,-0.0,-0.0,-0.0,-0.0,-0.0,-0.0,-0.0,-0.0,-0.0,-0.0,-0.0,-0.0,-0.0,-0.0,-0.0,-0.0,-0.0,-0.0,-0.0,0.3492,0.4297,0.3762,0.3829,0.0,0.4234,0.421,0.4161,0.4073,0.4034,0.4034,0.4034,0.401,0.3967,0.3967,0.3916,0.3832,0.383,0.3805,0.3843,0.3841,0.3841,0.3841,0.3841,0.374,0.3695,0.3693,0.365,0.3567,0.356,0.3518,0.343,0.3387,0.334,0.3156,0.2705,0.2551,0.2686,0.2649,0.2479,0.1994,0.1625,0.1395,0.1411,0.1098,0.0,0.0,0.0,0.0,0.0,0.0,0.0,0.0,0.0,0.0,0.0652,0.0592,0.0537,0.0537,0.0536,0.06,0.074,0.0478,0.0784,0.1817,0.2166,0.2486,0.2885,0.2968,0.2894,0.2519,0.255,0.2458,0.2166,0.2104,0.1929,0.1635,0.1646,0.1447,0.1117,0.0708,0.0429,0.0429,-0.0217,-0.0586,-0.0667,-0.0965,-0.1194,-0.1205,-0.1185,-0.1166,-0.1166,-0.1155,-0.1077,-0.0799,-0.0,-0.0,-0.0,-0.0,-0.0,-0.0,-0.0,-0.0,-0.0,-0.0,-0.0,-0.0,-0.0,-0.0,-0.0,-0.0,-0.0,-0.0,-0.0,-0.0,0.3403,0.421,0.3315,0.3403,0.4297,0.4121,0.4121,0.4287,0.4144,0.0,0.0,0.4083,0.3988,0.389,0.3892,0.3843,0.3679,0.3678,0.3641,0.373,0.3714,0.3706,0.3785,0.3849,0.3841,0.3841,0.3841,0.3724,0.3652,0.365,0.3531,0.3302,0.323,0.3111,0.2799,0.1983,0.1618,0.1812,0.1946,0.1659,0.0974,0.0839,0.0755,0.0777,0.065,0.058,0.0565,0.0898,0.0939,0.0592,0.0269,0.0215,0.0484,0.0484,0.0544,0.0558,0.0559,0.0559,0.0559,0.0559,0.056,0.0564,0.0234,0.0472,0.1553,0.1628,0.1928,0.2625,0.275,0.2466,0.1883,0.192,0.1749,0.115,0.1084,0.1027,0.0843,0.0776,0.0711,0.0579,0.0073,-0.0293,-0.0294,-0.0812,-0.1191,-0.1213,-0.1219,-0.1228,-0.1244,-0.1216,-0.1262,-0.1262,-0.1182,-0.1176,-0.1107,-0.0662,-0.022,-0.0,-0.0,-0.0,-0.0,-0.0,-0.0,-0.0,-0.0,-0.0,-0.0,-0.0,-0.0,-0.0,-0.0,-0.0,-0.0,-0.0,-0.0,0.3405,0.4208,0.3315,0.3492,0.4208,0.3403,0.3583,0.4295,0.4273,0.4261,0.4261,0.4261,0.4045,0.3543,0.3543,0.3333,0.2763,0.2763,0.3007,0.3325,0.3343,0.3473,0.3877,0.3799,0.3841,0.3841,0.3841,0.3756,0.3746,0.3742,0.339,0.2639,0.2549,0.2123,0.1335,0.0767,0.0413,0.0336,0.0941,0.1208,0.1069,0.0457,0.0128,0.0127,-0.0363,-0.0646,-0.0643,-0.0569,-0.0559,-0.0668,-0.0724,-0.0724,-0.0668,-0.0613,-0.067,-0.0672,-0.0617,-0.0617,-0.0673,-0.0617,-0.0681,-0.0643,-0.0741,-0.0318,0.0886,0.0764,0.084,0.1324,0.1465,0.1336,0.1203,0.1276,0.1157,0.0972,0.0975,0.0774,0.0144,0.0072,-0.0145,-0.0731,-0.0966,-0.0979,-0.0981,-0.115,-0.1318,-0.1249,-0.1246,-0.1251,-0.1254,-0.125,-0.1245,-0.1241,-0.1222,-0.1219,-0.1229,-0.1145,-0.0755,-0.0075,-0.0,-0.0,-0.0,-0.0,-0.0,-0.0,-0.0,-0.0,-0.0,-0.0,-0.0,-0.0,-0.0,-0.0,-0.0,-0.0,-0.0,0.2732,0.3366,0.198,0.1881,0.2684,0.2238,0.2327,0.2685,0.2684,0.331,0.4297,0.4297,0.4186,0.3974,0.3974,0.3754,0.3425,0.3425,0.3572,0.3695,0.3658,0.3699,0.3899,0.3854,0.3572,0.3139,0.3059,0.2901,0.2507,0.2429,0.226,0.1849,0.175,0.1336,0.0646,0.0286,-0.0141,-0.055,0.0136,0.0336,-0.0067,-0.0398,-0.0589,-0.0516,-0.0816,-0.0922,-0.0907,-0.0879,-0.0864,-0.0865,-0.0906,-0.0905,-0.0863,-0.0865,-0.0865,-0.0922,-0.0938,-0.0939,-0.0923,-0.0937,-0.096,-0.0928,-0.0954,-0.078,-0.0263,0.0066,0.0464,0.1008,0.109,0.0894,0.055,0.0488,0.0283,-0.0143,-0.0215,-0.0362,-0.0592,-0.067,-0.0823,-0.1213,-0.1228,-0.1236,-0.1236,-0.1249,-0.1335,-0.1336,-0.1336,-0.1336,-0.1336,-0.1336,-0.1336,-0.1335,-0.1245,-0.1243,-0.1333,-0.1247,-0.1083,-0.0773,-0.0309,-0.0,-0.0,-0.0,-0.0,-0.0,-0.0,-0.0,-0.0,-0.0,-0.0,-0.0,-0.0,-0.0,-0.0,-0.0,-0.0,0.2697,0.316,0.1189,0.0634,0.1082,0.1345,0.1431,0.1431,0.1342,0.2147,0.3491,0.3669,0.358,0.3403,0.3492,0.3374,0.3154,0.3236,0.3206,0.3156,0.3223,0.327,0.3215,0.3267,0.2896,0.2294,0.2202,0.1881,0.1332,0.1332,0.1175,0.1016,0.0692,0.0376,-0.0074,-0.0221,-0.0581,-0.106,-0.055,-0.0541,-0.1076,-0.1076,-0.1065,-0.1045,-0.0971,-0.0959,-0.0936,-0.0909,-0.0953,-0.0893,-0.093,-0.0928,-0.0892,-0.0893,-0.0893,-0.0955,-0.0975,-0.0978,-0.0958,-0.0981,-0.1008,-0.1031,-0.1039,-0.1052,-0.1072,-0.0605,-0.0,0.0472,0.0482,0.028,-0.014,-0.0287,-0.0584,-0.1102,-0.1176,-0.1115,-0.1216,-0.1222,-0.123,-0.1332,-0.1336,-0.1335,-0.1336,-0.1336,-0.1336,-0.1336,-0.1336,-0.1336,-0.1336,-0.1336,-0.1336,-0.1336,-0.1336,-0.1335,-0.1336,-0.1335,-0.1256,-0.1258,-0.0707,-0.0,-0.0,-0.0,-0.0,-0.0,-0.0,-0.0,-0.0,-0.0,-0.0,-0.0,-0.0,-0.0,-0.0,-0.0,-0.0,0.4368,0.4178,0.2081,0.0843,0.0276,0.0993,0.1343,0.1342,0.1163,0.1163,0.1342,0.161,0.1343,0.0806,0.0986,0.0716,-0.0,0.0179,0.0446,0.0532,0.0785,0.1036,0.1284,0.1406,0.1378,0.129,0.1346,0.1332,0.1175,0.1254,0.0861,0.0078,-0.0704,-0.1005,-0.106,-0.1056,-0.1118,-0.1163,-0.1061,-0.1034,-0.1077,-0.1076,-0.1074,-0.1072,-0.1047,-0.1033,-0.1093,-0.1063,-0.0984,-0.0984,-0.098,-0.0981,-0.0984,-0.0984,-0.0984,-0.0984,-0.0988,-0.0986,-0.0986,-0.1012,-0.1031,-0.1035,-0.1057,-0.1072,-0.1076,-0.1008,-0.0941,-0.0811,-0.0828,-0.0841,-0.0983,-0.1007,-0.1034,-0.113,-0.1208,-0.1219,-0.1245,-0.1331,-0.1254,-0.1335,-0.1336,-0.1336,-0.1336,-0.1336,-0.1336,-0.1336,-0.1336,-0.1336,-0.1336,-0.1336,-0.1336,-0.1336,-0.1336,-0.1336,-0.1336,-0.1336,-0.1336,-0.1258,-0.1022,-0.0707,-0.055,-0.055,-0.0471,-0.0,-0.0,-0.0,-0.0,-0.0,-0.0,-0.0,-0.0,-0.0,-0.0,-0.0,-0.0,0.2905,0.2708,0.0574,-0.0471,-0.0832,-0.0549,-0.0453,-0.0538,-0.0717,-0.0806,-0.0806,-0.0717,-0.0269,0.0537,0.0716,0.0448,0.0179,0.0358,0.0448,0.0447,0.0621,0.0702,0.0691,0.084,0.0658,0.0324,0.0317,0.0157,-0.0157,-0.0235,-0.0392,-0.0785,-0.1178,-0.1251,-0.124,-0.1239,-0.1224,-0.1269,-0.1163,-0.1133,-0.1104,-0.1084,-0.1076,-0.1074,-0.1065,-0.1059,-0.1122,-0.1095,-0.1015,-0.1014,-0.106,-0.1059,-0.1014,-0.1016,-0.1016,-0.1015,-0.1015,-0.1023,-0.1039,-0.1052,-0.1059,-0.1059,-0.1069,-0.1076,-0.1076,-0.1076,-0.1082,-0.1102,-0.1121,-0.1142,-0.1171,-0.1202,-0.1226,-0.1236,-0.1239,-0.1243,-0.1333,-0.1336,-0.1336,-0.1336,-0.1336,-0.1336,-0.1336,-0.1336,-0.1336,-0.1336,-0.1336,-0.1336,-0.1336,-0.1336,-0.1336,-0.1336,-0.1336,-0.1336,-0.1336,-0.1336,-0.1336,-0.1258,-0.1179,-0.1022,-0.1022,-0.1022,-0.0943,-0.0786,-0.055,-0.0236,-0.0,-0.0,-0.0,-0.0,-0.0,-0.0,-0.0,-0.0,-0.0,0.2369,0.1772,-0.0194,-0.1334,-0.1694,-0.1777,-0.1845,-0.1993,-0.2173,-0.2256,-0.2244,-0.2334,-0.1614,-0.0448,-0.0179,-0.0179,-0.0268,-0.0179,-0.0179,-0.0269,-0.0179,-0.0178,-0.0262,-0.0086,-0.0335,-0.0737,-0.0721,-0.0869,-0.1259,-0.1336,-0.1336,-0.1336,-0.1336,-0.1336,-0.1336,-0.1336,-0.1325,-0.13,-0.1269,-0.1168,-0.1144,-0.1108,-0.1084,-0.1076,-0.1076,-0.1076,-0.1076,-0.1123,-0.1045,-0.1044,-0.1088,-0.1086,-0.1043,-0.1045,-0.1045,-0.1045,-0.1045,-0.1054,-0.1074,-0.1076,-0.1076,-0.1076,-0.1076,-0.1079,-0.1087,-0.1091,-0.1109,-0.1143,-0.1161,-0.1187,-0.1206,-0.1239,-0.1335,-0.1336,-0.1336,-0.1336,-0.1336,-0.1336,-0.1336,-0.1336,-0.1336,-0.1336,-0.1336,-0.1336,-0.1336,-0.1336,-0.1336,-0.1336,-0.1336,-0.1336,-0.1336,-0.1336,-0.1336,-0.1336,-0.1336,-0.1336,-0.1336,-0.1336,-0.1258,-0.1258,-0.1336,-0.1336,-0.1258,-0.1022,-0.0864,-0.0786,-0.055,-0.0,-0.0,-0.0,-0.0,-0.0,-0.0,-0.0,-0.0,0.4124,0.2808,0.0788,-0.088,-0.1956,-0.192,-0.1978,-0.2218,-0.2495,-0.2561,-0.2521,-0.2694,-0.2784,-0.2603,-0.2064,-0.2244,-0.2603,-0.2153,-0.2154,-0.2424,-0.2154,-0.2153,-0.2327,-0.2104,-0.1886,-0.1845,-0.1638,-0.1524,-0.1338,-0.1336,-0.1336,-0.1336,-0.1336,-0.1336,-0.1336,-0.1336,-0.1335,-0.1327,-0.1222,-0.1206,-0.1199,-0.1149,-0.1106,-0.1082,-0.1076,-0.1076,-0.1075,-0.1074,-0.1073,-0.1074,-0.1069,-0.107,-0.1073,-0.1072,-0.1072,-0.1072,-0.1072,-0.1073,-0.1075,-0.1076,-0.1076,-0.1076,-0.1076,-0.1087,-0.1112,-0.1128,-0.1154,-0.1201,-0.1225,-0.1236,-0.1221,-0.1241,-0.1335,-0.1336,-0.1336,-0.1336,-0.1336,-0.1336,-0.1336,-0.1336,-0.1336,-0.1336,-0.1336,-0.1336,-0.1336,-0.1336,-0.1336,-0.1336,-0.1336,-0.1336,-0.1336,-0.1336,-0.1336,-0.1336,-0.1336,-0.1336,-0.1336,-0.1336,-0.1336,-0.1336,-0.1336,-0.1336,-0.1336,-0.1336,-0.1179,-0.1179,-0.11,-0.0,-0.0,-0.0,-0.0,-0.0,-0.0,-0.0,-0.0,0.1612,-0.0202,-0.0902,-0.1687,-0.2256,-0.2337,-0.2497,-0.2545,-0.2789,-0.2856,-0.2833,-0.2891,-0.2875,-0.2875,-0.2694,-0.2784,-0.2875,-0.2694,-0.2694,-0.2875,-0.2694,-0.2694,-0.2688,-0.2635,-0.2426,-0.2311,-0.2153,-0.1849,-0.1497,-0.1493,-0.1415,-0.1336,-0.1336,-0.1336,-0.1336,-0.1336,-0.1336,-0.1254,-0.1228,-0.1212,-0.1209,-0.1172,-0.1136,-0.1106,-0.1086,-0.1076,-0.1076,-0.1076,-0.1076,-0.1076,-0.1076,-0.1076,-0.1076,-0.1076,-0.1076,-0.1076,-0.1076,-0.1076,-0.1076,-0.1076,-0.1076,-0.1076,-0.1076,-0.1089,-0.112,-0.1154,-0.1187,-0.1211,-0.124,-0.1249,-0.1247,-0.133,-0.1336,-0.1336,-0.1336,-0.1336,-0.1336,-0.1336,-0.1336,-0.1336,-0.1336,-0.1336,-0.1336,-0.1336,-0.1336,-0.1336,-0.1336,-0.1337,-0.1336,-0.1336,-0.134,-0.1337,-0.1336,-0.1336,-0.1336,-0.1336,-0.1336,-0.1336,-0.1336,-0.1336,-0.1336,-0.1336,-0.1336,-0.1336,-0.1336,-0.1336,-0.1258,-0.1179,-0.0786,-0.0786,-0.055,-0.0,-0.0,-0.0,-0.0,0.0303,-0.1211,-0.1819,-0.2206,-0.2574,-0.2673,-0.2742,-0.2788,-0.2939,-0.2995,-0.3049,-0.2917,-0.2891,-0.2876,-0.2875,-0.2875,-0.2875,-0.2875,-0.2875,-0.2875,-0.2875,-0.2875,-0.2868,-0.2832,-0.2714,-0.2593,-0.2409,-0.2096,-0.167,-0.1657,-0.1494,-0.1336,-0.1336,-0.1336,-0.1336,-0.1336,-0.1336,-0.1331,-0.1236,-0.1226,-0.1223,-0.1197,-0.1172,-0.1149,-0.1121,-0.1094,-0.1077,-0.1076,-0.1076,-0.1076,-0.1076,-0.1076,-0.1076,-0.1076,-0.1076,-0.1076,-0.1076,-0.1076,-0.1076,-0.1076,-0.108,-0.1089,-0.1091,-0.1106,-0.1147,-0.1182,-0.1206,-0.1226,-0.1243,-0.1336,-0.1336,-0.1336,-0.1336,-0.1336,-0.1336,-0.1336,-0.1336,-0.1336,-0.1336,-0.1336,-0.1336,-0.1336,-0.1336,-0.1336,-0.1336,-0.1336,-0.1343,-0.1348,-0.1338,-0.1276,-0.1281,-0.1275,-0.1285,-0.1284,-0.1281,-0.1278,-0.1346,-0.1343,-0.1336,-0.1336,-0.1336,-0.1336,-0.1336,-0.1336,-0.1336,-0.1336,-0.1336,-0.1336,-0.1258,-0.1258,-0.1022,-0.0,-0.0,-0.0,-0.0,0.0605,-0.0,-0.1313,-0.2321,-0.2718,-0.2819,-0.2893,-0.3046,-0.3131,-0.3067,-0.2988,-0.2959,-0.3016,-0.2887,-0.2877,-0.2875,-0.2875,-0.2875,-0.2875,-0.2875,-0.2875,-0.2875,-0.2873,-0.2868,-0.2832,-0.2781,-0.2499,-0.2118,-0.1703,-0.1673,-0.1498,-0.1337,-0.1336,-0.1336,-0.1336,-0.1336,-0.1336,-0.1335,-0.1332,-0.1333,-0.1332,-0.1304,-0.1209,-0.1203,-0.1177,-0.1136,-0.1081,-0.1078,-0.1078,-0.1076,-0.1076,-0.1076,-0.1076,-0.1076,-0.1076,-0.1076,-0.1076,-0.1076,-0.1076,-0.1078,-0.1093,-0.1111,-0.112,-0.1144,-0.119,-0.1207,-0.1222,-0.1247,-0.1333,-0.1336,-0.1336,-0.1336,-0.1336,-0.1336,-0.1336,-0.1336,-0.1336,-0.1336,-0.1336,-0.1336,-0.1336,-0.1336,-0.1336,-0.1341,-0.1343,-0.1347,-0.1285,-0.1296,-0.128,-0.1307,-0.1326,-0.1316,-0.1315,-0.1318,-0.131,-0.1301,-0.1285,-0.135,-0.1341,-0.1336,-0.1336,-0.1336,-0.1336,-0.1336,-0.1336,-0.1336,-0.1336,-0.1336,-0.1336,-0.1258,-0.11,-0.1022,-0.0786,-0.0471,-0.0236,-0.0101,-0.1008,-0.2119,-0.2726,-0.3029,-0.3029,-0.3116,-0.3198,-0.3159,-0.3117,-0.3071,-0.2995,-0.2948,-0.2925,-0.2894,-0.2875,-0.2875,-0.2875,-0.2875,-0.2875,-0.2875,-0.2875,-0.2875,-0.2875,-0.2843,-0.2788,-0.2488,-0.2178,-0.196,-0.1696,-0.1519,-0.1341,-0.1336,-0.1336,-0.1336,-0.1336,-0.1336,-0.1336,-0.1415,-0.1493,-0.1492,-0.1482,-0.1465,-0.1441,-0.1277,-0.117,-0.1112,-0.1107,-0.1097,-0.1078,-0.1076,-0.1076,-0.1076,-0.1076,-0.1076,-0.1076,-0.1076,-0.1076,-0.1078,-0.1095,-0.111,-0.1123,-0.114,-0.1169,-0.1204,-0.1213,-0.1226,-0.1252,-0.1336,-0.1336,-0.1336,-0.1336,-0.1336,-0.1336,-0.1336,-0.1336,-0.1336,-0.1336,-0.1336,-0.1336,-0.1336,-0.1336,-0.1341,-0.1351,-0.1288,-0.1291,-0.1314,-0.1326,-0.1325,-0.1335,-0.1346,-0.1337,-0.1345,-0.135,-0.1339,-0.1332,-0.1322,-0.1302,-0.1286,-0.135,-0.1346,-0.1343,-0.1342,-0.1336,-0.1336,-0.1336,-0.1336,-0.1336,-0.1336,-0.1336,-0.1258,-0.1179,-0.11,-0.0864,-0.0629,-0.0907,-0.1815,-0.2522,-0.2928,-0.323,-0.323,-0.323,-0.3226,-0.3191,-0.3161,-0.3121,-0.3035,-0.2977,-0.295,-0.2899,-0.2876,-0.2875,-0.2875,-0.2875,-0.2875,-0.2875,-0.2875,-0.2875,-0.2875,-0.2857,-0.2819,-0.253,-0.2315,-0.2001,-0.1723,-0.1455,-0.1356,-0.1342,-0.1336,-0.1336,-0.1336,-0.1415,-0.1493,-0.1651,-0.173,-0.173,-0.1651,-0.156,-0.1539,-0.1306,-0.1204,-0.1159,-0.1155,-0.1136,-0.1102,-0.1093,-0.1093,-0.1092,-0.1083,-0.1076,-0.1076,-0.1076,-0.108,-0.1092,-0.111,-0.1134,-0.1152,-0.1172,-0.1196,-0.1221,-0.1228,-0.1239,-0.1253,-0.1336,-0.1336,-0.1336,-0.1336,-0.1336,-0.1336,-0.1336,-0.1336,-0.1336,-0.1336,-0.1336,-0.1338,-0.1347,-0.1351,-0.1279,-0.1299,-0.1318,-0.1324,-0.1345,-0.1356,-0.1357,-0.1282,-0.1369,-0.1373,-0.138,-0.1378,-0.1367,-0.1361,-0.1358,-0.1338,-0.1316,-0.1299,-0.1287,-0.1283,-0.128,-0.1342,-0.1336,-0.1336,-0.1336,-0.1336,-0.1336,-0.1336,-0.1336,-0.1258,-0.1179,-0.1258,-0.1022,-0.1714,-0.2017,-0.2623,-0.3029,-0.323,-0.323,-0.323,-0.323,-0.3218,-0.3185,-0.3132,-0.3059,-0.3006,-0.2954,-0.2899,-0.2875,-0.2875,-0.2875,-0.2875,-0.2875,-0.2875,-0.2875,-0.2875,-0.2875,-0.2869,-0.2769,-0.2552,-0.2263,-0.1981,-0.175,-0.1548,-0.1378,-0.1351,-0.1336,-0.1336,-0.1493,-0.173,-0.1887,-0.1887,-0.1887,-0.1887,-0.173,-0.1571,-0.1568,-0.1409,-0.1237,-0.1208,-0.1201,-0.1179,-0.1132,-0.1123,-0.1123,-0.1119,-0.1096,-0.1087,-0.1089,-0.1082,-0.1099,-0.1117,-0.1133,-0.1153,-0.1196,-0.121,-0.1226,-0.1247,-0.133,-0.1331,-0.1335,-0.1336,-0.1336,-0.1336,-0.1336,-0.1336,-0.1336,-0.1336,-0.1336,-0.1336,-0.1336,-0.1338,-0.1346,-0.1285,-0.1303,-0.1304,-0.1331,-0.1346,-0.1354,-0.1374,-0.138,-0.1378,-0.1306,-0.1411,-0.1414,-0.141,-0.1406,-0.1395,-0.1393,-0.139,-0.1382,-0.1358,-0.1338,-0.131,-0.13,-0.1293,-0.1276,-0.1336,-0.1336,-0.1336,-0.1336,-0.1336,-0.1336,-0.1336,-0.1336,-0.1336,-0.1336,-0.1336,-0.1917,-0.2118,-0.2826,-0.313,-0.323,-0.323,-0.323,-0.3224,-0.318,-0.3153,-0.3117,-0.3027,-0.2977,-0.2954,-0.2901,-0.2875,-0.2875,-0.2875,-0.2875,-0.2875,-0.2875,-0.2875,-0.2875,-0.2875,-0.2785,-0.2601,-0.2405,-0.2118,-0.1823,-0.1773,-0.1654,-0.1547,-0.1671,-0.1573,-0.1415,-0.165,-0.1967,-0.2281,-0.2199,-0.2042,-0.1886,-0.1808,-0.173,-0.1573,-0.1415,-0.1242,-0.1215,-0.1212,-0.1195,-0.1232,-0.1226,-0.1155,-0.1153,-0.1144,-0.1137,-0.1137,-0.114,-0.1215,-0.1155,-0.1174,-0.1195,-0.1211,-0.1232,-0.1249,-0.1334,-0.1336,-0.1336,-0.1336,-0.1336,-0.1336,-0.1336,-0.1336,-0.1336,-0.1336,-0.1336,-0.1336,-0.1336,-0.1337,-0.1344,-0.1287,-0.1297,-0.1313,-0.1333,-0.1359,-0.1378,-0.1384,-0.14,-0.1418,-0.141,-0.1323,-0.1427,-0.1429,-0.1428,-0.1427,-0.1425,-0.1424,-0.1423,-0.1421,-0.1405,-0.1385,-0.1349,-0.1316,-0.1306,-0.1293,-0.1344,-0.1336,-0.1336,-0.1336,-0.1336,-0.1336,-0.1336,-0.1336,-0.1336,-0.1336,-0.1336,-0.2522,-0.2522,-0.3029,-0.323,-0.3226,-0.3203,-0.3192,-0.318,-0.3129,-0.3101,-0.308,-0.3003,-0.2958,-0.2952,-0.2901,-0.2875,-0.2875,-0.2875,-0.2875,-0.2875,-0.2875,-0.2875,-0.2875,-0.2875,-0.2785,-0.2694,-0.2424,-0.2216,-0.1997,-0.1869,-0.1829,-0.1709,-0.1829,-0.1809,-0.1572,-0.1885,-0.22,-0.2435,-0.2354,-0.2198,-0.2041,-0.1964,-0.1808,-0.1573,-0.1415,-0.1247,-0.1233,-0.1231,-0.1298,-0.1281,-0.1194,-0.1185,-0.1184,-0.1172,-0.1166,-0.1166,-0.1166,-0.1317,-0.163,-0.1428,-0.1369,-0.1614,-0.1562,-0.1334,-0.1336,-0.1336,-0.1336,-0.1336,-0.1336,-0.1336,-0.1336,-0.1336,-0.1336,-0.1336,-0.1336,-0.1336,-0.1336,-0.1336,-0.1344,-0.1283,-0.1306,-0.1327,-0.1348,-0.1383,-0.1403,-0.1412,-0.1421,-0.143,-0.1432,-0.1436,-0.1436,-0.1436,-0.1436,-0.1433,-0.1432,-0.1431,-0.1431,-0.1431,-0.1428,-0.1413,-0.1381,-0.1337,-0.1315,-0.13,-0.1275,-0.1338,-0.134,-0.134,-0.1336,-0.1336,-0.1336,-0.1336,-0.1336,-0.1336,-0.1336,-0.323,-0.323,-0.323,-0.3226,-0.3211,-0.3165,-0.3139,-0.312,-0.3065,-0.3134,-0.3025,-0.3068,-0.2941,-0.2947,-0.2894,-0.2875,-0.2875,-0.2875,-0.2875,-0.2875,-0.2875,-0.2875,-0.2875,-0.2875,-0.2875,-0.2784,-0.2604,-0.2401,-0.2269,-0.2047,-0.1999,-0.196,-0.1994,-0.1967,-0.1963,-0.2118,-0.2353,-0.2431,-0.251,-0.2354,-0.2119,-0.1964,-0.1808,-0.1493,-0.1415,-0.1335,-0.1332,-0.1411,-0.1565,-0.1568,-0.1384,-0.1218,-0.1213,-0.1264,-0.1402,-0.1476,-0.163,-0.1938,-0.2267,-0.1752,-0.1688,-0.2183,-0.1803,-0.1492,-0.1727,-0.1883,-0.1805,-0.1571,-0.1414,-0.1492,-0.1336,-0.1336,-0.1336,-0.1336,-0.1336,-0.1336,-0.134,-0.1341,-0.1342,-0.1348,-0.132,-0.1347,-0.137,-0.1398,-0.1434,-0.1423,-0.1432,-0.1433,-0.1436,-0.1436,-0.1436,-0.1436,-0.1436,-0.1436,-0.1435,-0.1435,-0.1435,-0.1434,-0.1434,-0.1423,-0.1401,-0.1364,-0.1331,-0.1306,-0.1291,-0.1278,-0.135,-0.1347,-0.1342,-0.1342,-0.1346,-0.1341,-0.1336,-0.1336,-0.1336,-0.323,-0.323,-0.323,-0.3203,-0.3161,-0.3144,-0.3112,-0.3064,-0.3004,-0.3071,-0.2965,-0.2918,-0.2897,-0.2892,-0.2882,-0.2875,-0.2875,-0.2875,-0.2875,-0.2875,-0.2875,-0.2875,-0.2875,-0.2875,-0.2785,-0.2694,-0.2515,-0.2415,-0.2295,-0.2311,-0.2264,-0.2239,-0.2239,-0.2354,-0.2354,-0.2353,-0.2431,-0.251,-0.251,-0.2276,-0.2043,-0.1887,-0.173,-0.1493,-0.1336,-0.1335,-0.1412,-0.1883,-0.2586,-0.2737,-0.2106,-0.1476,-0.1551,-0.1931,-0.2229,-0.238,-0.2843,-0.3008,-0.264,-0.2408,-0.226,-0.2582,-0.251,-0.251,-0.3209,-0.313,-0.2898,-0.2431,-0.2198,-0.1884,-0.1415,-0.1336,-0.1336,-0.1336,-0.1336,-0.1346,-0.1286,-0.1292,-0.1299,-0.1325,-0.1355,-0.1388,-0.141,-0.1417,-0.1435,-0.1436,-0.1436,-0.1436,-0.1436,-0.1436,-0.1436,-0.1436,-0.1436,-0.1436,-0.1436,-0.1436,-0.1436,-0.1436,-0.1436,-0.1435,-0.1413,-0.1397,-0.1365,-0.1337,-0.1313,-0.1302,-0.1294,-0.1278,-0.1274,-0.1275,-0.1274,-0.1346,-0.134,-0.1338,-0.1336,-0.3187,-0.3185,-0.3157,-0.3127,-0.3095,-0.3065,-0.3035,-0.2999,-0.2943,-0.292,-0.2913,-0.2884,-0.2875,-0.2875,-0.2875,-0.2875,-0.2875,-0.2875,-0.2875,-0.2875,-0.2875,-0.2875,-0.2875,-0.2875,-0.2785,-0.2694,-0.2694,-0.2582,-0.252,-0.2471,-0.2492,-0.2446,-0.246,-0.2514,-0.251,-0.251,-0.251,-0.2431,-0.2431,-0.2198,-0.1964,-0.1808,-0.1886,-0.1728,-0.1571,-0.1333,-0.1329,-0.2037,-0.337,-0.4075,-0.3446,-0.2507,-0.2507,-0.2899,-0.3054,-0.321,-0.3443,-0.3832,-0.36,-0.3366,-0.3287,-0.3602,-0.3368,-0.3365,-0.3677,-0.3832,-0.3366,-0.2743,-0.2431,-0.2198,-0.1415,-0.1336,-0.1336,-0.1336,-0.1336,-0.135,-0.1294,-0.1303,-0.1315,-0.1344,-0.137,-0.1391,-0.141,-0.1427,-0.1435,-0.1436,-0.1436,-0.1436,-0.1436,-0.1436,-0.1436,-0.1436,-0.1436,-0.1436,-0.1436,-0.1436,-0.1436,-0.1436,-0.1436,-0.1436,-0.1427,-0.1414,-0.1401,-0.1371,-0.1339,-0.1331,-0.1321,-0.1304,-0.1289,-0.129,-0.1286,-0.1273,-0.1342,-0.1338,-0.1336,-0.3135,-0.3121,-0.3071,-0.3045,-0.3027,-0.2984,-0.2958,-0.2939,-0.2895,-0.2882,-0.2875,-0.2875,-0.2875,-0.2875,-0.2875,-0.2875,-0.2875,-0.2875,-0.2875,-0.2875,-0.2875,-0.2875,-0.2875,-0.2875,-0.2875,-0.2875,-0.2875,-0.2818,-0.2745,-0.2691,-0.2644,-0.2548,-0.2515,-0.2511,-0.251,-0.251,-0.2431,-0.2353,-0.2273,-0.2118,-0.1886,-0.173,-0.1806,-0.1884,-0.1884,-0.1488,-0.164,-0.2501,-0.3999,-0.5973,-0.4932,-0.4302,-0.4144,-0.3988,-0.3988,-0.3986,-0.4222,-0.4457,-0.4535,-0.4302,-0.4224,-0.4927,-0.438,-0.4144,-0.4222,-0.4377,-0.399,-0.3368,-0.2901,-0.2586,-0.1805,-0.1883,-0.1884,-0.1807,-0.1731,-0.1676,-0.1707,-0.1639,-0.1585,-0.1354,-0.1645,-0.1848,-0.159,-0.1425,-0.1431,-0.1436,-0.1436,-0.1436,-0.1436,-0.1436,-0.1436,-0.1436,-0.1436,-0.1436,-0.1436,-0.1436,-0.1436,-0.1436,-0.1436,-0.1436,-0.1436,-0.1428,-0.1414,-0.1392,-0.1369,-0.136,-0.1345,-0.1324,-0.1313,-0.1309,-0.1292,-0.1351,-0.1341,-0.1337,-0.1336,-0.3109,-0.3158,-0.3148,-0.3115,-0.2976,-0.2961,-0.2931,-0.2891,-0.288,-0.2875,-0.2875,-0.2875,-0.2875,-0.2875,-0.2875,-0.2875,-0.2875,-0.2875,-0.2875,-0.2875,-0.2875,-0.2875,-0.2875,-0.2875,-0.2875,-0.2875,-0.2872,-0.2831,-0.2762,-0.2717,-0.2647,-0.2586,-0.2533,-0.2511,-0.251,-0.251,-0.2352,-0.2195,-0.2195,-0.2119,-0.1729,-0.1729,-0.1727,-0.1961,-0.2196,-0.2113,-0.2108,-0.3513,-0.5165,-0.6106,-0.6025,-0.5867,-0.5553,-0.5082,-0.4846,-0.4924,-0.5318,-0.5476,-0.516,-0.5002,-0.4849,-0.4927,-0.4849,-0.516,-0.5553,-0.5712,-0.516,-0.4457,-0.3832,-0.3443,-0.3441,-0.313,-0.3287,-0.3377,-0.3257,-0.3322,-0.3235,-0.2949,-0.2391,-0.1986,-0.2195,-0.2312,-0.1958,-0.1604,-0.1431,-0.1436,-0.1436,-0.1436,-0.1436,-0.1436,-0.1436,-0.1436,-0.1436,-0.1436,-0.1436,-0.1436,-0.1436,-0.1436,-0.1436,-0.1436,-0.1436,-0.1436,-0.1423,-0.1404,-0.1394,-0.1386,-0.1368,-0.1348,-0.1334,-0.1328,-0.1299,-0.1346,-0.134,-0.1336,-0.1336,-0.3029,-0.3094,-0.2971,-0.2943,-0.2918,-0.2914,-0.2901,-0.2877,-0.2875,-0.2875,-0.2875,-0.2875,-0.2875,-0.2875,-0.2875,-0.2875,-0.2875,-0.2875,-0.2875,-0.2875,-0.2875,-0.2875,-0.2875,-0.2875,-0.2875,-0.2875,-0.2871,-0.2824,-0.2743,-0.2709,-0.2642,-0.2564,-0.252,-0.251,-0.251,-0.251,-0.2273,-0.2117,-0.2352,-0.2275,-0.1728,-0.1885,-0.2118,-0.2663,-0.2976,-0.3361,-0.4059,-0.4215,-0.5395,-0.6103,-0.6257,-0.6261,-0.618,-0.5944,-0.5631,-0.5712,-0.6025,-0.618,-0.5786,-0.5709,-0.5709,-0.5709,-0.5628,-0.5864,-0.618,-0.618,-0.5944,-0.5082,-0.43,-0.3832,-0.3752,-0.391,-0.3832,-0.3839,-0.3882,-0.3972,-0.3993,-0.4061,-0.3617,-0.2805,-0.2305,-0.2322,-0.2326,-0.1971,-0.1524,-0.1436,-0.1436,-0.1436,-0.1436,-0.1436,-0.1436,-0.1436,-0.1436,-0.1436,-0.1436,-0.1436,-0.1436,-0.1436,-0.1436,-0.1436,-0.1433,-0.1432,-0.143,-0.1421,-0.1414,-0.1397,-0.1401,-0.1384,-0.1366,-0.1343,-0.1309,-0.1281,-0.1344,-0.1336,-0.1258,-0.2951,-0.2937,-0.2892,-0.2875,-0.2875,-0.2875,-0.2876,-0.2875,-0.2875,-0.2875,-0.2875,-0.2875,-0.2875,-0.2875,-0.2875,-0.2875,-0.2875,-0.2875,-0.2875,-0.2875,-0.2875,-0.2875,-0.2875,-0.2875,-0.2875,-0.2875,-0.2873,-0.2811,-0.2721,-0.2695,-0.2623,-0.2548,-0.2512,-0.251,-0.251,-0.2666,-0.243,-0.2665,-0.2662,-0.2508,-0.2119,-0.2431,-0.3056,-0.3752,-0.3988,-0.4533,-0.5076,-0.5392,-0.5631,-0.6103,-0.6261,-0.6261,-0.6261,-0.6261,-0.6261,-0.6261,-0.6261,-0.6261,-0.6257,-0.6257,-0.618,-0.6103,-0.6257,-0.6261,-0.6261,-0.6257,-0.6025,-0.5318,-0.4849,-0.4455,-0.4533,-0.4377,-0.438,-0.4472,-0.4508,-0.4506,-0.4819,-0.4935,-0.4954,-0.4058,-0.2765,-0.2418,-0.2598,-0.1973,-0.1436,-0.1436,-0.1436,-0.1436,-0.1436,-0.1436,-0.1436,-0.1436,-0.1436,-0.1436,-0.1436,-0.1436,-0.1436,-0.1436,-0.1436,-0.1436,-0.1431,-0.1427,-0.1423,-0.1414,-0.1401,-0.1388,-0.1403,-0.1406,-0.1371,-0.1339,-0.1314,-0.129,-0.1266,-0.1257,-0.1178,-0.2929,-0.2884,-0.2879,-0.2875,-0.2875,-0.2875,-0.2875,-0.2875,-0.2875,-0.2875,-0.2875,-0.2875,-0.2875,-0.2875,-0.2875,-0.2875,-0.2875,-0.2875,-0.2875,-0.2875,-0.2875,-0.2875,-0.2875,-0.2875,-0.2964,-0.3053,-0.3053,-0.2804,-0.2972,-0.2944,-0.271,-0.2692,-0.2821,-0.251,-0.2507,-0.3056,-0.3604,-0.3841,-0.3288,-0.2741,-0.2665,-0.3288,-0.3675,-0.3986,-0.4455,-0.4766,-0.4919,-0.547,-0.6103,-0.618,-0.6261,-0.6261,-0.6261,-0.6261,-0.6261,-0.6261,-0.6261,-0.6261,-0.6261,-0.6261,-0.6261,-0.6261,-0.6261,-0.6261,-0.6261,-0.6261,-0.6257,-0.6257,-0.5944,-0.5631,-0.5395,-0.5789,-0.587,-0.5692,-0.5368,-0.5641,-0.5954,-0.4922,-0.5033,-0.4956,-0.3664,-0.3223,-0.3045,-0.2152,-0.1436,-0.1436,-0.1436,-0.1436,-0.1436,-0.1436,-0.1436,-0.1436,-0.1436,-0.1436,-0.1436,-0.1436,-0.1436,-0.1436,-0.1436,-0.1435,-0.1429,-0.1422,-0.1403,-0.1394,-0.1382,-0.138,-0.1395,-0.1387,-0.1361,-0.1248,-0.1139,-0.1199,-0.1261,-0.1178,-0.0785,-0.2897,-0.2875,-0.2875,-0.2875,-0.2875,-0.2875,-0.2875,-0.2875,-0.2875,-0.2875,-0.2875,-0.2875,-0.2875,-0.2875,-0.2875,-0.2875,-0.2875,-0.2964,-0.2875,-0.2964,-0.2964,-0.2964,-0.2875,-0.2964,-0.3053,-0.3676,-0.3748,-0.411,-0.3914,-0.368,-0.3527,-0.3866,-0.3756,-0.3361,-0.2898,-0.3599,-0.4545,-0.4784,-0.4231,-0.3599,-0.3912,-0.4224,-0.4455,-0.4533,-0.5318,-0.5392,-0.547,-0.5705,-0.6257,-0.6261,-0.6261,-0.6261,-0.6261,-0.6261,-0.6261,-0.6261,-0.6261,-0.6261,-0.6261,-0.6261,-0.6261,-0.6261,-0.6261,-0.6261,-0.6261,-0.618,-0.5944,-0.5553,-0.6022,-0.5867,-0.5318,-0.5318,-0.5162,-0.5132,-0.5314,-0.5254,-0.5349,-0.5086,-0.4567,-0.4658,-0.4561,-0.3848,-0.3223,-0.2688,-0.1883,-0.1436,-0.1436,-0.1436,-0.1436,-0.1436,-0.1436,-0.1436,-0.1436,-0.1436,-0.1436,-0.1436,-0.1436,-0.1436,-0.1436,-0.1433,-0.1428,-0.1417,-0.1395,-0.1378,-0.1369,-0.1373,-0.1384,-0.1363,-0.133,-0.1144,-0.0884,-0.0,-0.0,0.0078,0.047,-0.2875,-0.2875,-0.2875,-0.2875,-0.2875,-0.2875,-0.2875,-0.2875,-0.2875,-0.2875,-0.2875,-0.2875,-0.2875,-0.2875,-0.2875,-0.2875,-0.2964,-0.3142,-0.3053,-0.3053,-0.332,-0.3497,-0.3587,-0.3499,-0.4032,-0.4654,-0.4654,-0.4998,-0.5304,-0.5131,-0.4884,-0.498,-0.4749,-0.4265,-0.3777,-0.4153,-0.5168,-0.5491,-0.4932,-0.4691,-0.4849,-0.5162,-0.5315,-0.555,-0.587,-0.6261,-0.6261,-0.6257,-0.6261,-0.6261,-0.6261,-0.6261,-0.6261,-0.6261,-0.6261,-0.6261,-0.6261,-0.6261,-0.6261,-0.6261,-0.6261,-0.6257,-0.6025,-0.5867,-0.5867,-0.5867,-0.5553,-0.4768,-0.5082,-0.4771,-0.4307,-0.4396,-0.443,-0.4209,-0.4079,-0.3999,-0.3997,-0.4071,-0.4042,-0.3928,-0.3811,-0.3578,-0.3132,-0.3045,-0.2419,-0.1615,-0.1436,-0.1436,-0.1436,-0.1436,-0.1436,-0.1436,-0.1436,-0.1436,-0.1436,-0.1436,-0.1436,-0.1436,-0.1436,-0.1434,-0.143,-0.1406,-0.1376,-0.1364,-0.1355,-0.1332,-0.1322,-0.1311,-0.1302,-0.1132,-0.0,-0.0,-0.0,-0.0,0.1567,-0.2875,-0.2875,-0.2875,-0.2875,-0.2875,-0.2875,-0.2875,-0.2875,-0.2875,-0.2875,-0.2875,-0.2964,-0.3053,-0.3053,-0.3142,-0.3141,-0.3053,-0.3855,-0.3765,-0.3942,-0.4476,-0.4654,-0.4654,-0.4832,-0.5364,-0.5542,-0.563,-0.6084,-0.6589,-0.6629,-0.588,-0.5122,-0.5502,-0.5095,-0.4888,-0.5207,-0.5398,-0.5715,-0.5628,-0.555,-0.555,-0.5709,-0.6103,-0.6103,-0.618,-0.6261,-0.6261,-0.6261,-0.6261,-0.6261,-0.6261,-0.6261,-0.6261,-0.6261,-0.6261,-0.6261,-0.6261,-0.6261,-0.6261,-0.6257,-0.6257,-0.6022,-0.5709,-0.524,-0.5085,-0.4377,-0.3986,-0.3988,-0.43,-0.4077,-0.3785,-0.3818,-0.3768,-0.3404,-0.3184,-0.3313,-0.3374,-0.3587,-0.3547,-0.3309,-0.3081,-0.2853,-0.2774,-0.2598,-0.233,-0.1525,-0.1436,-0.1436,-0.1436,-0.1436,-0.1436,-0.1436,-0.1436,-0.1436,-0.1436,-0.1436,-0.1436,-0.1436,-0.1436,-0.1436,-0.1434,-0.1403,-0.1371,-0.1349,-0.1337,-0.1299,-0.1352,-0.1288,-0.1297,-0.1132,-0.0,-0.0,-0.0,-0.0,0.2273,-0.2875,-0.2875,-0.2875,-0.2875,-0.2875,-0.2875,-0.2875,-0.2875,-0.2875,-0.2875,-0.2963,-0.3497,-0.3764,-0.3853,-0.4476,-0.4652,-0.4654,-0.4921,-0.4832,-0.4921,-0.5275,-0.5453,-0.5364,-0.563,-0.5897,-0.6432,-0.6602,-0.6977,-0.7707,-0.7778,-0.7536,-0.6951,-0.6651,-0.6532,-0.6451,-0.6179,-0.6187,-0.617,-0.6402,-0.6402,-0.6251,-0.6173,-0.6412,-0.6338,-0.6261,-0.6261,-0.6261,-0.6261,-0.6261,-0.6261,-0.6261,-0.6261,-0.6261,-0.6261,-0.6261,-0.6257,-0.618,-0.618,-0.618,-0.618,-0.6103,-0.555,-0.516,-0.4771,-0.4302,-0.3908,-0.3443,-0.3366,-0.3446,-0.3385,-0.2405,-0.2664,-0.2927,-0.2479,-0.2427,-0.2537,-0.2645,-0.2846,-0.2956,-0.2714,-0.2477,-0.2237,-0.224,-0.2151,-0.1793,-0.1436,-0.1436,-0.1436,-0.1436,-0.1436,-0.1436,-0.1436,-0.1436,-0.1436,-0.1436,-0.1436,-0.1436,-0.1436,-0.1436,-0.1436,-0.1433,-0.1408,-0.1377,-0.1351,-0.1328,-0.1305,-0.1293,-0.1294,-0.1128,-0.072,0.0159,-0.0,-0.0,0.2743,0.2901,-0.3053,-0.332,-0.332,-0.3321,-0.332,-0.3053,-0.3232,-0.3676,-0.3499,-0.3497,-0.3765,-0.4478,-0.4743,-0.4921,-0.5277,-0.563,-0.563,-0.5897,-0.5808,-0.5988,-0.6254,-0.6254,-0.634,-0.652,-0.7143,-0.7499,-0.7577,-0.7952,-0.8319,-0.8515,-0.8285,-0.808,-0.8018,-0.7596,-0.7258,-0.7133,-0.7026,-0.6942,-0.6865,-0.6788,-0.6637,-0.6563,-0.6486,-0.6338,-0.6261,-0.6261,-0.6261,-0.6261,-0.6261,-0.6261,-0.6261,-0.6261,-0.6261,-0.6261,-0.6183,-0.6025,-0.5944,-0.5944,-0.5944,-0.5867,-0.5631,-0.516,-0.4304,-0.3912,-0.3599,-0.3209,-0.2586,-0.2276,-0.2679,-0.2553,-0.1305,-0.1894,-0.217,-0.1869,-0.1785,-0.18,-0.1807,-0.1909,-0.2096,-0.22,-0.1956,-0.1793,-0.1793,-0.1793,-0.1704,-0.1436,-0.1436,-0.1436,-0.1436,-0.1436,-0.1436,-0.1436,-0.1436,-0.1436,-0.1436,-0.1436,-0.1436,-0.1436,-0.1436,-0.1436,-0.1427,-0.1406,-0.139,-0.1371,-0.1348,-0.1322,-0.1308,-0.1301,-0.0801,-0.0158,0.0863,0.1959,0.2743,0.337,0.3448,-0.3499,-0.421,-0.43,-0.43,-0.43,-0.332,-0.3944,-0.5097,-0.4654,-0.4654,-0.5275,-0.5542,-0.563,-0.5722,-0.5985,-0.6166,-0.6343,-0.6786,-0.6786,-0.652,-0.7408,-0.7672,-0.7584,-0.7764,-0.8032,-0.8476,-0.8356,-0.8329,-0.8532,-0.8507,-0.8507,-0.8471,-0.8296,-0.8034,-0.7839,-0.7596,-0.7273,-0.6945,-0.6942,-0.6791,-0.6714,-0.6641,-0.6486,-0.6335,-0.6261,-0.6261,-0.6261,-0.6261,-0.6261,-0.6261,-0.6261,-0.6257,-0.6103,-0.6103,-0.5789,-0.5082,-0.5082,-0.5004,-0.5004,-0.5004,-0.4846,-0.4535,-0.368,-0.2979,-0.251,-0.1962,-0.1655,-0.1662,-0.1681,-0.1621,-0.1322,-0.1432,-0.1456,-0.1474,-0.1389,-0.1391,-0.1397,-0.1401,-0.1675,-0.186,-0.1604,-0.1436,-0.1436,-0.1436,-0.1436,-0.1436,-0.1436,-0.1436,-0.1436,-0.1436,-0.1436,-0.1436,-0.1436,-0.1436,-0.1436,-0.1436,-0.1436,-0.1436,-0.1436,-0.1436,-0.143,-0.1415,-0.1401,-0.1388,-0.1376,-0.1357,-0.1329,-0.1222,-0.0641,0.0079,0.1413,0.2508,0.337,0.3841,0.3841,-0.4919,-0.5188,-0.5188,-0.563,-0.5985,-0.5186,-0.5188,-0.5542,-0.5366,-0.5455,-0.5808,-0.634,-0.6609,-0.6786,-0.7224,-0.7489,-0.7584,-0.7764,-0.7768,-0.7768,-0.8388,-0.83,-0.8296,-0.83,-0.8564,-0.8532,-0.8479,-0.8471,-0.8556,-0.845,-0.8479,-0.8467,-0.8235,-0.7942,-0.7757,-0.761,-0.7411,-0.7326,-0.7176,-0.7026,-0.6791,-0.6637,-0.6486,-0.6335,-0.6261,-0.6261,-0.6261,-0.6261,-0.6257,-0.6103,-0.6099,-0.5944,-0.5553,-0.5473,-0.5082,-0.4377,-0.4222,-0.4222,-0.399,-0.3834,-0.3368,-0.3212,-0.2979,-0.2276,-0.1805,-0.1492,-0.1346,-0.1284,-0.1299,-0.1321,-0.1359,-0.1372,-0.1392,-0.1414,-0.1421,-0.142,-0.1423,-0.1423,-0.1516,-0.1517,-0.1434,-0.1436,-0.1436,-0.1436,-0.1436,-0.1436,-0.1436,-0.1436,-0.1436,-0.1436,-0.1436,-0.1436,-0.1436,-0.1436,-0.1436,-0.1436,-0.1436,-0.1436,-0.1436,-0.1436,-0.1429,-0.1421,-0.1411,-0.1399,-0.1397,-0.1305,-0.1266,-0.1066,-0.0482,0.0396,0.1416,0.2508,0.3292,0.3684,0.3841,-0.5857,-0.6157,-0.6113,-0.6656,-0.7316,-0.6254,-0.5897,-0.6166,-0.652,-0.6697,-0.6874,-0.7408,-0.7588,-0.7837,-0.815,-0.8532,-0.8548,-0.8491,-0.8544,-0.8552,-0.8572,-0.8568,-0.8568,-0.8552,-0.8511,-0.8463,-0.8377,-0.8349,-0.8333,-0.8243,-0.8211,-0.817,-0.797,-0.7765,-0.7675,-0.7541,-0.7407,-0.733,-0.718,-0.7022,-0.6791,-0.6641,-0.6486,-0.6335,-0.6261,-0.6261,-0.6264,-0.6183,-0.6025,-0.5709,-0.5473,-0.5318,-0.4846,-0.4533,-0.4144,-0.3599,-0.3366,-0.321,-0.282,-0.2899,-0.2588,-0.2198,-0.2276,-0.2042,-0.1492,-0.1335,-0.1354,-0.1293,-0.1314,-0.1346,-0.138,-0.1392,-0.1412,-0.1434,-0.1434,-0.1433,-0.1433,-0.1432,-0.1432,-0.1434,-0.1435,-0.1436,-0.1436,-0.1436,-0.1436,-0.1436,-0.1436,-0.1436,-0.1436,-0.1436,-0.1436,-0.1436,-0.1436,-0.1436,-0.1436,-0.1436,-0.1436,-0.1436,-0.1436,-0.1436,-0.1435,-0.1429,-0.1419,-0.1412,-0.1414,-0.1315,-0.1189,-0.0909,-0.0486,0.008,0.0864,0.1958,0.3136,0.3528,0.3684,-0.6118,-0.7007,-0.6966,-0.7508,-0.8165,-0.6653,-0.6404,-0.7224,-0.812,-0.8472,-0.8464,-0.836,-0.8329,-0.8396,-0.8353,-0.8361,-0.8446,-0.8337,-0.8381,-0.8459,-0.845,-0.8483,-0.8487,-0.8479,-0.8385,-0.8308,-0.8231,-0.8126,-0.8036,-0.8065,-0.7992,-0.7866,-0.7841,-0.7695,-0.7573,-0.7427,-0.733,-0.7253,-0.7103,-0.6945,-0.6714,-0.656,-0.6486,-0.6335,-0.6261,-0.6261,-0.6264,-0.6268,-0.5237,-0.4608,-0.4139,-0.4064,-0.391,-0.3752,-0.321,-0.2743,-0.251,-0.2118,-0.1804,-0.2118,-0.1961,-0.1649,-0.1493,-0.1336,-0.1336,-0.1338,-0.1277,-0.131,-0.1339,-0.1366,-0.1393,-0.1411,-0.1429,-0.1436,-0.1436,-0.1435,-0.1435,-0.1435,-0.1435,-0.1436,-0.1436,-0.1436,-0.1436,-0.1436,-0.1436,-0.1436,-0.1436,-0.1436,-0.1436,-0.1436,-0.1436,-0.1436,-0.1436,-0.1436,-0.1436,-0.1436,-0.1436,-0.1436,-0.1436,-0.1436,-0.1436,-0.1436,-0.1429,-0.1425,-0.1431,-0.1325,-0.1286,-0.1002,-0.0652,-0.008,0.0476,0.1806,0.3067,0.3294,0.3448,-0.745,-0.7739,-0.7693,-0.7871,-0.8082,-0.7579,-0.7707,-0.8193,-0.8476,-0.8503,-0.8373,-0.8369,-0.8316,-0.817,-0.8117,-0.8138,-0.8142,-0.813,-0.8126,-0.8174,-0.8231,-0.8191,-0.8187,-0.8203,-0.8142,-0.8077,-0.8004,-0.7967,-0.8,-0.7996,-0.7902,-0.7793,-0.7815,-0.7626,-0.7545,-0.7334,-0.7176,-0.7099,-0.7022,-0.6795,-0.6641,-0.6486,-0.6335,-0.6335,-0.6261,-0.6261,-0.6261,-0.6268,-0.4999,-0.2803,-0.2335,-0.226,-0.2899,-0.2821,-0.251,-0.1805,-0.1649,-0.1571,-0.1414,-0.1492,-0.1571,-0.1414,-0.1336,-0.1336,-0.1336,-0.1344,-0.1282,-0.1322,-0.1361,-0.1389,-0.1408,-0.1425,-0.1436,-0.1436,-0.1436,-0.1436,-0.1436,-0.1436,-0.1436,-0.1436,-0.1436,-0.1436,-0.1436,-0.1436,-0.1436,-0.1436,-0.1436,-0.1436,-0.1436,-0.1436,-0.1436,-0.1436,-0.1436,-0.1436,-0.1436,-0.1436,-0.1436,-0.1436,-0.1436,-0.1436,-0.1436,-0.1436,-0.1436,-0.1436,-0.1436,-0.1417,-0.1388,-0.1101,-0.091,-0.0489,0.0161,0.1591,0.2759,0.3064,0.3214,-0.7951,-0.8,-0.7935,-0.7947,-0.8008,-0.8012,-0.8158,-0.8329,-0.8349,-0.8276,-0.8191,-0.8182,-0.8117,-0.8028,-0.7963,-0.7955,-0.8024,-0.7955,-0.7955,-0.804,-0.7992,-0.8036,-0.8016,-0.7992,-0.7979,-0.7898,-0.7825,-0.7793,-0.7829,-0.7801,-0.772,-0.7655,-0.765,-0.759,-0.7439,-0.7338,-0.7022,-0.6865,-0.6714,-0.6641,-0.6486,-0.6335,-0.6335,-0.6261,-0.6261,-0.6257,-0.6261,-0.6264,-0.4686,-0.226,-0.1714,-0.1485,-0.2041,-0.2041,-0.1961,-0.1335,-0.1336,-0.1415,-0.1336,-0.1336,-0.1336,-0.1336,-0.1336,-0.1336,-0.1346,-0.1275,-0.1305,-0.134,-0.1376,-0.1408,-0.1423,-0.1436,-0.1436,-0.1436,-0.1436,-0.1436,-0.1436,-0.1436,-0.1436,-0.1436,-0.1436,-0.1436,-0.1436,-0.1436,-0.1436,-0.1436,-0.1436,-0.1436,-0.1436,-0.1436,-0.1436,-0.1436,-0.1436,-0.1436,-0.1436,-0.1436,-0.1436,-0.1436,-0.1436,-0.1436,-0.1436,-0.1436,-0.1436,-0.1436,-0.1436,-0.1416,-0.1396,-0.1288,-0.1094,-0.0663,-0.0325,0.0639,0.1894,0.3061,0.3214,-0.7825,-0.7947,-0.7805,-0.7817,-0.7955,-0.7947,-0.7955,-0.7975,-0.7971,-0.7979,-0.7988,-0.7996,-0.7971,-0.7878,-0.7793,-0.7809,-0.7829,-0.7784,-0.7789,-0.7959,-0.7894,-0.7886,-0.7898,-0.7951,-0.7821,-0.776,-0.7711,-0.7646,-0.7537,-0.7545,-0.7569,-0.7488,-0.7504,-0.7423,-0.7431,-0.7184,-0.6868,-0.6556,-0.656,-0.6486,-0.6335,-0.6257,-0.6261,-0.6261,-0.6257,-0.6257,-0.6187,-0.5799,-0.5179,-0.3287,-0.1957,-0.1335,-0.1414,-0.1414,-0.1335,-0.1335,-0.1336,-0.1336,-0.1336,-0.1336,-0.1336,-0.1336,-0.1336,-0.1336,-0.1345,-0.1275,-0.1301,-0.1342,-0.1378,-0.1408,-0.1426,-0.1433,-0.1436,-0.1436,-0.1436,-0.1436,-0.1436,-0.1436,-0.1436,-0.1436,-0.1436,-0.1436,-0.1436,-0.1436,-0.1436,-0.1436,-0.1436,-0.1436,-0.1436,-0.1436,-0.1436,-0.1436,-0.1436,-0.1436,-0.1436,-0.1436,-0.1436,-0.1436,-0.1436,-0.1436,-0.1436,-0.1436,-0.1436,-0.1436,-0.1435,-0.1423,-0.1405,-0.1302,-0.1199,-0.0837,-0.0492,-0.024,0.0792,0.2141,0.2673,-0.7573,-0.7606,-0.7565,-0.7577,-0.761,-0.761,-0.7618,-0.761,-0.761,-0.7699,-0.7801,-0.7809,-0.7748,-0.7646,-0.761,-0.7618,-0.7606,-0.7634,-0.759,-0.763,-0.765,-0.7691,-0.7634,-0.7675,-0.761,-0.7569,-0.7537,-0.7545,-0.7496,-0.748,-0.748,-0.7484,-0.733,-0.7338,-0.7423,-0.703,-0.6637,-0.6325,-0.6331,-0.6412,-0.6335,-0.6261,-0.6261,-0.6261,-0.6257,-0.5786,-0.5712,-0.5721,-0.4151,-0.2192,-0.1645,-0.1334,-0.1335,-0.1336,-0.1336,-0.1336,-0.1336,-0.1336,-0.1336,-0.1336,-0.1336,-0.1336,-0.1336,-0.1336,-0.134,-0.1347,-0.1292,-0.1337,-0.1375,-0.1403,-0.1426,-0.1431,-0.1436,-0.1436,-0.1436,-0.1436,-0.1436,-0.1436,-0.1436,-0.1436,-0.1436,-0.1436,-0.1436,-0.1436,-0.1436,-0.1436,-0.1436,-0.1436,-0.1436,-0.1436,-0.1436,-0.1436,-0.1436,-0.1436,-0.1436,-0.1436,-0.1436,-0.1436,-0.1436,-0.1436,-0.1436,-0.1436,-0.1436,-0.1436,-0.1433,-0.1425,-0.1422,-0.1423,-0.1225,-0.0937,-0.067,-0.0576,-0.0328,0.0739,0.1288,-0.748,-0.748,-0.748,-0.748,-0.748,-0.748,-0.748,-0.748,-0.748,-0.7541,-0.7626,-0.763,-0.7577,-0.7484,-0.748,-0.748,-0.748,-0.7484,-0.7508,-0.7492,-0.748,-0.75,-0.748,-0.748,-0.75,-0.7484,-0.7484,-0.7492,-0.7407,-0.7411,-0.7334,-0.7334,-0.718,-0.7103,-0.7184,-0.6795,-0.6483,-0.6328,-0.6257,-0.6261,-0.6261,-0.6261,-0.6261,-0.6261,-0.6103,-0.5631,-0.5162,-0.5087,-0.3756,-0.2272,-0.1648,-0.1334,-0.1335,-0.1336,-0.1336,-0.1336,-0.1336,-0.1336,-0.1336,-0.1336,-0.1336,-0.1336,-0.1336,-0.1336,-0.1336,-0.1346,-0.1292,-0.1335,-0.1372,-0.1402,-0.1425,-0.1435,-0.1436,-0.1436,-0.1436,-0.1436,-0.1436,-0.1436,-0.1436,-0.1436,-0.1436,-0.1436,-0.1436,-0.1436,-0.1436,-0.1436,-0.1436,-0.1436,-0.1436,-0.1436,-0.1436,-0.1436,-0.1436,-0.1436,-0.1436,-0.1436,-0.1436,-0.1436,-0.1436,-0.1436,-0.1436,-0.1436,-0.1436,-0.1436,-0.1436,-0.1434,-0.1433,-0.1431,-0.1417,-0.1208,-0.1025,-0.0847,-0.0678,-0.0507,-0.0083,-0.748,-0.748,-0.748,-0.748,-0.748,-0.748,-0.748,-0.748,-0.748,-0.7484,-0.7496,-0.7496,-0.748,-0.748,-0.748,-0.748,-0.748,-0.748,-0.748,-0.748,-0.748,-0.748,-0.748,-0.748,-0.748,-0.748,-0.748,-0.7334,-0.7261,-0.7261,-0.7261,-0.7103,-0.7022,-0.6865,-0.6791,-0.6637,-0.6409,-0.6335,-0.6261,-0.6261,-0.6261,-0.6261,-0.6261,-0.6261,-0.618,-0.5789,-0.4927,-0.4146,-0.3366,-0.243,-0.1649,-0.1414,-0.1335,-0.1336,-0.1336,-0.1336,-0.1336,-0.1336,-0.1336,-0.1336,-0.1336,-0.1336,-0.1336,-0.1336,-0.1336,-0.1349,-0.1295,-0.1324,-0.1361,-0.1393,-0.1415,-0.1436,-0.1436,-0.1436,-0.1436,-0.1436,-0.1436,-0.1436,-0.1436,-0.1436,-0.1436,-0.1436,-0.1436,-0.1436,-0.1436,-0.1436,-0.1436,-0.1436,-0.1436,-0.1436,-0.1436,-0.1436,-0.1436,-0.1436,-0.1436,-0.1436,-0.1436,-0.1436,-0.1436,-0.1436,-0.1436,-0.1436,-0.1436,-0.1436,-0.1436,-0.1436,-0.143,-0.1425,-0.1408,-0.1398,-0.1309,-0.1129,-0.1125,-0.1035,-0.1196,-0.748,-0.748,-0.748,-0.748,-0.748,-0.748,-0.748,-0.748,-0.748,-0.748,-0.748,-0.748,-0.748,-0.748,-0.748,-0.748,-0.748,-0.748,-0.748,-0.748,-0.748,-0.748,-0.748,-0.748,-0.748,-0.748,-0.748,-0.7411,-0.7184,-0.7184,-0.7103,-0.6945,-0.6795,-0.6718,-0.6876,-0.6644,-0.6335,-0.6261,-0.6264,-0.6345,-0.6274,-0.6271,-0.6261,-0.6261,-0.6261,-0.5318,-0.4457,-0.391,-0.2898,-0.1961,-0.1414,-0.1336,-0.1336,-0.1336,-0.1336,-0.1336,-0.1336,-0.1336,-0.1336,-0.1336,-0.1336,-0.1336,-0.1336,-0.1336,-0.1336,-0.1337,-0.1282,-0.1303,-0.1339,-0.1371,-0.1396,-0.1426,-0.1435,-0.1436,-0.1436,-0.1436,-0.1436,-0.1436,-0.1436,-0.1436,-0.1436,-0.1436,-0.1436,-0.1436,-0.1436,-0.1436,-0.1436,-0.1436,-0.1436,-0.1436,-0.1436,-0.1436,-0.1436,-0.1436,-0.1436,-0.1436,-0.1436,-0.1436,-0.1436,-0.1436,-0.1436,-0.1436,-0.1436,-0.1436,-0.1436,-0.1436,-0.1429,-0.1425,-0.1425,-0.1421,-0.1425,-0.1334,-0.1416,-0.1406,-0.1392]},{"header":{"parameterUnit":"m.s-1","parameterCategory":1,"la1":31.0,"la2":29.5877,"lo1":-88.7671,"lo2":-86.6584,"dy":0.0162,"dx":0.0185,"nx":115,"ny":88,"refTime":"2024-07-02T18:00:00:Z","depth":0,"parameterNumber":3,"parameterNumberName":"V-component_of_WINDS"},"data":[0.0,0.0,0.0,0.0,0.0,0.0,0.0,0.0,0.0,0.0,0.0,0.0,0.0,0.0,0.0,0.0,0.0,0.0,0.0,0.0,0.0,0.0,0.0,0.0,0.0,0.0,0.0,0.0,0.0,0.0,0.0,0.0,0.0,0.0,0.0,0.0,0.0,0.0,0.0,0.0,0.0,0.0,0.0,0.0,0.0,0.0,0.0,0.0,0.0,0.0,0.0,0.0,0.0,0.0,0.0,0.0,0.0,0.0,0.0,0.0,0.0,0.0,0.0,0.0,0.0,0.0,0.0,0.0,0.0,0.0,0.0,0.0,0.0,0.0,0.0,0.0,0.0,0.0,0.0,0.0,0.0,0.0,0.0,0.0,0.0,0.0,0.0,0.0,0.0,0.0,0.0,0.0,0.0,0.0,0.0,0.0,0.0,0.0,0.0,0.0,0.0,0.0,0.0,0.0,0.0,0.0,0.0,0.0,0.0,0.0,0.0,0.0,0.0,0.0,0.0,0.0,0.0,0.0,0.0,0.0,0.0,0.0,0.0,0.0,0.0,0.0,0.0,0.0,0.0,0.0,0.0,0.0,0.0,0.0,0.0,0.0,0.0,0.0,0.0,0.0,0.0,0.0,0.0,0.0,0.0,0.0,0.0,0.0,0.0,0.0,0.0,0.0,0.0,0.0,0.0,0.0,0.0,0.0,0.0,0.0,0.0,0.0,0.0,0.0,0.0,0.0,0.0,0.0,0.0,0.0,0.0,0.0,0.0,0.0,0.0,0.0,0.0,0.0,0.0,0.0,0.0,0.0,0.0,0.0,0.0,0.0,0.0,0.0,0.0,0.0,0.0,0.0,0.0,0.0,0.0,0.0,0.0,0.0,0.0,0.0,0.0,0.0,0.0,0.0,0.0,0.0,0.0,0.0,0.0,0.0,0.0,0.0,0.0,0.0,0.0,0.0,0.0,0.0,0.0,0.0,0.0,0.0,0.0,0.0,0.0,0.0,0.0,0.0,0.0,0.0,0.0,0.0,0.0,0.0,0.0,0.0,0.0,0.0,0.0,0.0,0.0,0.0,0.0,0.0,0.0,0.0,0.0,0.0,0.0,0.0,0.0,0.0,0.0,0.0,0.0,0.0,0.0,0.0,0.0,0.0,0.0,0.0,0.0,0.0,0.0,0.0,0.0,0.0,0.0,0.0,0.0,0.0,0.0,0.0,0.0,0.0,0.0,0.0,0.0,0.0,0.0,0.0,0.0,0.0,0.0,0.0,0.0,0.0,0.0,0.0,0.0,0.0,0.0,0.0,0.0,0.0,0.0,0.0,0.0,0.0,0.0,0.0,0.0,0.0,0.0,0.0,0.0,0.0,0.0,0.0,0.0,0.0,0.0,0.0,0.0,0.0,0.0,0.0,0.0,0.0,0.0,0.0,0.0,0.0,0.0,0.0,0.0,0.0,0.0,0.0,0.0,0.0,0.0,0.0,0.0,0.0,0.0,0.0,0.0,0.0,0.0,0.0,0.0,0.0,0.0,0.0,0.0,0.0,0.0,0.0,0.0,0.0,0.0,0.0,0.0,0.0,0.0,0.0,0.0,0.0,0.0,0.0,0.0,0.0,0.0,0.0,0.0,0.0,0.0,0.0,0.0,0.0,0.0,0.0,0.0,0.0,0.0,0.0,0.0,0.0,0.0,0.0,0.0,0.0,0.0,0.0,0.0,0.0,0.0,0.0,0.0,0.0,0.0,0.0,0.0,0.0,0.0,0.0,0.0,0.0,0.0,0.0,0.0,0.0,0.0,0.0,0.0,0.0,0.0,0.0,0.0,0.0,0.0,0.0,0.0,0.0,0.0,0.0,0.0,0.0,0.0,0.0,0.0,0.0,0.0,0.0,0.0,0.0,0.0,0.0,0.0,0.0,0.0,0.0,0.0,0.0,0.0,0.0,0.0,0.0,0.0,0.0,0.0,0.0,0.0,0.0,0.0,0.0,0.0,0.0,0.0,0.0,0.0,0.0,0.0,0.0,0.0,0.0,0.0,0.0,0.0,0.0,0.0,0.0,0.0,0.0,0.0,0.0,0.0,0.0,0.0,0.0,0.0,0.0,0.0,0.0,0.0,0.0,0.0,0.0,0.0,0.0,0.0,0.0,0.0,0.0,0.0,0.0,0.0,0.0,0.0,0.0,0.0,0.0,0.0,0.0,0.0,0.0,0.0,0.0,0.0,0.0,0.0,0.0,0.0,0.0,0.0,0.0,0.0,0.0,0.0,0.0,0.0,0.0,0.0,0.0,0.0,0.0,0.0,0.0,0.0,0.0,0.0,0.0,0.0,0.0,0.0,0.0,0.0,0.0,0.0,0.0,0.0,0.0,0.0,0.0,0.0,0.0,0.0,0.0,0.0,0.0,0.0,0.0,0.0,0.0,0.0,0.0,0.0,0.0,0.0,0.0,0.0,0.0,0.0,0.0,0.0,0.0,0.0,0.0,0.0,0.0,0.0,0.0,0.0,0.0,0.0,0.0,0.0,0.0,0.0,0.0,0.0,0.0,0.0,0.0,0.0,0.0,0.0,0.0,0.0,0.0,0.0,0.0,0.0,0.0,0.0,0.0,0.0,0.0,0.0,0.0,0.0,0.0,0.0,0.0,0.0,0.0,0.0,0.0,0.0,0.0,0.0,0.0,0.0,0.0,0.0,0.0,0.0,0.0,0.0,0.0,0.0,0.0,0.0,0.0,0.0,0.0,0.0,0.0,0.0,0.0,0.0,0.0,0.0,0.0,0.0,0.0,0.0,0.0,0.0,0.0,0.0,0.0,0.0,0.0,0.0,0.0,0.0,0.0,0.0,0.0,0.0,0.0,0.0,0.0,0.0,0.0,0.0,0.0,0.0,0.0,0.0,0.0,0.0,0.0,0.0,0.0,0.0,0.0,0.0,0.0,0.0,0.0,0.0,0.0,0.0,0.0,0.0,0.0,0.0,0.0,0.0,0.0,0.0,0.0,0.0,0.0,0.0,0.0,0.0,0.0,0.0,0.0,0.0,0.0,0.0,0.0,0.0,0.0,0.0,0.0,0.0,0.0,0.0,0.0,0.0,0.0,0.0,0.0,0.0,0.0,0.0,0.0,0.0,0.0,0.0,0.0,0.0,0.0,0.0,0.0,0.0,0.0,0.0,0.0,0.0,0.0,0.0,0.0,0.0,0.0,0.0,0.0,0.0,0.0,0.0,0.0,0.0,0.0,0.0,0.0,0.0,0.0,0.0,0.0,0.0,0.0,0.0,0.0,0.0,0.0,0.0,0.0,0.0,0.0,0.0,0.0,0.0,0.0,0.0,0.0,0.0,0.0,0.0,0.0,0.0,0.0,0.0,0.0,0.0,0.0,0.0,0.0,0.0,0.0,0.0,0.0,0.0,0.0,0.0,0.0,0.0,0.0,0.0,0.0,0.0,0.0,0.0,0.0,0.0,0.0,0.0,0.0,0.0,0.0,0.0,0.0,0.0,0.0,0.0,0.0,0.0,0.0,0.0,0.0,0.0,0.0,0.0,0.0,0.0,0.0,0.0,0.0,0.0,0.0,0.0,0.0,0.0,0.0,0.0,0.0,0.0,0.0,0.0,0.0,0.0,0.0,0.0,0.0,0.0,0.0,0.0,0.0,0.0,0.0,0.0,0.0,0.0,0.0,0.0,0.0,0.0,0.0,0.0,0.0,0.0,0.0,0.0,0.0,0.0,0.0,0.0,0.0,0.0,0.0,0.0,0.0,0.0,0.0,0.0,0.0,0.0,0.0,0.0,0.0,0.0,0.0,0.0,0.0,0.0,0.0,0.0,0.0,0.0,0.0,0.0,0.0,0.0,0.0,0.0,0.0,0.0,0.0,0.0,0.0,0.0,0.0,0.0,0.0,0.0,0.0,0.0,0.0,0.0,0.0,0.0,0.0,0.0,0.0,0.0,0.0,0.0,0.0,0.0,0.0,0.0,0.0,0.0,0.0,0.0,0.0,0.0,0.0,0.0,0.0,0.0,0.0,0.0,0.0,0.0,0.0,0.0,0.0,0.0,0.0,0.0,0.0,0.0,0.0,0.0,0.0,0.0,0.0,0.0,0.0,0.0,0.0,0.0,0.0,0.0,0.0,0.0,0.0,0.0,0.0,0.0,0.0,0.0,0.0,0.0,0.0,0.0,0.0,0.0,0.0,0.0,0.0,0.0,0.0,0.0,0.0,0.0,0.0,0.0,0.0,0.0,0.0,0.0,0.0,0.0,0.0,0.0,0.0,0.0,0.0,-0.9888,0.0,0.0,0.0,0.0,0.0,0.0,0.0,0.0,0.0,0.0,0.0,0.0,0.0,0.0,0.0,0.0,0.0,0.0,0.0,0.0,0.0,0.0,0.0,0.0,0.0,0.0,0.0,0.0,0.0,0.0,0.0,0.0,0.0,0.0,0.0,0.0,0.0,0.0,0.0,0.0,0.0,0.0,0.0,0.0,0.0,0.0,0.0,0.0,0.0,0.0,0.0,0.0,0.0,0.0,0.0,0.0,0.0,0.0,0.0,0.0,0.0,0.0,0.0,0.0,0.0,0.0,0.0,0.0,0.0,0.0,0.0,0.0,0.0,0.0,0.0,0.0,0.0,0.0,0.0,0.0,0.0,0.0,0.0,0.0,0.0,0.0,0.0,0.0,0.0,0.0,0.0,0.0,0.0,0.0,0.0,0.0,0.0,0.0,0.0,0.0,0.0,0.0,0.0,0.0,0.0,0.0,0.0,0.0,0.0,0.0,-1.0053,-1.0039,-1.0003,-0.9976,-0.9948,0.0,0.0,0.0,0.0,0.0,0.0,0.0,0.0,0.0,0.0,0.0,0.0,0.0,0.0,0.0,0.0,0.0,0.0,0.0,0.0,0.0,0.0,0.0,0.0,0.0,0.0,0.0,0.0,0.0,0.0,0.0,0.0,0.0,0.0,0.0,0.0,0.0,0.0,0.0,0.0,0.0,0.0,0.0,0.0,0.0,0.0,0.0,0.0,0.0,0.0,0.0,0.0,0.0,0.0,0.0,0.0,0.0,0.0,0.0,0.0,0.0,0.0,0.0,0.0,0.0,0.0,0.0,0.0,0.0,0.0,0.0,0.0,0.0,0.0,0.0,0.0,0.0,0.0,0.0,0.0,0.0,0.0,0.0,0.0,0.0,0.0,0.0,0.0,0.0,0.0,0.0,0.0,0.0,0.0,0.0,0.0,0.0,0.0,0.0,0.0,0.0,0.0,0.0,0.0,0.0,0.0,0.0,0.0,0.0,0.0,0.0,0.0,-1.0605,-1.0589,-1.0567,0.0,0.0,0.0,0.0,0.0,0.0,0.0,0.0,0.0,0.0,0.0,0.0,0.0,0.0,0.0,0.0,0.0,0.0,0.0,0.0,0.0,0.0,0.0,0.0,0.0,0.0,0.0,0.0,0.0,0.0,0.0,0.0,0.0,0.0,0.0,0.0,0.0,0.0,0.0,0.0,0.0,0.0,0.0,0.0,0.0,0.0,0.0,0.0,0.0,0.0,0.0,0.0,0.0,0.0,0.0,0.0,0.0,0.0,0.0,0.0,0.0,0.0,0.0,0.0,0.0,0.0,0.0,0.0,0.0,0.0,0.0,0.0,0.0,0.0,0.0,0.0,0.0,0.0,0.0,0.0,0.0,0.0,0.0,0.0,0.0,0.0,0.0,0.0,0.0,0.0,0.0,0.0,0.0,0.0,0.0,0.0,0.0,0.0,0.0,0.0,0.0,0.0,0.0,0.0,0.0,0.0,0.0,0.0,0.0,0.0,-1.0818,-1.2317,-1.2355,0.0,-1.2267,0.0,0.0,0.0,0.0,0.0,0.0,0.0,0.0,0.0,0.0,0.0,0.0,0.0,0.0,0.0,0.0,0.0,0.0,0.0,0.0,0.0,0.0,0.0,0.0,0.0,0.0,0.0,0.0,0.0,0.0,0.0,0.0,0.0,0.0,0.0,0.0,0.0,0.0,0.0,0.0,0.0,0.0,0.0,0.0,0.0,0.0,0.0,0.0,0.0,0.0,0.0,0.0,0.0,0.0,0.0,0.0,0.0,0.0,0.0,0.0,0.0,0.0,0.0,0.0,0.0,0.0,0.0,0.0,0.0,0.0,0.0,0.0,0.0,0.0,0.0,0.0,0.0,0.0,0.0,0.0,0.0,0.0,0.0,0.0,0.0,0.0,0.0,0.0,0.0,0.0,0.0,0.0,0.0,0.0,0.0,0.0,0.0,0.0,0.0,0.0,0.0,0.0,0.0,0.0,0.0,0.0,0.0,0.0,0.0,0.0,0.0,-1.2646,-1.2656,-1.2632,0.0,0.0,0.0,0.0,0.0,0.0,0.0,0.0,0.0,0.0,0.0,0.0,0.0,0.0,0.0,0.0,0.0,0.0,0.0,0.0,0.0,0.0,0.0,0.0,0.0,0.0,0.0,0.0,0.0,0.0,0.0,0.0,0.0,0.0,0.0,0.0,0.0,0.0,0.0,0.0,0.0,0.0,0.0,0.0,0.0,0.0,0.0,0.0,0.0,0.0,0.0,0.0,0.0,0.0,0.0,0.0,0.0,0.0,0.0,0.0,0.0,0.0,0.0,0.0,0.0,0.0,0.0,0.0,0.0,0.0,0.0,0.0,0.0,0.0,0.0,0.0,0.0,0.0,0.0,0.0,0.0,0.0,0.0,0.0,0.0,0.0,0.0,0.0,0.0,0.0,0.0,0.0,0.0,0.0,0.0,0.0,0.0,0.0,0.0,0.0,0.0,0.0,0.0,0.0,0.0,0.0,0.0,0.0,0.0,0.0,-1.2242,0.0,-1.3343,-1.3171,-1.293,-1.2642,0.0,0.0,0.0,0.0,0.0,0.0,0.0,0.0,0.0,0.0,0.0,0.0,0.0,0.0,0.0,0.0,0.0,0.0,0.0,0.0,0.0,0.0,0.0,0.0,0.0,0.0,0.0,0.0,0.0,0.0,0.0,0.0,0.0,0.0,0.0,0.0,0.0,0.0,0.0,0.0,0.0,0.0,0.0,0.0,0.0,0.0,0.0,0.0,0.0,0.0,0.0,0.0,0.0,0.0,0.0,0.0,0.0,0.0,0.0,0.0,0.0,0.0,0.0,0.0,0.0,0.0,0.0,0.0,0.0,0.0,0.0,0.0,0.0,0.0,0.0,0.0,0.0,0.0,0.0,0.0,0.0,0.0,0.0,0.0,0.0,0.0,0.0,0.0,0.0,0.0,0.0,0.0,0.0,0.0,0.0,0.0,0.0,0.0,0.0,0.0,0.0,0.0,0.0,0.0,0.0,0.0,0.0,0.0,0.0,-1.3457,-1.3474,-1.5009,-1.4342,-1.3552,0.0,0.0,0.0,0.0,0.0,0.0,0.0,0.0,0.0,0.0,0.0,0.0,0.0,0.0,0.0,0.0,0.0,0.0,0.0,0.0,0.0,0.0,0.0,0.0,0.0,0.0,0.0,0.0,0.0,0.0,0.0,0.0,0.0,0.0,0.0,0.0,0.0,0.0,0.0,0.0,0.0,0.0,0.0,0.0,0.0,0.0,0.0,0.0,0.0,0.0,0.0,0.0,0.0,0.0,0.0,0.0,0.0,0.0,0.0,0.0,0.0,0.0,0.0,0.0,0.0,0.0,0.0,0.0,0.0,0.0,0.0,0.0,0.0,0.0,0.0,0.0,0.0,0.0,0.0,0.0,0.0,0.0,0.0,0.0,0.0,0.0,0.0,0.0,0.0,0.0,0.0,0.0,0.0,0.0,0.0,0.0,0.0,0.0,0.0,0.0,0.0,0.0,0.0,0.0,0.0,0.0,0.0,0.0,0.0,-1.1926,-1.2497,-1.4089,-1.6648,-1.4519,-1.3586,0.0,0.0,0.0,0.0,0.0,0.0,0.0,0.0,0.0,0.0,0.0,0.0,0.0,0.0,0.0,0.0,0.0,0.0,0.0,0.0,0.0,0.0,0.0,0.0,0.0,0.0,0.0,0.0,0.0,0.0,0.0,0.0,0.0,0.0,0.0,0.0,0.0,0.0,0.0,0.0,0.0,0.0,0.0,0.0,0.0,0.0,0.0,0.0,0.0,0.0,0.0,0.0,0.0,0.0,0.0,0.0,0.0,0.0,0.0,0.0,0.0,0.0,0.0,0.0,0.0,0.0,0.0,0.0,0.0,0.0,0.0,0.0,0.0,0.0,0.0,0.0,0.0,0.0,0.0,0.0,0.0,0.0,0.0,0.0,0.0,0.0,0.0,0.0,0.0,0.0,0.0,0.0,0.0,0.0,0.0,0.0,0.0,0.0,0.0,0.0,0.0,0.0,0.0,0.0,0.0,0.0,0.0,0.0,0.0,-1.1879,0.0,-1.5335,0.0,-1.4564,-1.3367,0.0,0.0,0.0,0.0,0.0,0.0,0.0,0.0,0.0,0.0,0.0,0.0,0.0,0.0,0.0,0.0,0.0,0.0,0.0,0.0,0.0,0.0,0.0,0.0,0.0,0.0,0.0,0.0,0.0,0.0,0.0,0.0,0.0,0.0,0.0,0.0,0.0,0.0,0.0,0.0,0.0,0.0,0.0,0.0,0.0,0.0,0.0,0.0,0.0,0.0,0.0,0.0,0.0,0.0,0.0,0.0,0.0,0.0,0.0,0.0,0.0,0.0,0.0,0.0,0.0,0.0,0.0,0.0,0.0,0.0,0.0,0.0,0.0,0.0,0.0,0.0,0.0,0.0,0.0,0.0,0.0,0.0,0.0,0.0,0.0,0.0,0.0,0.0,0.0,0.0,0.0,0.0,0.0,0.0,0.0,0.0,0.0,0.0,0.0,0.0,0.0,0.0,0.0,0.0,0.0,0.0,0.0,0.0,-1.1922,-1.5174,-1.6893,-1.6969,-1.5526,-1.4532,-1.2891,0.0,0.0,0.0,0.0,0.0,0.0,0.0,0.0,0.0,0.0,0.0,0.0,0.0,0.0,0.0,0.0,0.0,0.0,0.0,0.0,0.0,0.0,0.0,0.0,0.0,0.0,0.0,0.0,0.0,0.0,0.0,0.0,0.0,0.0,0.0,0.0,0.0,0.0,0.0,0.0,0.0,0.0,0.0,0.0,0.0,0.0,0.0,0.0,0.0,0.0,0.0,0.0,0.0,0.0,0.0,0.0,0.0,0.0,0.0,0.0,0.0,0.0,0.0,0.0,0.0,0.0,0.0,0.0,0.0,0.0,0.0,0.0,0.0,0.0,0.0,0.0,0.0,0.0,0.0,0.0,0.0,0.0,0.0,0.0,0.0,0.0,0.0,0.0,0.0,0.0,0.0,0.0,0.0,0.0,0.0,0.0,0.0,0.0,0.0,0.0,0.0,0.0,0.0,0.0,0.0,0.0,0.0,0.0,0.0,-1.3681,-1.4735,-1.5925,-1.7018,-1.405,-1.2839,0.0,0.0,0.0,0.0,0.0,0.0,0.0,0.0,0.0,0.0,0.0,0.0,0.0,0.0,0.0,0.0,0.0,0.0,0.0,0.0,0.0,0.0,0.0,0.0,0.0,0.0,0.0,0.0,0.0,0.0,0.0,0.0,0.0,0.0,0.0,0.0,0.0,0.0,0.0,0.0,0.0,0.0,0.0,0.0,0.0,0.0,0.0,0.0,0.0,0.0,0.0,0.0,0.0,0.0,0.0,0.0,0.0,0.0,0.0,0.0,0.0,0.0,0.0,0.0,0.0,0.0,0.0,0.0,0.0,0.0,0.0,0.0,0.0,0.0,0.0,0.0,0.0,0.0,0.0,0.0,0.0,0.0,0.0,0.0,0.0,0.0,0.0,0.0,0.0,0.0,0.0,0.0,0.0,0.0,0.0,0.0,0.0,0.0,0.0,0.0,0.0,0.0,0.0,0.0,0.0,0.0,0.0,0.0,0.0,-1.5342,-1.6084,-1.7138,-1.8465,-1.5243,-1.378,-1.4367,0.0,0.0,0.0,0.0,0.0,0.0,0.0,0.0,0.0,0.0,0.0,0.0,0.0,0.0,0.0,0.0,0.0,0.0,0.0,0.0,0.0,0.0,0.0,0.0,0.0,0.0,0.0,0.0,0.0,0.0,0.0,0.0,0.0,0.0,0.0,0.0,0.0,0.0,0.0,0.0,0.0,0.0,0.0,0.0,0.0,0.0,0.0,0.0,0.0,0.0,0.0,0.0,0.0,0.0,0.0,0.0,0.0,0.0,0.0,0.0,0.0,0.0,0.0,0.0,0.0,0.0,0.0,0.0,0.0,0.0,0.0,0.0,0.0,0.0,0.0,0.0,0.0,0.0,0.0,0.0,0.0,0.0,0.0,0.0,0.0,0.0,0.0,0.0,0.0,0.0,0.0,0.0,0.0,0.0,0.0,0.0,0.0,0.0,0.0,0.0,0.0,0.0,0.0,0.0,0.0,0.0,0.0,0.0,-1.9326,-2.0263,-2.0282,-1.944,-1.7626,-1.5578,0.0,0.0,0.0,0.0,0.0,0.0,0.0,0.0,0.0,0.0,0.0,0.0,0.0,0.0,0.0,0.0,0.0,0.0,0.0,0.0,0.0,0.0,0.0,0.0,0.0,0.0,0.0,0.0,0.0,0.0,0.0,0.0,0.0,0.0,0.0,0.0,0.0,0.0,0.0,0.0,0.0,0.0,0.0,0.0,0.0,0.0,0.0,0.0,0.0,0.0,0.0,0.0,0.0,0.0,0.0,0.0,0.0,0.0,0.0,0.0,0.0,0.0,0.0,0.0,0.0,0.0,0.0,0.0,0.0,0.0,0.0,0.0,0.0,0.0,0.0,0.0,0.0,0.0,0.0,0.0,0.0,0.0,0.0,0.0,0.0,0.0,0.0,0.0,0.0,0.0,0.0,0.0,0.0,0.0,0.0,0.0,0.0,0.0,0.0,0.0,0.0,0.0,0.0,0.0,0.0,0.0,0.0,0.0,0.0,-2.0156,-2.166,-2.2068,-2.1198,-1.8278,-1.6384,0.0,0.0,0.0,0.0,0.0,0.0,0.0,0.0,0.0,0.0,0.0,0.0,0.0,0.0,0.0,0.0,0.0,0.0,0.0,0.0,0.0,0.0,0.0,0.0,0.0,0.0,0.0,0.0,0.0,0.0,0.0,0.0,0.0,0.0,0.0,0.0,0.0,0.0,0.0,0.0,0.0,0.0,0.0,0.0,0.0,0.0,0.0,0.0,0.0,0.0,0.0,0.0,0.0,0.0,0.0,0.0,0.0,0.0,0.0,0.0,0.0,0.0,0.0,0.0,0.0,0.0,0.0,0.0,0.0,0.0,0.0,0.0,0.0,0.0,0.0,0.0,0.0,0.0,0.0,0.0,0.0,0.0,0.0,0.0,0.0,0.0,0.0,0.0,0.0,0.0,0.0,0.0,0.0,0.0,0.0,0.0,0.0,0.0,0.0,0.0,0.0,0.0,0.0,0.0,0.0,0.0,0.0,0.0,-1.97,-2.2088,-2.3474,-2.3806,-2.2984,-2.0292,-1.8319,0.0,0.0,0.0,0.0,0.0,0.0,0.0,0.0,0.0,0.0,0.0,0.0,0.0,0.0,0.0,0.0,0.0,0.0,0.0,0.0,0.0,0.0,0.0,0.0,0.0,0.0,0.0,0.0,0.0,0.0,0.0,0.0,0.0,0.0,0.0,0.0,0.0,0.0,0.0,0.0,0.0,0.0,0.0,0.0,0.0,0.0,0.0,0.0,0.0,0.0,0.0,0.0,0.0,0.0,0.0,0.0,0.0,0.0,0.0,0.0,0.0,0.0,0.0,0.0,0.0,0.0,0.0,0.0,0.0,0.0,0.0,0.0,0.0,0.0,0.0,0.0,0.0,0.0,0.0,0.0,0.0,0.0,0.0,0.0,0.0,0.0,0.0,0.0,0.0,0.0,0.0,0.0,0.0,0.0,0.0,0.0,0.0,0.0,0.0,0.0,0.0,0.0,0.0,0.0,0.0,0.0,0.0,0.0,-2.1081,-2.4167,-2.5205,-2.5309,-2.4531,-2.2841,-2.0707,0.0,0.0,0.0,0.0,0.0,0.0,0.0,0.0,0.0,0.0,0.0,0.0,0.0,0.0,0.0,0.0,0.0,0.0,0.0,0.0,0.0,0.0,0.0,0.0,0.0,0.0,0.0,0.0,0.0,0.0,0.0,0.0,0.0,0.0,0.0,0.0,0.0,0.0,0.0,0.0,0.0,0.0,0.0,0.0,0.0,0.0,0.0,0.0,0.0,0.0,0.0,0.0,0.0,0.0,0.0,0.0,0.0,0.0,0.0,0.0,0.0,0.0,0.0,0.0,0.0,0.0,0.0,0.0,0.0,0.0,0.0,0.0,0.0,0.0,0.0,0.0,0.0,0.0,0.0,0.0,0.0,0.0,0.0,0.0,0.0,0.0,0.0,0.0,0.0,0.0,0.0,0.0,0.0,0.0,0.0,0.0,0.0,0.0,0.0,0.0,0.0,0.0,0.0,0.0,0.0,0.0,0.0,0.0,-2.2004,-2.3359,-2.4842,-2.5535,-2.5333,-2.3693,-2.1587,0.0,0.0,0.0,0.0,0.0,0.0,0.0,0.0,0.0,0.0,0.0,0.0,0.0,0.0,0.0,0.0,0.0,0.0,0.0,0.0,0.0,0.0,0.0,0.0,0.0,0.0,0.0,0.0,0.0,0.0,0.0,0.0,0.0,0.0,0.0,0.0,0.0,0.0,0.0,0.0,0.0,0.0,0.0,0.0,0.0,0.0,0.0,0.0,-1.1164,0.0,0.0,0.0,0.0,0.0,0.0,0.0,0.0,0.0,0.0,0.0,0.0,0.0,0.0,0.0,0.0,0.0,0.0,0.0,0.0,0.0,0.0,0.0,0.0,0.0,0.0,0.0,0.0,0.0,0.0,0.0,0.0,0.0,0.0,0.0,0.0,0.0,0.0,0.0,0.0,0.0,0.0,0.0,0.0,0.0,0.0,0.0,0.0,0.0,0.0,0.0,0.0,0.0,0.0,0.0,0.0,0.0,0.0,0.0,-2.2636,-2.4234,-2.5144,-2.5598,-2.5566,-2.4726,-2.287,0.0,0.0,0.0,0.0,0.0,0.0,0.0,0.0,0.0,0.0,0.0,0.0,0.0,0.0,0.0,0.0,0.0,0.0,0.0,0.0,0.0,0.0,0.0,0.0,0.0,0.0,0.0,0.0,0.0,0.0,0.0,0.0,0.0,0.0,0.0,0.0,0.0,0.0,0.0,0.0,0.0,0.0,0.0,0.0,0.0,0.0,0.0,0.0,0.0,0.0,0.0,0.0,0.0,0.0,0.0,0.0,0.0,0.0,0.0,0.0,0.0,0.0,0.0,0.0,0.0,0.0,0.0,0.0,0.0,0.0,0.0,0.0,0.0,0.0,0.0,0.0,0.0,0.0,0.0,0.0,0.0,0.0,0.0,0.0,0.0,0.0,0.0,0.0,0.0,0.0,0.0,0.0,0.0,0.0,0.0,0.0,0.0,0.0,0.0,0.0,0.0,0.0,0.0,0.0,0.0,0.0,0.0,-2.0698,-2.3024,-2.5473,-2.5605,-2.5612,-2.5601,-2.5613,-2.3995,-2.0619,0.0,0.0,0.0,0.0,0.0,0.0,0.0,0.0,0.0,0.0,0.0,0.0,0.0,0.0,0.0,0.0,0.0,0.0,0.0,0.0,0.0,0.0,0.0,0.0,0.0,0.0,0.0,0.0,0.0,0.0,0.0,0.0,0.0,0.0,0.0,0.0,0.0,0.0,-1.0559,-1.2135,0.0,0.0,0.0,0.0,0.0,0.0,0.0,0.0,-1.2959,0.0,0.0,0.0,0.0,0.0,0.0,0.0,0.0,0.0,0.0,0.0,0.0,0.0,0.0,0.0,0.0,0.0,0.0,0.0,0.0,0.0,0.0,0.0,0.0,0.0,0.0,0.0,0.0,0.0,0.0,0.0,0.0,0.0,0.0,0.0,0.0,0.0,0.0,0.0,0.0,0.0,0.0,0.0,0.0,0.0,0.0,0.0,0.0,0.0,0.0,0.0,0.0,0.0,0.0,0.0,0.0,-2.1108,-2.1588,-2.3036,-2.5531,-2.5606,-2.5609,-2.5598,-2.56,-2.3994,-2.0682,0.0,0.0,0.0,0.0,0.0,0.0,0.0,0.0,0.0,0.0,0.0,0.0,0.0,0.0,0.0,0.0,0.0,0.0,0.0,0.0,0.0,0.0,0.0,0.0,0.0,0.0,0.0,0.0,0.0,0.0,0.0,0.0,0.0,0.0,0.0,0.0,0.0,0.0,0.0,-1.4422,-1.5753,0.0,0.0,0.0,0.0,0.0,0.0,0.0,0.0,-1.3231,0.0,0.0,0.0,0.0,0.0,0.0,0.0,0.0,0.0,0.0,0.0,0.0,0.0,0.0,0.0,0.0,0.0,0.0,0.0,0.0,0.0,0.0,0.0,0.0,0.0,0.0,0.0,0.0,0.0,0.0,0.0,0.0,0.0,0.0,0.0,0.0,0.0,0.0,0.0,0.0,0.0,0.0,0.0,0.0,0.0,0.0,0.0,0.0,0.0,0.0,0.0,0.0,0.0,0.0,0.0,-2.0328,-2.2202,-2.3901,-2.5539,-2.5595,-2.5605,-2.5586,-2.4724,-2.3076,0.0,0.0,0.0,0.0,0.0,0.0,0.0,0.0,0.0,0.0,0.0,0.0,0.0,0.0,0.0,0.0,0.0,0.0,0.0,0.0,0.0,0.0,0.0,0.0,0.0,0.0,0.0,0.0,0.0,0.0,0.0,0.0,0.0,0.0,0.0,0.0,0.0,0.0,0.0,0.0,-1.48,-1.6047,-1.6517,0.0,0.0,0.0,0.0,0.0,0.0,-1.5209,-1.4354,0.0,0.0,0.0,0.0,0.0,0.0,0.0,0.0,0.0,0.0,0.0,0.0,0.0,0.0,0.0,0.0,0.0,0.0,0.0,0.0,0.0,0.0,0.0,0.0,0.0,0.0,0.0,0.0,0.0,0.0,0.0,0.0,0.0,0.0,0.0,0.0,0.0,0.0,0.0,0.0,0.0,0.0,0.0,0.0,0.0,0.0,0.0,0.0,0.0,0.0,0.0,0.0,0.0,0.0,0.0,-1.9498,-2.2483,-2.455,-2.5543,-2.5601,-2.5601,-2.5582,-2.4241,-2.2571,0.0,0.0,0.0,0.0,0.0,0.0,0.0,0.0,0.0,0.0,0.0,0.0,0.0,0.0,0.0,0.0,0.0,0.0,0.0,0.0,0.0,0.0,0.0,0.0,0.0,0.0,0.0,0.0,0.0,0.0,0.0,0.0,0.0,0.0,0.0,0.0,0.0,0.0,0.0,0.0,0.0,-1.6524,-1.7412,-1.7297,0.0,0.0,0.0,0.0,-1.8037,-1.7124,0.0,0.0,0.0,0.0,0.0,0.0,0.0,0.0,0.0,0.0,0.0,0.0,0.0,0.0,0.0,0.0,0.0,0.0,0.0,0.0,0.0,0.0,0.0,0.0,0.0,0.0,0.0,0.0,0.0,0.0,0.0,0.0,0.0,0.0,0.0,0.0,0.0,0.0,0.0,0.0,0.0,0.0,0.0,0.0,0.0,0.0,0.0,0.0,0.0,0.0,0.0,0.0,0.0,0.0,0.0,0.0,-2.028,-2.2191,-2.3955,-2.5504,-2.5601,-2.5601,-2.5601,-2.5407,-2.3795,0.0,0.0,0.0,0.0,0.0,0.0,0.0,0.0,0.0,0.0,0.0,0.0,0.0,0.0,0.0,0.0,0.0,0.0,0.0,0.0,0.0,0.0,0.0,0.0,0.0,0.0,0.0,0.0,0.0,0.0,0.0,0.0,0.0,0.0,0.0,0.0,0.0,0.0,0.0,0.0,0.0,-1.8897,-1.6918,-1.7892,-1.86,0.0,0.0,-1.8916,-1.8959,-1.9439,0.0,0.0,0.0,0.0,0.0,0.0,0.0,0.0,0.0,0.0,0.0,0.0,0.0,0.0,0.0,0.0,0.0,0.0,0.0,0.0,0.0,0.0,0.0,0.0,0.0,0.0,0.0,0.0,0.0,0.0,0.0,0.0,0.0,0.0,0.0,0.0,0.0,0.0,0.0,0.0,0.0,0.0,0.0,0.0,0.0,0.0,0.0,0.0,0.0,0.0,0.0,0.0,0.0,0.0,0.0,-1.8004,-2.0493,-2.3137,-2.4844,-2.5562,-2.5601,-2.5601,-2.5601,-2.4164,-2.2493,0.0,0.0,0.0,0.0,0.0,0.0,0.0,0.0,0.0,0.0,0.0,0.0,0.0,0.0,0.0,0.0,0.0,0.0,0.0,0.0,0.0,0.0,0.0,0.0,0.0,0.0,0.0,0.0,0.0,0.0,0.0,0.0,0.0,0.0,0.0,0.0,0.0,0.0,0.0,0.0,0.0,0.0,-1.9394,-2.0044,0.0,0.0,0.0,-2.0758,-2.1235,0.0,0.0,0.0,0.0,0.0,0.0,0.0,0.0,0.0,0.0,0.0,0.0,0.0,0.0,0.0,0.0,0.0,0.0,0.0,0.0,0.0,0.0,0.0,0.0,0.0,0.0,0.0,0.0,0.0,0.0,0.0,0.0,0.0,0.0,0.0,0.0,0.0,0.0,0.0,0.0,0.0,0.0,0.0,0.0,0.0,0.0,0.0,0.0,0.0,0.0,0.0,0.0,0.0,0.0,0.0,0.0,0.0,-2.0526,-2.3875,-2.5601,-2.5601,-2.5601,-2.5601,-2.5562,-2.3484,0.0,0.0,0.0,0.0,0.0,0.0,0.0,0.0,0.0,0.0,0.0,0.0,0.0,0.0,0.0,0.0,0.0,0.0,0.0,0.0,0.0,0.0,0.0,0.0,0.0,0.0,0.0,-1.0188,0.0,0.0,0.0,0.0,0.0,0.0,0.0,0.0,0.0,0.0,0.0,0.0,0.0,0.0,-2.0096,-2.1434,-2.1803,-2.2178,0.0,0.0,-2.2423,-2.2888,-2.2249,-2.1088,0.0,0.0,0.0,0.0,0.0,0.0,0.0,0.0,0.0,0.0,0.0,0.0,0.0,0.0,0.0,0.0,0.0,0.0,0.0,0.0,0.0,0.0,0.0,0.0,0.0,0.0,0.0,0.0,0.0,0.0,0.0,0.0,0.0,0.0,0.0,0.0,0.0,0.0,0.0,0.0,0.0,0.0,0.0,0.0,0.0,0.0,0.0,0.0,0.0,0.0,0.0,0.0,0.0,0.0,0.0,-2.0551,-2.3875,-2.5601,-2.5601,-2.5601,-2.5601,-2.5582,-2.4624,-2.2974,0.0,0.0,0.0,0.0,0.0,0.0,0.0,0.0,0.0,0.0,0.0,0.0,0.0,0.0,0.0,0.0,0.0,0.0,0.0,0.0,0.0,0.0,0.0,0.0,0.0,0.0,0.0,0.0,0.0,0.0,0.0,0.0,0.0,0.0,0.0,0.0,0.0,0.0,0.0,0.0,0.0,-2.1361,-2.1643,-2.232,-2.2869,0.0,0.0,-2.3767,-2.3023,-2.4164,-2.379,-1.9767,0.0,0.0,0.0,0.0,0.0,0.0,0.0,0.0,0.0,0.0,0.0,0.0,0.0,0.0,0.0,0.0,0.0,0.0,0.0,0.0,0.0,0.0,0.0,0.0,0.0,0.0,0.0,0.0,0.0,0.0,0.0,0.0,0.0,0.0,0.0,0.0,0.0,0.0,0.0,0.0,0.0,0.0,0.0,0.0,0.0,0.0,0.0,0.0,0.0,0.0,0.0,0.0,0.0,-1.8761,-2.0507,-2.3875,-2.5601,-2.5601,-2.5601,-2.5601,-2.5601,-2.4766,-2.3323,0.0,0.0,0.0,0.0,0.0,0.0,0.0,0.0,0.0,0.0,0.0,0.0,0.0,0.0,0.0,0.0,0.0,0.0,0.0,0.0,0.0,0.0,0.0,0.0,0.0,0.0,0.0,0.0,-1.0172,-1.0166,-1.0128,0.0,0.0,0.0,0.0,0.0,0.0,0.0,0.0,0.0,0.0,-2.2547,-2.3153,-2.3927,0.0,0.0,-2.4786,-2.4842,-2.4539,-2.4164,-2.3171,-2.1043,-2.0076,0.0,0.0,0.0,0.0,0.0,0.0,0.0,0.0,0.0,0.0,0.0,0.0,0.0,0.0,0.0,0.0,0.0,0.0,0.0,0.0,0.0,0.0,0.0,0.0,0.0,0.0,0.0,0.0,0.0,0.0,0.0,0.0,0.0,0.0,0.0,0.0,0.0,0.0,0.0,0.0,0.0,0.0,0.0,0.0,0.0,0.0,0.0,0.0,0.0,0.0,0.0,0.0,-1.8765,-2.0507,-2.3875,-2.5601,-2.5601,-2.5601,-2.5601,-2.5582,-2.4746,-2.3498,0.0,0.0,0.0,0.0,0.0,0.0,0.0,0.0,0.0,0.0,0.0,0.0,0.0,0.0,0.0,0.0,0.0,0.0,0.0,0.0,0.0,0.0,0.0,0.0,0.0,0.0,0.0,0.0,-1.019,-1.0183,-1.0128,0.0,0.0,0.0,0.0,0.0,0.0,0.0,0.0,0.0,0.0,-2.3617,-2.4484,-2.5091,-2.549,-2.5564,-2.5503,-2.5445,-2.5488,-2.4455,-2.3306,-2.2249,0.0,0.0,0.0,0.0,0.0,0.0,0.0,0.0,0.0,0.0,0.0,0.0,0.0,0.0,0.0,0.0,0.0,0.0,0.0,0.0,0.0,0.0,0.0,0.0,0.0,0.0,0.0,-1.1482,0.0,0.0,-1.0273,0.0,0.0,0.0,0.0,0.0,0.0,0.0,0.0,0.0,0.0,0.0,0.0,0.0,0.0,0.0,0.0,0.0,0.0,0.0,0.0,0.0,0.0,-1.878,-2.0512,-2.3875,-2.5601,-2.5601,-2.5601,-2.5601,-2.5582,-2.4766,-2.3478,-2.1716,0.0,0.0,0.0,0.0,0.0,0.0,0.0,0.0,0.0,0.0,0.0,0.0,0.0,0.0,0.0,0.0,0.0,0.0,0.0,0.0,0.0,0.0,0.0,0.0,0.0,0.0,-1.0194,-1.0188,-1.0207,0.0,0.0,0.0,0.0,0.0,0.0,0.0,0.0,0.0,0.0,-2.3657,-2.4503,-2.542,-2.5589,-2.557,-2.5518,-2.5517,-2.5488,-2.5519,-2.5434,-2.4873,0.0,0.0,0.0,0.0,0.0,0.0,0.0,0.0,0.0,0.0,0.0,0.0,0.0,0.0,0.0,0.0,0.0,0.0,0.0,0.0,0.0,0.0,0.0,0.0,0.0,0.0,0.0,-1.4843,-1.4063,0.0,0.0,0.0,0.0,0.0,0.0,0.0,0.0,0.0,0.0,0.0,-2.09,-2.1755,0.0,0.0,0.0,0.0,0.0,0.0,0.0,0.0,0.0,0.0,0.0,0.0,-1.96,-2.1338,-2.4127,-2.5601,-2.5601,-2.5601,-2.5601,-2.5601,-2.5329,-2.3828,-2.0978,0.0,0.0,0.0,0.0,0.0,0.0,0.0,0.0,0.0,0.0,0.0,0.0,0.0,0.0,0.0,0.0,0.0,0.0,0.0,0.0,0.0,0.0,0.0,0.0,0.0,-1.0194,0.0,0.0,0.0,0.0,0.0,0.0,0.0,0.0,0.0,0.0,0.0,-2.2533,-2.3708,-2.4587,-2.5253,-2.5556,-2.5595,-2.5589,0.0,0.0,0.0,0.0,0.0,0.0,0.0,0.0,0.0,0.0,0.0,0.0,0.0,0.0,-2.2223,-1.849,-1.737,-1.7283,-1.8109,0.0,0.0,0.0,0.0,0.0,0.0,0.0,0.0,0.0,0.0,0.0,0.0,0.0,0.0,-1.7618,-1.7113,-1.6802,0.0,0.0,0.0,0.0,0.0,0.0,0.0,0.0,-2.2474,-2.3659,-2.3945,-2.4513,-2.4339,0.0,-2.2396,-2.0551,0.0,0.0,0.0,0.0,0.0,0.0,0.0,0.0,-2.0478,-2.2183,-2.4424,-2.5601,-2.5601,-2.5601,-2.5601,-2.5601,-2.531,-2.3958,-2.1457,-2.0541,-1.8619,0.0,0.0,0.0,0.0,0.0,0.0,0.0,0.0,0.0,0.0,0.0,0.0,0.0,0.0,0.0,0.0,0.0,0.0,0.0,0.0,0.0,0.0,0.0,-1.1072,0.0,0.0,0.0,0.0,0.0,0.0,0.0,0.0,0.0,-2.0762,-2.2377,-2.3772,-2.4638,-2.5226,-2.5601,-2.5601,0.0,0.0,0.0,0.0,0.0,0.0,0.0,-2.5117,-2.513,-2.4904,-2.4541,-2.4005,-2.4358,-2.4655,-2.4358,0.0,0.0,-2.1133,-2.0088,-1.997,-2.0759,-2.0485,-2.034,-2.114,-2.1314,-2.1295,0.0,0.0,0.0,0.0,0.0,0.0,0.0,0.0,-2.076,-2.0721,0.0,-1.9754,0.0,0.0,0.0,0.0,-1.822,-2.0648,0.0,0.0,-2.6067,-2.733,-2.8003,-2.8003,-2.766,-2.6961,-2.6825,-2.5523,-2.3037,-1.9871,0.0,0.0,0.0,0.0,0.0,0.0,-2.139,-2.3029,-2.4715,-2.5601,-2.5601,-2.5601,-2.5601,-2.5582,-2.4799,-2.3958,-2.3068,-2.223,-2.0614,-1.8126,-1.7163,0.0,0.0,0.0,0.0,0.0,0.0,0.0,0.0,0.0,0.0,0.0,0.0,0.0,0.0,0.0,0.0,0.0,0.0,0.0,0.0,-1.2235,0.0,0.0,0.0,0.0,0.0,0.0,0.0,0.0,0.0,0.0,-2.1978,-2.3304,-2.4644,-2.5485,0.0,0.0,0.0,0.0,-2.5704,-2.5732,-2.5626,-2.5924,-2.6793,-2.6865,-2.6851,-2.6928,0.0,0.0,-2.595,-2.5679,-2.5453,-2.4628,-2.5239,-2.5688,-2.5607,-2.4161,-2.3359,-2.4029,-2.2989,-2.2281,-2.2862,-2.3063,-2.3075,-2.6572,0.0,0.0,0.0,0.0,-2.4397,-2.4844,-2.5886,-2.531,-2.4708,-2.4086,-2.3207,0.0,0.0,0.0,0.0,0.0,0.0,-2.5096,-2.6203,-2.7272,-2.7874,-2.81,-2.81,-2.7984,-2.7751,-2.7757,-2.7369,-2.6605,-2.5653,-2.2901,-1.8554,0.0,0.0,0.0,0.0,-2.2838,-2.3914,-2.5032,-2.5601,-2.5601,-2.5601,-2.5601,-2.5601,-2.5368,-2.4818,-2.3952,-2.3686,-2.2633,-2.0684,-1.9236,0.0,0.0,0.0,0.0,0.0,0.0,0.0,0.0,0.0,0.0,0.0,0.0,0.0,0.0,0.0,0.0,0.0,0.0,0.0,-1.2323,-1.318,-1.394,0.0,0.0,0.0,0.0,0.0,0.0,0.0,0.0,0.0,-2.4449,-2.4902,-2.531,0.0,0.0,-2.6514,-2.6533,-2.7059,-2.7464,-2.7437,-2.743,0.0,-2.7774,-2.7813,-2.7807,-2.7835,-2.8042,-2.8024,-2.7556,-2.7488,-2.7437,-2.7165,-2.7357,-2.753,-2.7425,-2.6133,-2.5117,-2.5167,-2.4849,-2.464,-2.4806,-2.4861,-2.4846,-3.0515,-2.8592,-2.7913,-2.7932,-2.834,-2.7854,-2.8185,-2.9097,-2.8612,-2.8301,-2.8068,-2.6864,-2.5731,-2.4708,-2.3867,0.0,0.0,0.0,-2.7913,-2.8437,-2.8903,-2.9136,-2.9136,-2.9117,-2.8961,-2.8625,-2.8612,-2.843,-2.81,-2.81,-2.6145,-2.2377,0.0,0.0,-2.2046,-2.3003,-2.4119,-2.5272,-2.5498,-2.5757,-2.6087,-2.5776,-2.5601,-2.5601,-2.5601,-2.5349,-2.4838,-2.4818,-2.4172,-2.2771,-2.1124,-1.9249,0.0,0.0,0.0,0.0,0.0,0.0,0.0,0.0,0.0,0.0,0.0,-1.2357,-1.1324,0.0,0.0,0.0,-1.282,-1.3869,-1.4746,-1.5908,0.0,0.0,0.0,0.0,0.0,0.0,0.0,-2.3562,-2.496,-2.6003,-2.6514,-2.6592,-2.6611,-2.6592,-2.7062,-2.7409,-2.7409,0.0,-2.82,-2.8225,-2.8216,-2.8332,-2.8701,-2.8725,-2.8831,-2.9218,-2.8665,-2.8413,-2.871,-2.852,-2.8301,-2.8281,-2.8294,-2.8298,-2.8298,-2.741,-2.6723,-2.6671,-2.6421,-2.6209,-2.6173,-2.5896,-2.564,-3.372,-3.3565,-3.1972,-3.1156,-3.0904,-3.0904,-3.0904,-3.0904,-3.0884,-3.1351,-3.1972,-3.0341,-2.9564,-2.9447,-2.8741,0.0,-2.8489,-3.0146,-3.0884,-3.0904,-3.0904,-3.0904,-3.0904,-3.0904,-3.0457,-2.9622,-2.9602,-2.9156,-2.8353,-2.8333,-2.7893,-2.7077,-2.63,-2.5432,-2.4549,-2.4572,-2.5401,-2.6942,-2.6197,-2.6164,-2.6864,-2.6048,-2.5601,-2.5601,-2.5601,-2.5601,-2.5601,-2.5601,-2.5226,-2.4405,-2.274,-2.0701,-1.8313,0.0,0.0,0.0,0.0,0.0,0.0,0.0,0.0,0.0,0.0,0.0,0.0,0.0,0.0,0.0,-1.5753,0.0,-1.8006,-1.9536,0.0,0.0,0.0,-2.1561,-2.3231,-2.4125,-2.5226,-2.6805,0.0,0.0,-2.8217,-2.8262,-2.8307,-2.8307,-2.8301,-2.8314,-2.8299,-2.8413,-2.8411,-2.8591,-2.8485,-2.8758,-2.957,-2.9652,-2.9858,-3.0547,-2.9551,-2.8926,-2.9492,-2.9141,-2.8574,-2.8613,-2.8516,-2.8535,-2.8535,-2.8555,-2.8496,-2.8496,-2.7734,-2.709,-2.707,-2.6543,-2.6094,-3.7197,-3.7159,-3.6731,-3.5061,-3.2691,-3.2691,-3.2691,-3.2691,-3.2672,-3.2807,-3.2905,-3.1848,-3.102,-3.0418,-3.0884,-3.1072,-3.113,-3.2186,-3.2691,-3.2672,-3.2691,-3.2691,-3.2691,-3.2672,-3.2225,-3.1428,-3.139,-3.0923,-3.0108,-3.0069,-2.9641,-2.8826,-2.8592,-2.777,-2.6373,-2.6895,-2.7401,-2.7828,-2.7615,-2.731,-2.6883,-2.6048,-2.5601,-2.5601,-2.5601,-2.5601,-2.5601,-2.5601,-2.5504,-2.5265,-2.362,-2.2105,-2.0823,-1.7754,0.0,0.0,0.0,0.0,0.0,0.0,0.0,0.0,0.0,-1.5578,-1.3001,0.0,-1.6511,0.0,-1.6977,-1.82,-1.973,-2.0255,0.0,0.0,-2.3983,-2.5051,-2.6689,-2.7071,-2.7362,-2.7757,-2.8554,-2.9078,-2.9097,-2.9666,-3.0083,-3.0083,-2.9572,-2.9184,-2.9213,-2.9779,-3.0194,-3.0155,-3.0156,-3.0329,-3.0499,-3.0581,-3.0625,-3.0859,-3.0527,-3.0371,-3.0566,-3.043,-3.0293,-3.0273,-3.0293,-3.0293,-3.0234,-3.0293,-3.0254,-3.0176,-2.9062,-2.7988,-2.7988,-2.7812,-2.7676,-3.8382,-3.8382,-3.8382,-3.7294,-3.5546,-3.5158,-3.4769,-3.442,-3.442,-3.44,-3.4342,-3.3487,-3.2652,-3.1933,-3.273,-3.3118,-3.3177,-3.4031,-3.4187,-3.3837,-3.3837,-3.3643,-3.3293,-3.3293,-3.3041,-3.2594,-3.2574,-3.2128,-3.1312,-3.1292,-3.0826,-2.9991,-2.9972,-2.9512,-2.8618,-2.8269,-2.8275,-2.8663,-2.8683,-2.8087,-2.6941,-2.6417,-2.6009,-2.5621,-2.5601,-2.5601,-2.5601,-2.5601,-2.5426,-2.5024,-2.3722,-2.261,-2.1692,-1.9215,-1.735,0.0,0.0,0.0,0.0,0.0,0.0,0.0,0.0,0.0,0.0,0.0,-1.8453,-1.8356,-1.9793,-2.1308,-2.2649,-2.344,-2.4469,-2.5848,-2.6411,-2.7226,-2.8534,-2.8683,-2.8845,-2.9214,-2.9687,-2.9977,-2.9997,-3.0414,-3.0898,-3.1243,-3.0955,-3.0511,-3.0191,-3.0508,-3.0818,-3.0838,-3.0873,-3.0907,-3.0911,-3.0912,-3.0914,-3.0918,-3.0918,-3.0918,-3.0918,-3.0918,-3.0918,-3.0918,-3.0918,-3.0918,-3.0918,-3.0918,-3.0918,-3.0781,-3.0137,-2.9394,-2.8965,-2.8574,-2.8281,-3.873,-3.8712,-3.8732,-3.8674,-3.8499,-3.7741,-3.6945,-3.6129,-3.6148,-3.6129,-3.611,-3.5333,-3.4556,-3.3856,-3.4517,-3.4769,-3.4711,-3.5449,-3.5391,-3.4672,-3.4672,-3.4284,-3.3623,-3.3623,-3.3565,-3.3448,-3.3448,-3.3021,-3.2178,-3.2159,-3.172,-3.0904,-3.0865,-3.0807,-3.0632,-2.9195,-2.8819,-2.9537,-2.946,-2.869,-2.7252,-2.7031,-2.6526,-2.5807,-2.5657,-2.5599,-2.5601,-2.5613,-2.5254,-2.4487,-2.3646,-2.2824,-2.2046,-2.0437,-1.9469,0.0,-1.8551,0.0,0.0,0.0,0.0,0.0,0.0,0.0,0.0,-2.0201,-2.0395,-2.125,-2.342,-2.511,-2.5854,-2.7233,-2.8139,-2.8236,-2.8275,-2.8612,-2.9434,-2.9557,-2.9855,-3.062,-3.0803,-3.0871,-3.0891,-3.1003,-3.1457,-3.2109,-3.2226,-3.1953,-3.1327,-3.1223,-3.1292,-3.1211,-3.1114,-3.1198,-3.1307,-3.1211,-3.1113,-3.1094,-3.1133,-3.1016,-3.0918,-3.0918,-3.0918,-3.0918,-3.0918,-3.0918,-3.0918,-3.0918,-3.0918,-3.0898,-3.082,-3.0547,-2.9922,-2.9258,-2.8652,-4.047,-4.0441,-4.0422,-4.0053,-3.9431,-3.9276,-3.8712,-3.7916,-3.7897,-3.7897,-3.7897,-3.7741,-3.7197,-3.642,-3.6537,-3.6226,-3.5566,-3.5741,-3.5702,-3.5566,-3.5546,-3.5488,-3.5333,-3.5333,-3.4964,-3.4303,-3.4264,-3.3856,-3.306,-3.3041,-3.2613,-3.1778,-3.1778,-3.1409,-3.071,0.0,0.0,0.0,-2.9758,-2.9253,-2.8884,-2.759,-2.6836,-2.6641,-2.597,0.0,-2.5607,-2.56,-2.5519,-2.5342,-2.4511,0.0,0.0,0.0,0.0,0.0,0.0,0.0,0.0,0.0,0.0,0.0,-2.1391,-2.0733,-2.0593,-2.2887,-2.4746,-2.5621,-2.6728,-2.744,-2.7615,-2.7887,-2.8392,-2.9059,-2.9156,-2.9486,-3.0331,-3.0477,-3.055,-3.0762,-3.1396,-3.185,-3.1853,-3.2436,-3.2949,-3.3105,-3.3159,-3.3073,-3.2955,-3.2853,-3.2887,-3.289,-3.2304,-3.2155,-3.2809,-3.2304,-3.1914,-3.1934,-3.1953,-3.1699,-3.1133,-3.0976,-3.0937,-3.0976,-3.0918,-3.0957,-3.0937,-3.0918,-3.0957,-3.0918,-3.0918,-3.084,-3.0684,-3.0527,-3.041,-4.0945,-4.0888,-4.0941,-4.0699,0.0,-4.0286,-4.0053,-3.9587,-3.8751,-3.8382,-3.8382,-3.8382,-3.8149,-3.7741,-3.7741,-3.7256,-3.6459,-3.644,-3.6207,-3.581,-3.5791,-3.5791,-3.5791,-3.5791,-3.5585,-3.5158,-3.5138,-3.473,-3.3934,-3.3876,-3.3468,-3.2633,-3.2225,-3.1778,-3.1345,-3.0917,-3.0695,-3.0703,-3.0275,-2.9839,-2.9444,-2.8626,-2.7777,-2.6916,-2.6481,0.0,0.0,0.0,0.0,0.0,0.0,0.0,0.0,0.0,0.0,-2.2999,-2.2609,-2.2357,-2.2357,-2.2337,-2.2922,-2.4207,-2.4331,-2.3952,-2.3093,-2.5396,-2.7054,-2.7446,-2.8243,-2.8741,-2.8796,-2.9146,-2.9585,-3.0039,-3.0083,-3.0447,-3.1207,-3.1402,-3.1568,-3.1992,-3.2434,-3.2751,-3.2751,-3.3085,-3.3589,-3.3958,-3.4029,-3.4198,-3.451,-3.3925,-3.3398,-3.3378,-3.3085,-3.2892,-3.3272,-3.3086,-3.2754,-3.2793,-3.2793,-3.2617,-3.2207,-3.2129,-3.2129,-3.2129,-3.2129,-3.2031,-3.1621,-3.1543,-3.1406,-3.1016,-3.0918,-3.0918,-3.0918,-3.0918,-3.0918,-4.0953,-4.0917,-4.0979,-4.0953,-4.0888,-4.0926,-4.0926,-4.0791,-3.9431,0.0,0.0,-3.8848,-3.876,-3.8633,-3.8652,-3.8166,-3.7358,-3.7339,-3.6969,-3.6254,-3.6098,-3.6021,-3.6012,-3.5868,-3.5791,-3.5791,-3.5791,-3.543,-3.475,-3.473,-3.4311,-3.3529,-3.279,-3.2311,-3.1987,-3.1304,-3.0876,-3.0728,-3.072,-3.0384,-2.975,-2.9578,-2.8818,-2.7391,-2.7062,-2.6576,-2.5892,-2.5707,-2.5315,-2.4661,-2.4627,-2.4628,-2.4624,-2.4644,-2.4935,-2.556,-2.5619,-2.5599,-2.5619,-2.5619,-2.5677,-2.5834,-2.6796,-2.7066,-2.6341,-2.7608,-2.847,-2.8571,-2.9226,-2.9683,-2.9725,-3.031,-3.081,-3.0994,-3.1036,-3.137,-3.2176,-3.2334,-3.257,-3.3178,-3.3476,-3.3631,-3.3651,-3.3818,-3.41,-3.4744,-3.492,-3.5154,-3.5623,-3.4822,-3.4019,-3.4019,-3.3846,-3.369,-3.3829,-3.3704,-3.3652,-3.3633,-3.3633,-3.3594,-3.3437,-3.3379,-3.3379,-3.3242,-3.3379,-3.3086,-3.2559,-3.2402,-3.2168,-3.1465,-3.123,-3.1133,-3.1113,-3.0996,-3.0918,-4.0972,-4.0897,-4.0979,-4.0945,-4.0897,-4.0953,-4.0957,-4.0869,-4.0655,-4.0538,-4.0538,-4.0538,-4.0168,-3.9509,-3.9509,-3.9077,-3.8318,-3.8318,-3.8202,-3.7999,-3.7272,-3.6907,-3.6887,-3.6148,-3.5791,-3.5791,-3.5791,-3.5741,-3.5643,-3.5605,-3.5208,-3.4489,-3.43,-3.3507,-3.2199,-3.1963,-3.1521,-3.0799,-3.0786,-3.0738,-3.0606,-2.9899,-2.9394,-2.9101,-2.7732,-2.6926,-2.6789,-2.6087,-2.5619,-2.5519,-2.5537,-2.5517,-2.5519,-2.552,-2.5577,-2.5675,-2.5696,-2.5696,-2.5714,-2.5696,-2.6007,-2.6809,-2.8291,-2.9139,-2.899,-2.917,-2.9617,-3.0323,-3.0492,-3.0596,-3.0621,-3.0755,-3.117,-3.1801,-3.1919,-3.2256,-3.3105,-3.3223,-3.33,-3.3488,-3.4068,-3.4517,-3.4576,-3.5118,-3.5522,-3.5759,-3.5681,-3.5837,-3.5896,-3.5798,-3.5642,-3.5545,-3.4998,-3.4901,-3.5193,-3.4962,-3.4582,-3.4512,-3.4531,-3.4297,-3.3711,-3.3613,-3.3613,-3.3457,-3.3574,-3.3457,-3.3242,-3.3223,-3.3105,-3.2871,-3.2402,-3.2031,-3.1992,-3.1484,-3.0976,-4.1688,-4.1602,-4.1222,-4.1031,-4.0947,-4.0994,-4.0989,-4.0967,-4.0947,-4.0921,-4.0888,-4.0888,-4.0684,-4.0352,-4.0352,-3.9902,-3.9147,-3.9147,-3.8879,-3.8377,-3.7988,-3.7553,-3.71,-3.6673,-3.627,-3.5878,-3.5866,-3.5859,-3.585,-3.5855,-3.5671,-3.5284,-3.4839,-3.3997,-3.2884,-3.2792,-3.2382,-3.1519,-3.1054,-3.0799,-3.0801,-3.0407,-2.9994,-2.9566,-2.8758,-2.8168,-2.7719,-2.6861,-2.6392,-2.6412,-2.5941,-2.5922,-2.6373,-2.6412,-2.6412,-2.641,-2.6859,-2.6898,-2.6429,-2.6839,-2.7483,-2.8344,-2.9144,-2.9794,-3.0194,-3.0215,-3.0387,-3.0784,-3.1211,-3.1511,-3.1519,-3.193,-3.2382,-3.2754,-3.2812,-3.3162,-3.3921,-3.4095,-3.4306,-3.4744,-3.5154,-3.5408,-3.5408,-3.5759,-3.5991,-3.601,-3.601,-3.601,-3.601,-3.601,-3.601,-3.5971,-3.5662,-3.5584,-3.5913,-3.5701,-3.5433,-3.5421,-3.5409,-3.5254,-3.4863,-3.4805,-3.4785,-3.4805,-3.4785,-3.4609,-3.4258,-3.4121,-3.3926,-3.3418,-3.3164,-3.2871,-3.2754,-3.2187,-3.1504,-4.2571,-4.2519,-4.1917,-4.1538,-4.1314,-4.1091,-4.0991,-4.0991,-4.0994,-4.0959,-4.0926,-4.091,-4.0918,-4.0953,-4.0945,-4.0602,-4.0071,-4.0006,-3.9636,-3.9013,-3.8792,-3.8337,-3.7695,-3.7338,-3.68,-3.6216,-3.6007,-3.5888,-3.5893,-3.5893,-3.5899,-3.5825,-3.5227,-3.449,-3.3691,-3.3691,-3.3276,-3.2385,-3.1538,-3.0991,-3.0801,-3.0801,-3.0509,-2.9923,-2.9672,-2.9281,-2.8598,-2.7759,-2.7288,-2.727,-2.6644,-2.6585,-2.7251,-2.729,-2.729,-2.7347,-2.7932,-2.801,-2.7425,-2.8088,-2.8869,-2.9533,-2.9767,-3.0138,-3.0704,-3.0795,-3.0801,-3.0875,-3.1578,-3.2089,-3.2148,-3.2831,-3.3471,-3.3654,-3.369,-3.4064,-3.4822,-3.4998,-3.5213,-3.5893,-3.601,-3.5991,-3.601,-3.601,-3.601,-3.601,-3.601,-3.601,-3.601,-3.601,-3.601,-3.601,-3.601,-3.5971,-3.601,-3.5991,-3.5955,-3.6013,-3.5989,-3.5898,-3.5859,-3.5937,-3.5976,-3.5879,-3.5918,-3.5644,-3.5117,-3.5,-3.4766,-3.4258,-3.3945,-3.3633,-3.332,-3.291,-3.2207,-4.3374,-4.3393,-4.3329,-4.2941,-4.2167,-4.1375,-4.1013,-4.0994,-4.098,-4.098,-4.0994,-4.0984,-4.1013,-4.1066,-4.1082,-4.1009,-4.0937,-4.0957,-4.0857,-4.0641,-3.9992,-3.9576,-3.9237,-3.7904,-3.7142,-3.695,-3.6284,-3.5893,-3.5899,-3.5916,-3.5888,-3.5898,-3.5872,-3.5435,-3.4691,-3.4574,-3.4161,-3.33,-3.2424,-3.1585,-3.0841,-3.0801,-3.0762,-3.0684,-2.9982,-2.9572,-2.9452,-2.8652,-2.8186,-2.8166,-2.8069,-2.8088,-2.8166,-2.8186,-2.8186,-2.8186,-2.8283,-2.8244,-2.8244,-2.8986,-2.9533,-2.965,-3.0274,-3.0684,-3.0801,-3.0784,-3.0786,-3.0966,-3.161,-3.2118,-3.2172,-3.2973,-3.3851,-3.4513,-3.4588,-3.492,-3.5642,-3.5874,-3.5916,-3.5971,-3.601,-3.601,-3.601,-3.601,-3.601,-3.601,-3.601,-3.601,-3.601,-3.601,-3.601,-3.601,-3.601,-3.601,-3.601,-3.601,-3.601,-3.6013,-3.6021,-3.6009,-3.6011,-3.6011,-3.6012,-3.6016,-3.6016,-3.5918,-3.5879,-3.5879,-3.5801,-3.541,-3.4941,-3.4375,-3.3672,-3.3379,-3.3008,-4.4319,-4.4273,-4.3844,-4.3161,-4.2375,-4.1969,-4.154,-4.1071,-4.1048,-4.1066,-4.1066,-4.1048,-4.1054,-4.1051,-4.1029,-4.1033,-4.1054,-4.1053,-4.1033,-4.0974,-4.0659,-4.0228,-3.9603,-3.8487,-3.7689,-3.7147,-3.6327,-3.5918,-3.5957,-3.5956,-3.5955,-3.5968,-3.5977,-3.5818,-3.5506,-3.5467,-3.5037,-3.4195,-3.33,-3.2441,-3.1621,-3.1055,-3.0801,-3.0762,-3.0489,-3.0313,-3.0233,-2.9511,-2.9064,-2.9025,-2.8574,-2.8535,-2.9045,-2.9084,-2.9084,-2.9064,-2.9064,-2.9298,-2.9747,-3.0118,-3.0313,-3.0313,-3.0606,-3.0801,-3.0801,-3.0801,-3.0997,-3.1543,-3.209,-3.2695,-3.3534,-3.4413,-3.5096,-3.5408,-3.5467,-3.5603,-3.5932,-3.601,-3.601,-3.601,-3.601,-3.601,-3.601,-3.601,-3.601,-3.601,-3.601,-3.601,-3.601,-3.601,-3.601,-3.601,-3.601,-3.601,-3.601,-3.601,-3.601,-3.6013,-3.6016,-3.6021,-3.6021,-3.6021,-3.6003,-3.6007,-3.6011,-3.6015,-3.5996,-3.6016,-3.5996,-3.5918,-3.5898,-3.5332,-3.5,-3.4531,-3.4062,-4.5211,-4.5102,-4.4374,-4.3671,-4.3111,-4.2854,-4.2264,-4.1495,-4.1466,-4.1325,-4.1111,-4.1106,-4.1081,-4.1033,-4.1035,-4.1035,-4.1015,-4.1015,-4.1035,-4.1034,-4.1035,-4.0683,-4.0019,-3.9199,-3.8358,-3.7532,-3.6712,-3.62,-3.6052,-3.601,-3.601,-3.601,-3.601,-3.601,-3.601,-3.601,-3.5698,-3.5034,-3.4195,-3.3437,-3.2773,-3.1719,-3.1036,-3.0821,-3.0801,-3.0801,-3.0801,-3.0253,-2.9923,-2.9904,-2.9316,-2.9257,-2.9865,-2.9923,-2.9923,-2.9923,-2.9923,-3.0177,-3.0762,-3.0801,-3.0801,-3.0801,-3.0801,-3.0899,-3.1114,-3.1231,-3.1758,-3.2734,-3.3241,-3.4003,-3.4549,-3.5486,-3.5971,-3.601,-3.601,-3.601,-3.601,-3.601,-3.601,-3.601,-3.601,-3.601,-3.601,-3.601,-3.601,-3.601,-3.601,-3.601,-3.601,-3.601,-3.601,-3.601,-3.601,-3.601,-3.601,-3.601,-3.601,-3.601,-3.6013,-3.6013,-3.601,-3.601,-3.6013,-3.6021,-3.6005,-3.6007,-3.6011,-3.6016,-3.6016,-3.6016,-3.5976,-3.5957,-3.5781,-3.5371,-3.5137,-4.5987,-4.591,-4.5169,-4.4835,-4.4801,-4.3981,-4.3138,-4.2325,-4.2309,-4.1875,-4.1212,-4.1103,-4.1097,-4.1089,-4.11,-4.1111,-4.1089,-4.1076,-4.1096,-4.11,-4.1096,-4.1076,-4.0989,-4.014,-3.9271,-3.8413,-3.7523,-3.6746,-3.6049,-3.601,-3.601,-3.601,-3.601,-3.601,-3.601,-3.601,-3.5991,-3.5776,-3.4998,-3.4549,-3.4334,-3.289,-3.166,-3.0977,-3.0801,-3.0801,-3.0782,-3.0762,-3.0723,-3.0743,-3.0606,-3.0645,-3.0723,-3.0704,-3.0684,-3.0704,-3.0704,-3.0723,-3.0782,-3.0801,-3.0801,-3.0801,-3.0801,-3.1133,-3.1856,-3.2304,-3.3046,-3.4393,-3.5076,-3.5408,-3.4959,-3.5525,-3.5991,-3.601,-3.601,-3.601,-3.601,-3.601,-3.601,-3.601,-3.601,-3.601,-3.601,-3.601,-3.601,-3.601,-3.601,-3.601,-3.601,-3.601,-3.601,-3.601,-3.601,-3.601,-3.601,-3.601,-3.601,-3.601,-3.601,-3.601,-3.601,-3.601,-3.601,-3.601,-3.6016,-3.6016,-3.6018,-3.6016,-3.6016,-3.6016,-3.6016,-3.6016,-3.6016,-3.6016,-3.5801,-4.6163,-4.6191,-4.5909,-4.5457,-4.4924,-4.4587,-4.3972,-4.3148,-4.2545,-4.2169,-4.1818,-4.1344,-4.111,-4.111,-4.1103,-4.1097,-4.111,-4.1103,-4.1103,-4.111,-4.1103,-4.1103,-4.1006,-4.0207,-3.9672,-3.919,-3.7908,-3.6809,-3.6102,-3.6004,-3.6007,-3.601,-3.601,-3.601,-3.601,-3.601,-3.601,-3.5916,-3.5154,-3.4705,-3.4627,-3.3554,-3.2519,-3.166,-3.1094,-3.0801,-3.0801,-3.0801,-3.0801,-3.0801,-3.0801,-3.0801,-3.0801,-3.0801,-3.0801,-3.0801,-3.0801,-3.0801,-3.0801,-3.0801,-3.0801,-3.0801,-3.0801,-3.1192,-3.207,-3.3046,-3.3983,-3.4686,-3.5506,-3.5779,-3.5701,-3.5835,-3.601,-3.601,-3.601,-3.601,-3.601,-3.601,-3.601,-3.601,-3.601,-3.601,-3.601,-3.601,-3.601,-3.601,-3.601,-3.603,-3.601,-3.601,-3.6108,-3.603,-3.601,-3.601,-3.601,-3.601,-3.601,-3.601,-3.601,-3.601,-3.601,-3.601,-3.601,-3.601,-3.601,-3.601,-3.6013,-3.6016,-3.6007,-3.6007,-3.6011,-3.6016,-3.6016,-3.6016,-3.6016,-4.6229,-4.6254,-4.6292,-4.5924,-4.5337,-4.5331,-4.4838,-4.4013,-4.3397,-4.2825,-4.2273,-4.1714,-4.1344,-4.113,-4.111,-4.111,-4.111,-4.111,-4.111,-4.111,-4.111,-4.111,-4.1013,-4.0506,-4.0064,-3.9563,-3.8029,-3.6913,-3.6426,-3.6134,-3.6024,-3.601,-3.601,-3.601,-3.601,-3.601,-3.601,-3.5874,-3.5408,-3.5115,-3.5018,-3.4276,-3.3554,-3.291,-3.2109,-3.1328,-3.0841,-3.0801,-3.0801,-3.0801,-3.0801,-3.0801,-3.0801,-3.0801,-3.0801,-3.0801,-3.0801,-3.0801,-3.0801,-3.0801,-3.0938,-3.1192,-3.1231,-3.166,-3.2831,-3.3846,-3.4549,-3.5115,-3.5603,-3.601,-3.601,-3.601,-3.601,-3.601,-3.601,-3.601,-3.601,-3.601,-3.601,-3.601,-3.601,-3.601,-3.601,-3.601,-3.601,-3.601,-3.6205,-3.6342,-3.6069,-3.654,-3.6696,-3.6521,-3.6794,-3.6755,-3.6677,-3.6599,-3.6264,-3.6186,-3.601,-3.601,-3.601,-3.601,-3.601,-3.601,-3.601,-3.601,-3.601,-3.601,-3.6013,-3.6013,-3.6021,-3.6016,-3.6016,-3.6016,-3.6016,-4.6207,-4.6211,-4.627,-4.6211,-4.6092,-4.6086,-4.567,-4.4975,-4.4773,-4.3858,-4.2728,-4.2318,-4.1825,-4.1286,-4.1149,-4.111,-4.111,-4.111,-4.111,-4.111,-4.111,-4.111,-4.1091,-4.1013,-4.0506,-3.9766,-3.8121,-3.7303,-3.7148,-3.6485,-3.6121,-3.603,-3.601,-3.601,-3.601,-3.601,-3.601,-3.5971,-3.5893,-3.5913,-3.5893,-3.5132,-3.4608,-3.4452,-3.371,-3.2539,-3.0958,-3.088,-3.088,-3.0801,-3.0801,-3.0801,-3.0801,-3.0801,-3.0801,-3.0801,-3.0801,-3.0801,-3.0801,-3.086,-3.1309,-3.1816,-3.207,-3.2773,-3.4081,-3.4569,-3.4998,-3.5701,-3.5932,-3.601,-3.601,-3.601,-3.601,-3.601,-3.601,-3.601,-3.601,-3.601,-3.601,-3.601,-3.601,-3.601,-3.601,-3.6127,-3.6186,-3.6303,-3.6794,-3.7106,-3.6657,-3.7419,-3.7965,-3.7692,-3.7653,-3.775,-3.7516,-3.7262,-3.6794,-3.6381,-3.6147,-3.601,-3.601,-3.601,-3.601,-3.601,-3.601,-3.601,-3.601,-3.601,-3.601,-3.6013,-3.6018,-3.6021,-3.6007,-3.6012,-3.6015,-4.6211,-4.62,-4.6221,-4.6228,-4.6209,-4.6209,-4.6008,-4.5728,-4.5183,-4.4579,-4.3916,-4.2825,-4.2163,-4.1831,-4.1383,-4.111,-4.111,-4.111,-4.111,-4.111,-4.111,-4.111,-4.111,-4.111,-4.0662,-3.9864,-3.9277,-3.8356,-3.739,-3.6992,-3.6629,-3.6127,-3.601,-3.601,-3.601,-3.601,-3.601,-3.601,-3.6007,-3.6004,-3.5985,-3.5731,-3.5321,-3.4736,-3.441,-3.3495,-3.1836,-3.1699,-3.1407,-3.086,-3.0801,-3.0801,-3.0801,-3.0801,-3.0801,-3.0801,-3.0801,-3.0801,-3.088,-3.1348,-3.1777,-3.2168,-3.2656,-3.3476,-3.4491,-3.4725,-3.5115,-3.5857,-3.601,-3.601,-3.601,-3.601,-3.601,-3.601,-3.601,-3.601,-3.601,-3.601,-3.601,-3.601,-3.601,-3.601,-3.6147,-3.6401,-3.6891,-3.697,-3.7633,-3.7985,-3.7946,-3.8219,-3.8531,-3.8277,-3.8512,-3.8668,-3.8355,-3.8141,-3.7848,-3.7282,-3.6833,-3.6381,-3.6284,-3.6205,-3.6166,-3.601,-3.601,-3.601,-3.601,-3.601,-3.601,-3.601,-3.6013,-3.6016,-3.6018,-3.6005,-3.601,-4.6202,-4.6195,-4.6201,-4.6216,-4.6196,-4.6196,-4.6196,-4.6137,-4.5631,-4.5202,-4.4637,-4.341,-4.2572,-4.2182,-4.1461,-4.113,-4.111,-4.111,-4.111,-4.111,-4.111,-4.111,-4.111,-4.111,-4.0857,-4.0312,-3.9939,-3.9248,-3.819,-3.7578,-3.7022,-3.6557,-3.6166,-3.601,-3.601,-3.601,-3.6007,-3.6004,-3.6017,-3.6013,-3.6013,-3.6017,-3.5728,-3.5259,-3.5191,-3.4471,-3.3183,-3.3066,-3.2519,-3.1543,-3.1289,-3.1289,-3.127,-3.1016,-3.0801,-3.0801,-3.0821,-3.0938,-3.127,-3.1777,-3.2461,-3.2988,-3.3573,-3.4256,-3.4959,-3.5174,-3.5486,-3.5876,-3.601,-3.601,-3.601,-3.601,-3.601,-3.601,-3.601,-3.601,-3.601,-3.601,-3.601,-3.6069,-3.6303,-3.642,-3.6638,-3.7204,-3.775,-3.7906,-3.8512,-3.8824,-3.8863,-3.9159,-3.9214,-3.9312,-3.9527,-3.9468,-3.9136,-3.898,-3.8902,-3.8316,-3.7692,-3.7184,-3.6852,-3.6735,-3.6657,-3.6166,-3.601,-3.601,-3.601,-3.601,-3.601,-3.601,-3.601,-3.6013,-3.6016,-3.6013,-3.6021,-4.6199,-4.6206,-4.6195,-4.6209,-4.6196,-4.6196,-4.6196,-4.6196,-4.602,-4.5553,-4.4793,-4.3741,-4.2981,-4.2241,-4.1461,-4.111,-4.111,-4.111,-4.111,-4.111,-4.111,-4.111,-4.111,-4.111,-4.1033,-4.0883,-4.029,-3.9858,-3.9442,-3.8163,-3.7331,-3.7142,-3.6401,-3.601,-3.601,-3.6004,-3.6013,-3.6005,-3.6005,-3.6005,-3.6005,-3.6013,-3.5981,-3.5923,-3.5871,-3.5428,-3.4588,-3.4393,-3.3768,-3.2422,-3.2168,-3.2168,-3.2031,-3.1387,-3.1133,-3.1172,-3.0997,-3.1465,-3.1992,-3.2441,-3.3027,-3.4256,-3.4647,-3.5096,-3.572,-3.5835,-3.5874,-3.5991,-3.601,-3.601,-3.601,-3.601,-3.601,-3.601,-3.601,-3.601,-3.601,-3.601,-3.6069,-3.6264,-3.6794,-3.7321,-3.734,-3.8121,-3.8551,-3.8785,-3.9351,-3.9507,-3.9449,-3.9881,-4.0405,-4.0483,-4.0385,-4.0268,-3.9937,-3.9897,-3.98,-3.9566,-3.8902,-3.8316,-3.7516,-3.7223,-3.7028,-3.654,-3.601,-3.601,-3.601,-3.601,-3.601,-3.601,-3.601,-3.601,-3.601,-3.601,-3.601,-4.621,-4.6201,-4.6203,-4.6203,-4.6196,-4.6196,-4.6196,-4.6098,-4.5475,-4.5085,-4.4579,-4.3293,-4.2572,-4.2241,-4.1481,-4.111,-4.111,-4.111,-4.111,-4.111,-4.111,-4.111,-4.111,-4.111,-4.1117,-4.105,-4.0788,-4.0413,-3.9763,-3.867,-3.7874,-3.7292,-3.6446,-3.602,-3.6007,-3.5997,-3.602,-3.6002,-3.5948,-3.5958,-3.5986,-3.6009,-3.6013,-3.602,-3.6007,-3.5564,-3.4803,-3.4705,-3.4217,-3.32,-3.3044,-3.3066,-3.3027,-3.2773,-3.2558,-3.2558,-3.2636,-3.2751,-3.3085,-3.3612,-3.4217,-3.4666,-3.5271,-3.5759,-3.5952,-3.601,-3.601,-3.601,-3.601,-3.601,-3.601,-3.601,-3.601,-3.601,-3.601,-3.601,-3.601,-3.603,-3.6225,-3.6852,-3.7145,-3.7594,-3.818,-3.8921,-3.9468,-3.9644,-4.0093,-4.062,-4.0385,-4.0408,-4.0854,-4.0932,-4.0893,-4.0873,-4.0815,-4.0776,-4.0737,-4.0678,-4.0229,-3.9663,-3.8629,-3.7672,-3.7399,-3.7028,-3.6225,-3.601,-3.601,-3.601,-3.601,-3.601,-3.601,-3.601,-3.601,-3.601,-3.601,-4.6201,-4.6201,-4.6209,-4.6196,-4.6137,-4.5806,-4.565,-4.5475,-4.4754,-4.4345,-4.4052,-4.2942,-4.2299,-4.2221,-4.1481,-4.111,-4.111,-4.111,-4.111,-4.111,-4.111,-4.111,-4.111,-4.111,-4.1117,-4.1103,-4.11,-4.0584,-3.9774,-3.892,-3.8081,-3.7265,-3.6419,-3.6029,-3.6001,-3.5966,-3.5968,-3.5953,-3.5919,-3.5929,-3.5938,-3.5981,-3.6009,-3.602,-3.6007,-3.5701,-3.531,-3.5252,-3.4976,-3.4527,-3.4178,-3.3944,-3.3905,-3.3573,-3.3398,-3.3398,-3.3398,-3.3509,-3.3926,-3.4423,-3.4836,-3.5197,-3.5767,-3.5952,-3.601,-3.601,-3.601,-3.601,-3.601,-3.601,-3.601,-3.601,-3.601,-3.601,-3.601,-3.601,-3.601,-3.601,-3.6225,-3.6735,-3.7399,-3.8004,-3.8609,-3.9605,-4.019,-4.0424,-4.0678,-4.0952,-4.101,-4.1108,-4.1108,-4.1108,-4.1108,-4.103,-4.101,-4.0971,-4.0971,-4.0991,-4.0893,-4.0464,-3.9546,-3.8277,-3.7653,-3.7223,-3.6501,-3.6049,-3.6108,-3.6108,-3.601,-3.601,-3.601,-3.601,-3.601,-3.601,-3.601,-4.6196,-4.6196,-4.6196,-4.6137,-4.5923,-4.526,-4.489,-4.4618,-4.3838,-4.3461,-4.3254,-4.2546,-4.2065,-4.2143,-4.1383,-4.111,-4.111,-4.111,-4.111,-4.111,-4.111,-4.111,-4.111,-4.111,-4.111,-4.1097,-4.1109,-4.071,-3.9955,-3.9067,-3.8151,-3.739,-3.6528,-3.602,-3.5962,-3.5914,-3.5899,-3.5894,-3.5889,-3.5919,-3.5934,-3.5981,-3.6009,-3.6004,-3.6007,-3.5971,-3.5893,-3.591,-3.5845,-3.5903,-3.5227,-3.4881,-3.4744,-3.4059,-3.3799,-3.3815,-3.3926,-3.4125,-3.4594,-3.4878,-3.5135,-3.5695,-3.5892,-3.5985,-3.5955,-3.5927,-3.5951,-3.5981,-3.5988,-3.5985,-3.601,-3.601,-3.601,-3.601,-3.601,-3.601,-3.6108,-3.6127,-3.6166,-3.6342,-3.7789,-3.857,-3.9234,-4.0034,-4.1069,-4.0756,-4.101,-4.1049,-4.1108,-4.1108,-4.1108,-4.1108,-4.1108,-4.1108,-4.1088,-4.1088,-4.1088,-4.1069,-4.1069,-4.0756,-4.0132,-3.9058,-3.8102,-3.7399,-3.697,-3.6599,-3.6381,-3.6303,-3.6166,-3.6166,-3.6264,-3.6127,-3.601,-3.601,-3.601,-4.6196,-4.6196,-4.6196,-4.5806,-4.5202,-4.4968,-4.4501,-4.3819,-4.2961,-4.2585,-4.2396,-4.1734,-4.1422,-4.1364,-4.1208,-4.111,-4.111,-4.111,-4.111,-4.111,-4.111,-4.111,-4.111,-4.111,-4.1117,-4.1103,-4.1114,-4.0944,-4.0423,-3.919,-3.839,-3.7961,-3.6611,-3.5919,-3.5919,-3.5899,-3.5894,-3.5889,-3.5889,-3.5924,-3.5977,-3.6005,-3.6013,-3.6004,-3.601,-3.5971,-3.5949,-3.5927,-3.5864,-3.5774,-3.5719,-3.5594,-3.5532,-3.5377,-3.5183,-3.5134,-3.5139,-3.5263,-3.5527,-3.5543,-3.5671,-3.5805,-3.5889,-3.5889,-3.5774,-3.5781,-3.582,-3.5894,-3.5929,-3.5947,-3.6007,-3.601,-3.601,-3.601,-3.601,-3.6264,-3.6833,-3.6989,-3.7204,-3.7946,-3.8804,-3.9761,-4.0366,-4.0581,-4.1088,-4.1108,-4.1108,-4.1108,-4.1108,-4.1108,-4.1108,-4.1108,-4.1108,-4.1108,-4.1108,-4.1108,-4.1108,-4.1108,-4.1108,-4.1088,-4.0464,-3.9995,-3.9078,-3.8277,-3.7594,-3.7282,-3.7048,-3.6599,-3.6482,-3.6501,-3.6482,-3.6264,-3.6108,-3.6069,-3.601,-4.5572,-4.5553,-4.5144,-4.4715,-4.4267,-4.3838,-4.341,-4.2883,-4.2085,-4.1753,-4.1656,-4.1247,-4.111,-4.111,-4.111,-4.111,-4.111,-4.111,-4.111,-4.111,-4.111,-4.111,-4.111,-4.111,-4.1117,-4.1103,-4.1103,-4.0758,-3.9783,-3.9004,-3.8024,-3.7322,-3.6323,-3.5947,-3.5889,-3.5889,-3.5889,-3.5894,-3.5894,-3.5929,-3.5981,-3.6009,-3.5986,-3.5974,-3.5981,-3.5932,-3.5815,-3.588,-3.5818,-3.5765,-3.5791,-3.585,-3.585,-3.584,-3.5807,-3.5794,-3.5753,-3.5713,-3.5757,-3.5779,-3.5767,-3.5776,-3.5799,-3.576,-3.5729,-3.5713,-3.5779,-3.5852,-3.5894,-3.5929,-3.6007,-3.601,-3.601,-3.601,-3.601,-3.6381,-3.7067,-3.7321,-3.7653,-3.8492,-3.9234,-3.9819,-4.0366,-4.0873,-4.1088,-4.1108,-4.1108,-4.1108,-4.1108,-4.1108,-4.1108,-4.1108,-4.1108,-4.1108,-4.1108,-4.1108,-4.1108,-4.1108,-4.1108,-4.1108,-4.0854,-4.0503,-4.0132,-3.9253,-3.8355,-3.8102,-3.7828,-3.734,-3.6911,-3.6931,-3.6833,-3.6462,-3.6166,-3.6049,-3.601,-4.4832,-4.4637,-4.3916,-4.3546,-4.3293,-4.2669,-4.2299,-4.2026,-4.1403,-4.1208,-4.111,-4.111,-4.111,-4.111,-4.111,-4.111,-4.111,-4.111,-4.111,-4.111,-4.111,-4.111,-4.111,-4.111,-4.111,-4.111,-4.111,-4.0292,-3.926,-3.848,-3.7818,-3.6434,-3.5967,-3.5908,-3.5889,-3.5889,-3.5894,-3.5899,-3.5885,-3.5914,-3.5986,-3.6013,-3.597,-3.5947,-3.5947,-3.5887,-3.5763,-3.5772,-3.5793,-3.5695,-3.5657,-3.5679,-3.5678,-3.5696,-3.5696,-3.5676,-3.5669,-3.566,-3.565,-3.5679,-3.5688,-3.5618,-3.567,-3.5678,-3.5669,-3.565,-3.5715,-3.5799,-3.5859,-3.5864,-3.5951,-3.5927,-3.5947,-3.599,-3.6033,-3.6563,-3.7226,-3.7542,-3.8209,-3.8765,-3.9653,-4.0309,-4.0476,-4.0795,-4.0971,-4.1108,-4.1108,-4.1108,-4.1108,-4.1108,-4.1108,-4.1108,-4.1108,-4.1108,-4.1108,-4.1108,-4.1108,-4.1108,-4.1108,-4.1108,-4.1108,-4.0893,-4.0483,-3.9858,-3.9195,-3.8941,-3.8512,-3.7926,-3.7594,-3.7497,-3.6989,-3.6401,-3.6147,-3.603,-3.601,-4.4462,-4.3792,-4.3656,-4.3189,-4.2552,-4.2338,-4.1909,-4.1344,-4.1188,-4.111,-4.111,-4.111,-4.111,-4.111,-4.111,-4.111,-4.111,-4.111,-4.111,-4.111,-4.111,-4.111,-4.111,-4.111,-4.111,-4.111,-4.1071,-4.0487,-3.9493,-3.885,-3.7857,-3.698,-3.622,-3.5908,-3.5889,-3.5889,-3.588,-3.589,-3.589,-3.5934,-3.5994,-3.5994,-3.5955,-3.5923,-3.5909,-3.5836,-3.5739,-3.5667,-3.5623,-3.5534,-3.5528,-3.5534,-3.5565,-3.5596,-3.5609,-3.5599,-3.5581,-3.5577,-3.5585,-3.5588,-3.5629,-3.5618,-3.5629,-3.5585,-3.5565,-3.556,-3.5585,-3.566,-3.5713,-3.5753,-3.5733,-3.5781,-3.5767,-3.5896,-3.6319,-3.7039,-3.7929,-3.854,-3.9087,-3.954,-4.0213,-4.0716,-4.0773,-4.0828,-4.0991,-4.1108,-4.1108,-4.1108,-4.1108,-4.1108,-4.1108,-4.1108,-4.1108,-4.1108,-4.1108,-4.1108,-4.1108,-4.1108,-4.1108,-4.1108,-4.1108,-4.1108,-4.0756,-4.021,-3.9917,-3.9702,-3.9175,-3.859,-3.8199,-3.8043,-3.7204,-3.6284,-3.6108,-3.601,-3.601,-4.3312,-4.2896,-4.2494,-4.2085,-4.1734,-4.1675,-4.1481,-4.1149,-4.111,-4.111,-4.111,-4.111,-4.111,-4.111,-4.111,-4.111,-4.111,-4.111,-4.111,-4.111,-4.111,-4.111,-4.111,-4.111,-4.111,-4.111,-4.1052,-4.039,-3.9221,-3.8733,-3.7779,-3.6668,-3.6045,-3.5889,-3.5889,-3.5889,-3.5885,-3.5895,-3.588,-3.5904,-3.5974,-3.5966,-3.5914,-3.5839,-3.5814,-3.5721,-3.5629,-3.5611,-3.557,-3.5515,-3.5488,-3.5507,-3.5501,-3.5522,-3.5553,-3.556,-3.5528,-3.5501,-3.5528,-3.554,-3.554,-3.554,-3.5534,-3.5515,-3.5501,-3.5501,-3.5522,-3.5596,-3.566,-3.5713,-3.5702,-3.5704,-3.5713,-3.5771,-3.6179,-3.7014,-3.7994,-3.8635,-3.9365,-4.0117,-4.0599,-4.0891,-4.0969,-4.1027,-4.1085,-4.1108,-4.1108,-4.1108,-4.1108,-4.1108,-4.1108,-4.1108,-4.1108,-4.1108,-4.1108,-4.1108,-4.1108,-4.1108,-4.1108,-4.1108,-4.103,-4.101,-4.0952,-4.0678,-4.0483,-4.0015,-4.0112,-3.9624,-3.9117,-3.8453,-3.7497,-3.6677,-3.6225,-3.601,-3.6013,-4.2202,-4.2007,-4.1364,-4.111,-4.111,-4.111,-4.113,-4.111,-4.111,-4.111,-4.111,-4.111,-4.111,-4.111,-4.111,-4.111,-4.111,-4.111,-4.111,-4.111,-4.111,-4.111,-4.111,-4.111,-4.111,-4.111,-4.1091,-4.0195,-3.8909,-3.8539,-3.7506,-3.6434,-3.5928,-3.5889,-3.5889,-3.5878,-3.5875,-3.5858,-3.5819,-3.5869,-3.5934,-3.5894,-3.5827,-3.5702,-3.5696,-3.5631,-3.5557,-3.555,-3.5553,-3.5515,-3.5507,-3.5507,-3.5507,-3.5507,-3.5507,-3.5507,-3.5507,-3.5507,-3.5488,-3.5488,-3.5501,-3.5515,-3.5488,-3.5507,-3.5507,-3.5488,-3.5528,-3.5581,-3.5629,-3.5641,-3.5631,-3.565,-3.567,-3.5776,-3.6067,-3.6697,-3.7878,-3.8789,-3.9633,-4.0304,-4.0824,-4.1003,-4.1011,-4.1066,-4.1108,-4.1108,-4.1108,-4.1108,-4.1108,-4.1108,-4.1108,-4.1108,-4.1108,-4.1108,-4.1108,-4.1108,-4.1108,-4.1108,-4.1108,-4.1108,-4.0991,-4.0873,-4.0737,-4.0503,-4.0112,-3.9761,-4.019,-4.0268,-3.9253,-3.8355,-3.7633,-3.6931,-3.6267,-3.5994,-3.5996,-4.189,-4.1247,-4.1169,-4.111,-4.111,-4.111,-4.111,-4.111,-4.111,-4.111,-4.111,-4.111,-4.111,-4.111,-4.111,-4.111,-4.111,-4.111,-4.111,-4.111,-4.111,-4.111,-4.111,-4.111,-4.1104,-4.1078,-4.1078,-4.0097,-3.8851,-3.8481,-3.7578,-3.6228,-3.5846,-3.5889,-3.585,-3.5827,-3.5795,-3.5791,-3.5787,-3.5833,-3.5858,-3.5787,-3.571,-3.5676,-3.5641,-3.56,-3.556,-3.5538,-3.5515,-3.5501,-3.5507,-3.5507,-3.5507,-3.5507,-3.5507,-3.5507,-3.5507,-3.5507,-3.5507,-3.5507,-3.5507,-3.5507,-3.5507,-3.5507,-3.5507,-3.5507,-3.5488,-3.5488,-3.5522,-3.5553,-3.557,-3.5547,-3.5554,-3.5939,-3.6462,-3.7192,-3.8132,-3.8692,-3.9564,-4.0361,-4.0852,-4.0948,-4.0981,-4.1057,-4.1108,-4.1108,-4.1108,-4.1108,-4.1108,-4.1108,-4.1108,-4.1108,-4.1108,-4.1108,-4.1108,-4.1108,-4.1108,-4.1108,-4.1108,-4.1088,-4.0932,-4.0717,-4.019,-3.9917,-3.9566,-3.9527,-3.9937,-3.9722,-3.8961,-3.8124,-3.7268,-3.664,-3.6111,-3.5996,-3.5968,-4.1422,-4.111,-4.111,-4.111,-4.111,-4.111,-4.111,-4.111,-4.111,-4.111,-4.111,-4.111,-4.111,-4.111,-4.111,-4.111,-4.111,-4.1104,-4.111,-4.1104,-4.1104,-4.1104,-4.111,-4.1104,-4.1078,-4.0988,-4.0785,-3.9945,-3.8866,-3.8222,-3.7491,-3.6024,-3.5741,-3.5721,-3.582,-3.5737,-3.5728,-3.5736,-3.5747,-3.5737,-3.5724,-3.5688,-3.5641,-3.5631,-3.5581,-3.555,-3.5538,-3.5521,-3.5488,-3.5507,-3.5507,-3.5507,-3.5507,-3.5507,-3.5507,-3.5507,-3.5507,-3.5507,-3.5507,-3.5507,-3.5507,-3.5507,-3.5507,-3.5507,-3.5507,-3.5501,-3.5522,-3.5565,-3.5509,-3.5534,-3.5581,-3.5581,-3.5604,-3.5944,-3.6648,-3.7386,-3.8063,-3.8631,-3.9325,-4.0101,-4.082,-4.0894,-4.0948,-4.1006,-4.107,-4.1108,-4.1108,-4.1108,-4.1108,-4.1108,-4.1108,-4.1108,-4.1108,-4.1108,-4.1108,-4.1108,-4.1108,-4.1108,-4.1108,-4.1049,-4.0893,-4.0581,-3.9937,-3.9468,-3.9195,-3.9331,-3.9624,-3.9019,-3.8082,-3.7443,-3.6825,-3.6367,-3.5957,-3.5937,-3.5915,-4.111,-4.111,-4.111,-4.111,-4.111,-4.111,-4.111,-4.111,-4.111,-4.111,-4.111,-4.111,-4.111,-4.111,-4.111,-4.111,-4.1104,-4.1071,-4.1078,-4.1078,-4.1038,-4.1003,-4.0996,-4.1023,-4.0935,-4.0849,-4.0849,-3.9982,-3.8977,-3.833,-3.7732,-3.6005,-3.6075,-3.6037,-3.5935,-3.5756,-3.5643,-3.5674,-3.5657,-3.563,-3.5629,-3.5604,-3.5562,-3.5546,-3.5554,-3.5507,-3.5507,-3.5488,-3.5507,-3.5507,-3.5507,-3.5507,-3.5507,-3.5507,-3.5507,-3.5507,-3.5507,-3.5507,-3.5507,-3.5507,-3.5507,-3.5488,-3.5528,-3.5534,-3.5534,-3.5534,-3.5565,-3.562,-3.5596,-3.5639,-3.5718,-3.5805,-3.6077,-3.6241,-3.6511,-3.7266,-3.8033,-3.8732,-3.9285,-3.9885,-4.0505,-4.0898,-4.0935,-4.0981,-4.1022,-4.1101,-4.1108,-4.1108,-4.1108,-4.1108,-4.1108,-4.1108,-4.1108,-4.1108,-4.1108,-4.1108,-4.1108,-4.1108,-4.1108,-4.1069,-4.0952,-4.0249,-3.9409,-3.9058,-3.8804,-3.8141,-3.7867,-3.7555,-3.7282,-3.7053,-3.6777,-3.623,-3.5898,-3.5879,-3.5884,-4.111,-4.111,-4.111,-4.111,-4.111,-4.111,-4.111,-4.111,-4.111,-4.111,-4.111,-4.1104,-4.1078,-4.1078,-4.1071,-4.1052,-4.1078,-4.0971,-4.098,-4.0943,-4.0869,-4.0849,-4.0849,-4.0828,-4.0742,-4.0718,-4.0706,-4.0108,-3.9374,-3.909,-3.8202,-3.703,-3.6818,-3.6837,-3.651,-3.5913,-3.5589,-3.5579,-3.5534,-3.5546,-3.5546,-3.554,-3.5515,-3.5515,-3.5501,-3.5507,-3.5507,-3.5507,-3.5507,-3.5507,-3.5507,-3.5507,-3.5507,-3.5507,-3.5507,-3.5507,-3.5507,-3.5507,-3.5507,-3.5488,-3.5488,-3.5509,-3.554,-3.5593,-3.5615,-3.565,-3.5676,-3.5696,-3.566,-3.5784,-3.6012,-3.6323,-3.6623,-3.7051,-3.7325,-3.7863,-3.8564,-3.9035,-3.9548,-3.9824,-4.0273,-4.0799,-4.0961,-4.1011,-4.1028,-4.1104,-4.1108,-4.1108,-4.1108,-4.1108,-4.1108,-4.1108,-4.1108,-4.1108,-4.1108,-4.1108,-4.1108,-4.1108,-4.1108,-4.1108,-4.1069,-4.0171,-3.9253,-3.8629,-3.8277,-3.7184,-3.644,-3.6891,-3.7145,-3.7053,-3.6738,-3.6152,-3.5879,-3.5879,-3.5885,-4.111,-4.111,-4.111,-4.111,-4.111,-4.111,-4.111,-4.111,-4.111,-4.111,-4.1085,-4.1003,-4.096,-4.0952,-4.0869,-4.0829,-4.0849,-4.0818,-4.0828,-4.0818,-4.0754,-4.073,-4.0742,-4.0706,-4.0668,-4.0607,-4.054,-4.0081,-3.9191,-3.9555,-3.9224,-3.8439,-3.7719,-3.7046,-3.6584,-3.5957,-3.554,-3.5443,-3.5402,-3.5402,-3.5449,-3.5463,-3.546,-3.5493,-3.5507,-3.5507,-3.5507,-3.5507,-3.5507,-3.5507,-3.5507,-3.5507,-3.5507,-3.5507,-3.5507,-3.5488,-3.5501,-3.5501,-3.5501,-3.5501,-3.5515,-3.5546,-3.5585,-3.5639,-3.5679,-3.5685,-3.5753,-3.5779,-3.5791,-3.5974,-3.6699,-3.6935,-3.719,-3.7829,-3.8302,-3.8706,-3.9051,-3.9468,-3.9773,-4.0064,-4.0491,-4.0974,-4.1033,-4.1037,-4.1074,-4.1108,-4.1108,-4.1108,-4.1108,-4.1108,-4.1108,-4.1108,-4.1108,-4.1108,-4.1108,-4.1108,-4.1108,-4.1108,-4.1108,-4.1108,-4.103,-4.0327,-3.9429,-3.8687,-3.8024,-3.7379,-3.7028,-3.7048,-3.6936,-3.6653,-3.6367,-3.6016,-3.5879,-3.5852,-3.5859,-4.1078,-4.1038,-4.1038,-4.1057,-4.1038,-4.1078,-4.1064,-4.0988,-4.1023,-4.1003,-4.098,-4.0888,-4.0839,-4.0818,-4.0773,-4.0706,-4.0706,-4.0668,-4.0681,-4.0675,-4.0635,-4.0635,-4.0602,-4.0593,-4.0508,-4.0463,-4.0389,-3.9978,-3.9564,-4.0062,-3.9831,-3.9275,-3.855,-3.7759,-3.691,-3.586,-3.5324,-3.53,-3.5315,-3.533,-3.5379,-3.5412,-3.5427,-3.5493,-3.5507,-3.5507,-3.5507,-3.5507,-3.5507,-3.5507,-3.5507,-3.5507,-3.5507,-3.5507,-3.552,-3.5528,-3.5522,-3.5522,-3.5522,-3.5534,-3.5553,-3.5585,-3.5698,-3.5724,-3.5737,-3.5774,-3.5864,-3.5924,-3.6053,-3.6512,-3.7379,-3.7706,-3.822,-3.89,-3.8943,-3.9256,-3.9412,-3.9739,-4.0004,-4.0291,-4.0715,-4.1074,-4.1074,-4.1074,-4.1078,-4.1108,-4.1108,-4.1108,-4.1108,-4.1108,-4.1108,-4.1108,-4.1108,-4.1108,-4.1108,-4.1108,-4.1108,-4.1108,-4.1108,-4.1108,-4.0873,-4.0249,-3.98,-3.9253,-3.859,-3.7867,-3.7458,-3.7243,-3.669,-3.6113,-3.5947,-3.5884,-3.5852,-3.5818,-3.5811,-4.1023,-4.0917,-4.0907,-4.0907,-4.0907,-4.1038,-4.0963,-4.0776,-4.0849,-4.0849,-4.0754,-4.0718,-4.0706,-4.0713,-4.0655,-4.0648,-4.0621,-4.0549,-4.0549,-4.0593,-4.046,-4.0411,-4.0427,-4.0413,-4.0381,-4.031,-4.0175,-4.0041,-4.0138,-4.0024,-4.0024,-3.9852,-3.903,-3.8207,-3.7689,-3.6124,-3.5353,-3.532,-3.53,-3.535,-3.5364,-3.5398,-3.5427,-3.5474,-3.5507,-3.5507,-3.5507,-3.5507,-3.5507,-3.5507,-3.5507,-3.5488,-3.5515,-3.5515,-3.5547,-3.5596,-3.5596,-3.5607,-3.5607,-3.5607,-3.5609,-3.565,-3.5768,-3.5853,-3.5889,-3.5942,-3.6095,-3.6251,-3.6661,-3.7133,-3.7867,-3.8606,-3.925,-3.9738,-3.978,-3.9839,-4.0015,-4.0112,-4.0395,-4.0563,-4.0828,-4.1108,-4.1108,-4.1108,-4.1108,-4.1108,-4.1108,-4.1108,-4.1108,-4.1108,-4.1108,-4.1108,-4.1108,-4.1108,-4.1108,-4.1108,-4.1108,-4.1108,-4.1108,-4.1108,-4.0952,-4.0522,-4.0112,-3.9741,-3.939,-3.8863,-3.8063,-3.7324,-3.6713,-3.6152,-3.5968,-3.5869,-3.5818,-3.5791,-3.5791,-4.0798,-4.0784,-4.0784,-4.0706,-4.0655,-4.0765,-4.0784,-4.0718,-4.0761,-4.075,-4.0681,-4.0602,-4.0579,-4.0549,-4.0454,-4.0406,-4.0427,-4.0413,-4.0432,-4.0432,-4.0328,-4.0346,-4.0327,-4.0346,-4.0291,-4.0138,-3.989,-3.9852,-4.0253,-3.9756,-3.989,-3.9833,-3.8744,-3.7768,-3.6889,-3.5802,-3.5245,-3.5223,-3.5273,-3.5324,-3.535,-3.5379,-3.5427,-3.5474,-3.5507,-3.5507,-3.5507,-3.5507,-3.5488,-3.5515,-3.5495,-3.5522,-3.5565,-3.5558,-3.5596,-3.565,-3.5669,-3.5669,-3.5715,-3.5732,-3.5799,-3.5813,-3.5853,-3.5924,-3.5951,-3.5965,-3.6264,-3.6755,-3.7184,-3.7828,-3.8921,-3.9292,-3.9858,-4.0503,-4.0678,-4.0659,-4.0756,-4.0756,-4.0851,-4.089,-4.1069,-4.1108,-4.1108,-4.1108,-4.1108,-4.1108,-4.1108,-4.1108,-4.1108,-4.1108,-4.1108,-4.1108,-4.1108,-4.1108,-4.1108,-4.1108,-4.1108,-4.1108,-4.1108,-4.1108,-4.0912,-4.0698,-4.0405,-4.0054,-3.9995,-3.9861,-3.8671,-3.7582,-3.6813,-3.6306,-3.6046,-3.5869,-3.5826,-3.5807,-3.5791,-4.0398,-4.059,-4.0301,-4.0314,-4.0457,-4.0635,-4.0668,-4.0648,-4.0593,-4.0564,-4.0534,-4.046,-4.0447,-4.0319,-4.0058,-4.0138,-4.0215,-3.9947,-4.0196,-4.0234,-4.0329,-4.031,-4.031,-4.0234,-4.0043,-3.9814,-3.9412,-3.9279,-3.9202,-3.8782,-3.8629,-3.8438,-3.7902,-3.6927,-3.6107,-3.5477,-3.5226,-3.5242,-3.5293,-3.5304,-3.535,-3.5398,-3.5427,-3.5474,-3.5507,-3.5507,-3.5526,-3.552,-3.5528,-3.554,-3.5558,-3.5581,-3.5609,-3.5631,-3.5678,-3.5737,-3.5779,-3.5794,-3.5827,-3.584,-3.5883,-3.5929,-3.5924,-3.5958,-3.5985,-3.5991,-3.6498,-3.7028,-3.7633,-3.8551,-3.9507,-3.9858,-4.0424,-4.1069,-4.1069,-4.1049,-4.1049,-4.101,-4.101,-4.1069,-4.1088,-4.1108,-4.1108,-4.1108,-4.1108,-4.1108,-4.1108,-4.1108,-4.1108,-4.1108,-4.1108,-4.1108,-4.1108,-4.1108,-4.1108,-4.1108,-4.1108,-4.1108,-4.1108,-4.1108,-4.1088,-4.0912,-4.0639,-4.0444,-4.0483,-4.0154,-3.8908,-3.788,-3.7106,-3.6445,-3.5986,-3.5864,-3.584,-3.5823,-3.5807,-3.9747,-4.0254,-3.9508,-3.9547,-4.0135,-4.0294,-4.0433,-4.0454,-4.0363,-4.0291,-4.0252,-4.0194,-4.0041,-3.9928,-3.9298,-3.9336,-3.9737,-3.9221,-3.9431,-3.9794,-3.9756,-3.9909,-3.9928,-3.989,-3.9451,-3.9088,-3.8725,-3.8228,-3.7808,-3.7941,-3.7597,-3.7005,-3.6891,-3.6203,-3.563,-3.5321,-3.5242,-3.5258,-3.5308,-3.532,-3.5364,-3.5393,-3.5427,-3.5474,-3.5507,-3.5507,-3.5526,-3.5545,-3.5574,-3.5601,-3.5639,-3.5668,-3.5704,-3.5702,-3.5794,-3.5852,-3.5889,-3.5914,-3.5931,-3.5914,-3.5923,-3.5978,-3.6004,-3.601,-3.601,-3.6069,-3.6579,-3.7516,-3.8336,-3.9117,-3.9878,-4.0405,-4.0932,-4.1108,-4.1108,-4.1088,-4.1088,-4.1088,-4.1088,-4.1108,-4.1108,-4.1108,-4.1108,-4.1108,-4.1108,-4.1108,-4.1108,-4.1108,-4.1108,-4.1108,-4.1108,-4.1108,-4.1108,-4.1108,-4.1108,-4.1108,-4.1108,-4.1108,-4.1108,-4.1108,-4.1108,-4.1108,-4.0912,-4.0815,-4.0991,-4.0467,-3.9295,-3.8268,-3.7377,-3.6777,-3.6325,-3.597,-3.5963,-3.5845,-3.5811,-3.8326,-3.8467,-3.8238,-3.8261,-3.8437,-3.8539,-3.9191,-4.0269,-4.031,-4.0005,-3.9393,-3.9374,-3.9126,-3.8438,-3.819,-3.8285,-3.8304,-3.8247,-3.8228,-3.8457,-3.8725,-3.8534,-3.8514,-3.8591,-3.8304,-3.7999,-3.7655,-3.7483,-3.7636,-3.7617,-3.7177,-3.6661,-3.6377,-3.5878,-3.5496,-3.5261,-3.5273,-3.5289,-3.5304,-3.5369,-3.5398,-3.5427,-3.5474,-3.5474,-3.5507,-3.5507,-3.5507,-3.5545,-3.5568,-3.5612,-3.5627,-3.5671,-3.584,-3.5846,-3.5889,-3.5951,-3.5958,-3.5981,-3.5988,-3.5985,-3.5981,-3.5988,-3.601,-3.601,-3.601,-3.6225,-3.6716,-3.7848,-3.898,-3.978,-4.0327,-4.0815,-4.1108,-4.1108,-4.1108,-4.1108,-4.1108,-4.1108,-4.1108,-4.1108,-4.1108,-4.1108,-4.1108,-4.1108,-4.1108,-4.1108,-4.1108,-4.1108,-4.1108,-4.1108,-4.1108,-4.1108,-4.1108,-4.1108,-4.1108,-4.1108,-4.1108,-4.1108,-4.1108,-4.1108,-4.1108,-4.1108,-4.1108,-4.1108,-4.1108,-4.0581,-3.9741,-3.8793,-3.7899,-3.734,-3.6875,-3.643,-3.6066,-3.5924,-3.5833,-3.7406,-3.7636,-3.733,-3.7387,-3.7674,-3.7693,-3.8381,-3.9183,-3.9279,-3.8935,-3.8534,-3.8495,-3.819,-3.7769,-3.7464,-3.7426,-3.775,-3.7426,-3.7426,-3.7827,-3.7597,-3.7808,-3.7712,-3.7597,-3.754,-3.7158,-3.6814,-3.6661,-3.6833,-3.67,-3.6317,-3.6012,-3.5993,-3.5706,-3.5379,-3.528,-3.5304,-3.5315,-3.5364,-3.5398,-3.5427,-3.5474,-3.5474,-3.5507,-3.5507,-3.5488,-3.5507,-3.5526,-3.5591,-3.5671,-3.5681,-3.5809,-3.5938,-3.5938,-3.5923,-3.5991,-3.601,-3.6007,-3.601,-3.601,-3.601,-3.601,-3.601,-3.601,-3.6264,-3.6521,-3.736,-3.8375,-3.9409,-4.0327,-4.0737,-4.1108,-4.1108,-4.1108,-4.1108,-4.1108,-4.1108,-4.1108,-4.1108,-4.1108,-4.1108,-4.1108,-4.1108,-4.1108,-4.1108,-4.1108,-4.1108,-4.1108,-4.1108,-4.1108,-4.1108,-4.1108,-4.1108,-4.1108,-4.1108,-4.1108,-4.1108,-4.1108,-4.1108,-4.1108,-4.1108,-4.1108,-4.1108,-4.1108,-4.1108,-4.0542,-3.9976,-3.9334,-3.8559,-3.7963,-3.7245,-3.6596,-3.6142,-3.5885,-3.5833,-3.6814,-3.7387,-3.6719,-3.6776,-3.7426,-3.7387,-3.7426,-3.7521,-3.7502,-3.754,-3.7578,-3.7617,-3.7502,-3.7063,-3.6661,-3.6738,-3.6833,-3.6623,-3.6642,-3.7445,-3.7139,-3.7101,-3.7158,-3.7406,-3.6795,-3.6509,-3.6279,-3.5974,-3.5458,-3.5496,-3.5611,-3.5229,-3.5305,-3.5302,-3.534,-3.5312,-3.5335,-3.5374,-3.5393,-3.5427,-3.5474,-3.5488,-3.5507,-3.5507,-3.5488,-3.5488,-3.554,-3.5605,-3.572,-3.5767,-3.5845,-3.5971,-3.5988,-3.5988,-3.5991,-3.5991,-3.601,-3.601,-3.601,-3.601,-3.601,-3.601,-3.601,-3.601,-3.6245,-3.6501,-3.7262,-3.8434,-3.9468,-4.0327,-4.0834,-4.1049,-4.1108,-4.1108,-4.1108,-4.1108,-4.1108,-4.1108,-4.1108,-4.1108,-4.1108,-4.1108,-4.1108,-4.1108,-4.1108,-4.1108,-4.1108,-4.1108,-4.1108,-4.1108,-4.1108,-4.1108,-4.1108,-4.1108,-4.1108,-4.1108,-4.1108,-4.1108,-4.1108,-4.1108,-4.1108,-4.1108,-4.1108,-4.1108,-4.1088,-4.0737,-4.0229,-3.9783,-3.9259,-3.837,-3.7614,-3.6737,-3.6319,-3.6304,-3.5975,-3.563,-3.5783,-3.5592,-3.5649,-3.5802,-3.5802,-3.584,-3.5802,-3.5802,-3.6222,-3.67,-3.6738,-3.6451,-3.5974,-3.5802,-3.584,-3.5783,-3.5916,-3.5706,-3.5897,-3.5993,-3.6184,-3.5916,-3.6107,-3.5802,-3.5611,-3.5458,-3.5496,-3.5267,-3.519,-3.519,-3.5209,-3.5242,-3.528,-3.5302,-3.5343,-3.5379,-3.5416,-3.5455,-3.546,-3.5474,-3.5507,-3.5507,-3.5507,-3.5488,-3.5528,-3.556,-3.5618,-3.5736,-3.5831,-3.588,-3.5952,-3.5971,-3.601,-3.601,-3.601,-3.601,-3.601,-3.601,-3.601,-3.601,-3.601,-3.601,-3.601,-3.6108,-3.6303,-3.7009,-3.8277,-3.937,-4.019,-4.0834,-4.0991,-4.1108,-4.1108,-4.1108,-4.1108,-4.1108,-4.1108,-4.1108,-4.1108,-4.1108,-4.1108,-4.1108,-4.1108,-4.1108,-4.1108,-4.1108,-4.1108,-4.1108,-4.1108,-4.1108,-4.1108,-4.1108,-4.1108,-4.1108,-4.1108,-4.1108,-4.1108,-4.1108,-4.1108,-4.1108,-4.1108,-4.1108,-4.1108,-4.103,-4.0795,-4.0717,-4.0756,-4.0098,-3.9032,-3.8412,-3.771,-3.7616,-3.7629,-3.6891,-3.519,-3.519,-3.519,-3.519,-3.519,-3.519,-3.519,-3.519,-3.519,-3.5477,-3.5878,-3.5897,-3.5649,-3.5209,-3.519,-3.519,-3.519,-3.5209,-3.5324,-3.5248,-3.519,-3.5286,-3.519,-3.519,-3.5286,-3.5209,-3.5209,-3.5248,-3.5226,-3.5245,-3.5261,-3.5261,-3.5293,-3.5308,-3.5312,-3.5369,-3.5407,-3.5435,-3.5488,-3.5507,-3.5507,-3.5507,-3.5507,-3.5507,-3.5515,-3.5553,-3.5604,-3.5635,-3.5741,-3.5866,-3.5939,-3.5952,-3.5991,-3.601,-3.601,-3.601,-3.601,-3.601,-3.601,-3.601,-3.601,-3.601,-3.601,-3.601,-3.601,-3.6264,-3.6989,-3.8219,-3.9292,-4.0151,-4.0795,-4.1088,-4.1108,-4.1108,-4.1108,-4.1108,-4.1108,-4.1108,-4.1108,-4.1108,-4.1108,-4.1108,-4.1108,-4.1108,-4.1108,-4.1108,-4.1108,-4.1108,-4.1108,-4.1108,-4.1108,-4.1108,-4.1108,-4.1108,-4.1108,-4.1108,-4.1108,-4.1108,-4.1108,-4.1108,-4.1108,-4.1108,-4.1108,-4.1108,-4.1108,-4.1069,-4.1049,-4.0991,-4.0581,-3.9552,-3.9147,-3.8838,-3.8842,-3.8766,-3.8066,-3.519,-3.519,-3.519,-3.519,-3.519,-3.519,-3.519,-3.519,-3.519,-3.5209,-3.5267,-3.5267,-3.519,-3.519,-3.519,-3.519,-3.519,-3.519,-3.519,-3.519,-3.519,-3.519,-3.519,-3.519,-3.519,-3.519,-3.519,-3.5261,-3.5296,-3.5296,-3.5296,-3.5308,-3.5304,-3.5315,-3.535,-3.5379,-3.5441,-3.5474,-3.5507,-3.5507,-3.5507,-3.5507,-3.5507,-3.5507,-3.5501,-3.5547,-3.5618,-3.5697,-3.5779,-3.5875,-3.5958,-3.5988,-3.5991,-3.601,-3.601,-3.601,-3.601,-3.601,-3.601,-3.601,-3.601,-3.601,-3.601,-3.601,-3.601,-3.6362,-3.7087,-3.7926,-3.898,-3.9878,-4.0522,-4.1108,-4.1108,-4.1108,-4.1108,-4.1108,-4.1108,-4.1108,-4.1108,-4.1108,-4.1108,-4.1108,-4.1108,-4.1108,-4.1108,-4.1108,-4.1108,-4.1108,-4.1108,-4.1108,-4.1108,-4.1108,-4.1108,-4.1108,-4.1108,-4.1108,-4.1108,-4.1108,-4.1108,-4.1108,-4.1108,-4.1108,-4.1108,-4.1108,-4.1108,-4.1108,-4.0952,-4.0815,-4.0327,-4.0034,-3.9998,-3.9808,-3.9652,-3.9518,-3.9142,-3.519,-3.519,-3.519,-3.519,-3.519,-3.519,-3.519,-3.519,-3.519,-3.519,-3.519,-3.519,-3.519,-3.519,-3.519,-3.519,-3.519,-3.519,-3.519,-3.519,-3.519,-3.519,-3.519,-3.519,-3.519,-3.519,-3.519,-3.5245,-3.5312,-3.5312,-3.5308,-3.532,-3.5369,-3.5383,-3.5373,-3.5417,-3.5474,-3.5507,-3.5526,-3.5532,-3.5584,-3.5565,-3.5507,-3.5507,-3.5507,-3.5581,-3.566,-3.5704,-3.582,-3.5923,-3.5988,-3.601,-3.601,-3.601,-3.601,-3.601,-3.601,-3.601,-3.601,-3.601,-3.601,-3.601,-3.601,-3.601,-3.601,-3.603,-3.6716,-3.7321,-3.8336,-3.9253,-3.9976,-4.0834,-4.1088,-4.1108,-4.1108,-4.1108,-4.1108,-4.1108,-4.1108,-4.1108,-4.1108,-4.1108,-4.1108,-4.1108,-4.1108,-4.1108,-4.1108,-4.1108,-4.1108,-4.1108,-4.1108,-4.1108,-4.1108,-4.1108,-4.1108,-4.1108,-4.1108,-4.1108,-4.1108,-4.1108,-4.1108,-4.1108,-4.1108,-4.1108,-4.1108,-4.1108,-4.0932,-4.0795,-4.0815,-4.0678,-4.0815,-4.0759,-4.0542,-4.0249,-3.9858]}]]